     2              OBSERVATION DATA    GPS                 RINEX VERSION / TYPE
teqc 1997Jul24 19970814                                     PGM / RUN BY / DATE
                                                            COMMENT
Original Marker Name: 0618                                  COMMENT
Campaign Name: HPGN 1991                                    COMMENT
4-Character Station Name: 0618                              COMMENT
6-Character Antenna Code: TRMSST                            COMMENT
Vertical Measurement Point: TGP                             COMMENT
Vertical Offset to Rinex Ref. Point: 0.0629                 COMMENT
Radial Measurement Point: OGP                               COMMENT
Radial Offset to Rinex Ref. Point: 0.2413                   COMMENT
Antenna Height from Field Measurement: 1.5957 m             COMMENT
Original XYZ: -2531006.1892 -4590951.3001 3622576.4060      COMMENT
New XYZ position is based on association with SCEC monument COMMENT
E1E9T7Y0+0011. Position of that monument is believed to be  COMMENT
valid to within 1 m horizontally; vertical accuracy         COMMENT
should be no worse than 3-times this value.                 COMMENT
                                                            COMMENT
Revised Rinex header created by UCSD GPS archive for        COMMENT
GSAC on 19-Apr-1999 (1999:109) 06:03:08 GMT                 COMMENT
For assistance contact dagnew@ucsd.edu or hjohnson@ucsd.edu COMMENT
                                                            COMMENT
HPGN-CALIF STA 06-18 199_                                   MARKER NAME
unknown NATIONAL GEODETIC SURVEY                            OBSERVER / AGENCY
485 TRIMBLE 4000 SST NP 4.30 / SP 4.20                      REC # / TYPE / VERS
16 TR 4000SST L1/L2 GEO                                     ANT # / TYPE
 -2531012.0000 -4590952.0000  3622583.0000                  APPROX POSITION XYZ
        1.5144        0.0000        0.0000                  ANTENNA: DELTA H/E/N
     1     1     0                                          WAVELENGTH FACT L1/2
     3    C1    L1    L2                                    # / TYPES OF OBSERV
     0                                                      INTERVAL
  1991     4    25    22    41   15.000000                  TIME OF FIRST OBS
  1991     4    26     1    49   60.000000                  TIME OF LAST OBS
     0                                                      # OF SATELLITES
                                                            END OF HEADER
 91  4 25 22 41 15.0000000  0  5G 2G 6G13G15G19
  20883603.930      -52476.438 8        -0.39934
  21289268.2344         -0.62657        -0.29973
  23446983.7814         -0.53155        -0.34771
  24172456.164          -0.64315        -0.40431
  23153008.031          -0.92615        -0.34831
 91  4 25 22 41 30.0000000  0  5G 2G 6G13G15G19
  20882265.9064     -59510.91848     -5481.79764
  21283407.0784     -30799.92347    -23999.71163
  23434297.7734     -66674.98945    -51954.29761
  24167165.742      -27785.714 5    -21651.09521
  23158470.078       28701.658 5     22365.25821
 91  4 25 22 41 45.0000000  0  5G 2G 6G13G15G19
  20880936.711      -66500.779 8    -10928.43024
  21277553.1094     -61560.55447    -47968.99763
  23421612.688     -133310.087 5   -103877.65221
  24161898.477      -55475.685 5    -43227.65821
  23163943.7114      57453.68945     44769.40661
 91  4 25 22 42  0.0000000  0  5G 2G 6G13G15G19
  20879615.9304     -73447.19448    -16341.21064
  21271706.0164     -92283.69547    -71909.06863
  23408943.1564    -199906.75545   -155770.99061
  24156646.2814     -83071.32945    -64730.73361
  23169418.8674      86253.73445     67210.96261
 91  4 25 22 42 15.0000000  0  5G 2G 6G13G15G19
  20878301.3054     -80349.14148    -21719.34464
  21265867.6484    -122968.03547    -95818.90763
  23396277.6414    -266463.53745   -207633.24661
  24151417.555     -110571.377 5    -86159.31821
  23174907.9064     115102.75145     89690.69061
 91  4 25 22 42 30.0000000  0  5G 2G 6G13G15G19
  20876995.4694     -87207.75648    -27063.70864
  21260036.2894    -153614.15047   -119698.95863
  23383618.461     -332980.943 5   -259464.85521
  24146197.711     -137976.355 5   -107513.81321
  23180406.8444     143999.77345    112207.80161
 91  4 25 22 42 45.0000000  0  5G 2G 6G13G15G19
  20875699.3134     -94021.57048    -32373.16664
  21254212.7034    -184220.21947   -143547.80763
  23370969.0004    -399456.83345   -311264.10761
  24140997.125     -165284.188 5   -128792.62721
  23185921.8594     172946.52845    134763.67761
 91  4 25 22 43  0.0000000  0  5G 2G 6G13G15G19
  20874411.1484    -100793.14648    -37649.70964
  21248395.6174    -214788.47147   -167367.18163
  23358326.133     -465893.371 5   -363032.72621
  24135824.383     -192497.219 5   -149997.57121
  23191435.250      201940.269 5    157356.16121
 91  4 25 22 43 15.0000000  0  5G 2G 6G13G15G19
  20873129.9064    -107520.30148    -42891.63964
  21242584.3984    -245316.58947   -191155.28363
  23345692.5004    -532287.94345   -414768.59461
  24130663.547     -219612.743 5   -171126.52321
  23196962.953      230983.200 5    179986.99421
 91  4 25 22 43 30.0000000  0  5G 2G 6G13G15G19
  20871858.3284    -114199.51548    -48096.21363
  21236783.4064    -275800.78247   -214909.16563
  23333066.0394    -598636.65345   -466468.76461
  24125524.406     -246627.242 5   -192176.73821
  23202499.063      260078.890 5    202658.91221
 91  4 25 22 43 45.0000000  0  5G 2G 6G13G15G19
  20870598.3054    -120830.01648    -53262.82664
  21230993.3284    -306239.96047   -238627.97063
  23320446.8444    -664938.12745   -518132.10661
  24120398.859     -273539.668 5   -213147.43521
  23208045.656      289228.124 5    225372.55921
 91  4 25 22 44  0.0000000  0  5G 2G 6G13G15G19
  20869343.4224    -127420.14748    -58397.98364
  21225207.0944    -336642.17547   -262317.96863
  23307840.1024    -731200.36545   -569764.89461
  24115294.852     -300357.741 5   -234044.60221
  23213605.578      318422.627 5    248121.48521
 91  4 25 22 44 15.0000000  0  5G 2G 6G13G15G19
  20868096.9454    -133969.58848    -63501.43364
  21219429.6884    -367006.68247   -285978.58463
  23295241.445     -797422.546 5   -621366.43621
  24110218.125     -327080.946 5   -254867.85321
  23219166.4064     347662.76045    270905.97161
 91  4 25 22 44 30.0000000  0  5G 2G 6G13G15G19
  20866859.9694    -140476.28448    -68571.57864
  21213657.9224    -397331.10047   -309607.96163
  23282645.6644    -863602.17345   -672934.85361
  24105148.547     -353706.742 5   -275615.17821
  23224740.719      376950.547 5    293727.57621
 91  4 25 22 44 45.0000000  0  5G 2G 6G13G15G19
  20865629.2974    -146939.01648    -73607.46464
  21207894.2114    -427614.13447   -333205.09763
  23270053.180     -929737.573 5   -724468.81021
  24100097.1334    -380233.58545   -296285.43061
  23230324.063      406287.235 5    316587.27821
 91  4 25 22 45  0.0000000  0  5G 2G 6G13G15G19
  20864408.2344    -153355.77348    -78607.52963
  21202140.3594    -457853.37047   -356768.09863
  23257483.6334    -995826.47346   -775966.52661
  24095065.750     -406659.271 5   -316876.84221
  23235916.4844     435674.80545    339486.65061
 91  4 25 22 45 15.0000000  0  5G 2G 6G13G15G19
  20863195.2584    -159730.47647    -83574.81864
  21196393.3914    -488052.36447   -380299.75163
  23244915.961    -1061872.046 5   -827430.50321
  24090058.852     -432987.205 5   -337392.07921
  23241519.086      465109.216 5    362422.49821
 91  4 25 22 45 30.0000000  0  5G 2G 6G13G15G19
  20861989.4304    -166065.94448    -88511.54763
  21190655.6334    -518213.72247   -403802.06263
  23232352.9064   -1127876.68945   -878862.53461
  24085065.953     -459219.860 5   -357833.07621
  23247123.523      494587.911 5    385392.87421
 91  4 25 22 45 45.0000000  0  5G 2G 6G13G15G19
  20860793.1414    -172357.45648    -93414.01463
  21184924.2734    -548332.48747   -427271.19363
  23219803.586    -1193835.372 5   -930258.77721
  24080098.539     -485352.221 5   -378195.93621
  23252744.5314     524115.21645    408401.10761
 91  4 25 22 46  0.0000000  0  5G 2G 6G13G15G19
  20859603.3674    -178607.49148    -98284.16163
  21179200.9454    -578410.77247   -450708.78263
  23207258.602    -1259750.245 5   -981620.89921
  24075140.891     -511386.434 5   -398482.28521
  23258372.9534     553688.77245    431445.40561
 91  4 25 22 46 15.0000000  0  5G 2G 6G13G15G19
  20858423.0234    -184809.67648   -103117.02863
  21173486.3444    -608441.88447   -474109.61063
  23194727.133    -1325614.242 5  -1032943.36021
  24070209.125     -537315.729 5   -418686.91521
  23264015.156      583315.091 5    454530.79821
 91  4 25 22 46 30.0000000  0  5G 2G 6G13G15G19
  20857250.4774    -190967.28248   -107915.16063
  21167778.8364    -638428.83247   -497476.02563
  23182203.672    -1391430.309 5  -1084228.47121
  24065291.5944    -563143.08645   -438812.09161
  23269657.1174     612990.75145    477654.64761
 91  4 25 22 46 45.0000000  0  5G 2G 6G13G15G19
  20856088.0084    -197085.76448   -112682.80363
  21162080.0704    -668376.96447   -520812.19563
  23169683.8984   -1457203.75545  -1135480.38961
  24060396.4844    -588873.70645   -458861.88361
  23275313.5634     642710.26645    500812.65361
 91  4 25 22 47  0.0000000  0  5G 2G 6G13G15G19
  20854929.7034    -203163.44248   -117418.65064
  21156388.914     -698283.994 7   -544116.33223
  23157180.3204   -1522932.18145  -1186697.21361
  24055519.281     -614505.414 5   -478834.62021
  23280975.891      672475.694 5    524006.46921
 91  4 25 22 47 15.0000000  0  5G 2G 6G13G15G19
  20853784.7034    -209194.31548   -122118.02663
  21150705.3134    -728143.67547   -567383.57763
  23144679.9694   -1588608.81145  -1237873.69861
  24050655.172     -640032.015 5   -498725.45321
  23286651.961      702292.873 5    547240.60721
 91  4 25 22 47 30.0000000  0  5G 2G 6G13G15G19
  20852643.9384    -215182.05848   -126783.80164
  21145032.3674    -757959.59847   -590616.73163
  23132186.3054   -1654237.24845  -1289012.62661
  24045820.0314    -665456.98245   -518537.08361
  23292334.3674     732157.96445    570512.04661
 91  4 25 22 47 45.0000000  0  5G 2G 6G13G15G19
  20851513.3054    -221122.52148   -131412.72963
  21139367.5474    -787726.84947   -613811.96063
  23119710.836    -1719812.567 5  -1340110.13221
  24041005.391     -690775.415 5   -538265.69921
  23298026.8594     762075.33645    593824.25261
 91  4 25 22 48  0.0000000  0  5G 2G 6G13G15G19
  20850391.7424    -227014.38548   -136003.78864
  21133712.7344    -817444.25347   -636968.34663
  23107242.766    -1785333.211 5  -1391165.04021
  24036199.5164    -715985.98145   -557910.27861
  23303728.9454     792046.08445    617178.02961
 91  4 25 22 48 15.0000000  0  5G 2G 6G13G15G19
  20849279.9454    -232860.43648   -140559.15063
  21128067.1334    -847114.07347   -660087.65563
  23094786.016    -1850801.412 5  -1442179.12221
  24031428.1644    -741090.93545   -577472.54961
  23309442.0704     822067.67245    640571.42861
 91  4 25 22 48 30.0000000  0  5G 2G 6G13G15G19
  20848176.6414    -238658.27948   -145076.95064
  21122430.1024    -876733.76547   -683167.90263
  23082341.125    -1916214.674 5  -1493150.36021
  24026675.539     -766087.897 5   -596950.68421
  23315169.7274     852142.31745    664006.18361
 91  4 25 22 48 45.0000000  0  5G 2G 6G13G15G19
  20847081.6024    -244408.15148   -149557.36364
  21116803.4924    -906303.37847   -706209.12663
  23069899.1954   -1981572.84945  -1544078.70061
  24021935.5944    -790976.67445   -616344.51261
  23320899.9454     882269.54145    687481.89761
 91  4 25 22 49  0.0000000  0  5G 2G 6G13G15G19
  20845996.9304    -250110.38748   -154000.66664
  21111185.2424    -935822.76647   -729211.21863
  23057473.766    -2046875.541 5  -1594963.78521
  24017222.164     -815757.184 5   -635653.97521
  23326642.539      912449.252 5    710998.50821
 91  4 25 22 49 15.0000000  0  5G 2G 6G13G15G19
  20844922.4224    -255760.33948   -158403.22564
  21105578.7274    -965286.94947   -752170.28863
  23045054.3364   -2112117.55445  -1645801.58361
  24012527.9224    -840424.58545   -654875.29761
  23332395.3054     942686.19345    734559.71661
 91  4 25 22 49 30.0000000  0  5G 2G 6G13G15G19
  20843856.3204    -261360.30848   -162766.83764
  21099983.2974    -994697.96047   -775087.92963
  23032654.8914   -2177300.72845  -1696593.57961
  24007848.5394    -864980.81045   -674010.00661
  23338162.0704     972977.92745    758163.60261
 91  4 25 22 49 45.0000000  0  5G 2G 6G13G15G19
  20842799.4774    -266913.06948   -167093.66264
  21094397.7584   -1024058.22147   -797966.02763
  23020257.844    -2242427.396 5  -1747341.51421
  24003200.500     -889427.971 5   -693059.72021
  23343934.3284    1003321.72745    781808.08461
 91  4 25 22 50  0.0000000  0  5G 2G 6G13G15G19
  20841753.3754    -272419.68248   -171384.52764
  21088816.8204   -1053368.54047   -820805.20763
  23007877.555    -2307498.466 5  -1798046.11821
  23998566.805     -913767.235 5   -712025.34521
  23349717.9304    1033716.49745    805492.25961
 91  4 25 22 50 15.0000000  0  5G 2G 6G13G15G19
  20840713.4224    -277875.35148   -175635.70164
  21083250.8524   -1082623.81447   -843601.49463
  22995508.313    -2372508.744 6  -1848703.37521
  23993961.992     -937993.495 5   -730902.91921
  23355511.0944    1064167.01445    829219.91461
 91  4 25 22 50 30.0000000  0  5G 2G 6G13G15G19
  20839685.7894    -283278.38248   -179845.85664
  21077694.6094   -1111822.16647   -866353.42663
  22983148.3134   -2437455.73345  -1899311.29761
  23989369.9534    -962104.32345   -749690.55661
  23361315.234     1094674.942 5    852992.27821
 91  4 25 22 50 45.0000000  0  5G 2G 6G13G15G19
  20838666.1334    -288630.76848   -184016.54364
  21072150.5234   -1140965.05147   -889062.14263
  22970795.4774   -2502341.11045  -1949871.20661
  23984803.8524    -986101.76345   -768389.82961
  23367135.102     1125238.267 5    876807.80521
 91  4 25 22 51  0.0000000  0  5G 2G 6G13G15G19
  20837658.8364    -293933.08948   -188148.22364
  21066614.4774   -1170053.07547   -911728.10363
  22958462.9144   -2567164.97845  -2000383.20261
  23980262.7194   -1009985.93145   -787000.84061
  23372961.875     1155856.271 5    900665.94121
 91  4 25 22 51 15.0000000  0  5G 2G 6G13G15G19
  20836658.5864    -299186.90848   -192242.10764
  21061088.8914   -1199087.29247   -934352.13763
  22946139.141    -2631928.529 5  -2050848.20621
  23975736.383    -1033758.265 5   -805524.72421
  23378800.4384    1186527.68345    924565.70861
 91  4 25 22 51 30.0000000  0  5G 2G 6G13G15G19
  20835667.6954    -304388.93748   -196295.63564
  21055574.1724   -1228064.16447   -956931.49363
  22933830.0704   -2696628.07346  -2101263.31061
  23971232.656    -1057415.054 5   -823958.53421
  23384644.8204    1217255.72045    948509.59561
 91  4 25 22 51 45.0000000  0  5G 2G 6G13G15G19
  20834687.5164    -309542.31048   -200311.25564
  21050071.6334   -1256986.61647   -979468.43863
  22921526.469    -2761266.457 6  -2151630.76221
  23966754.8444   -1080958.99145   -842304.45861
  23390507.2584    1248037.01545    972494.98061
 91  4 25 22 52  0.0000000  0  5G 2G 6G13G15G19
  20833716.5634    -314648.02348   -204289.72864
  21044575.4774   -1285855.17247  -1001963.38763
  22909241.266    -2825844.130 5  -2201950.92721
  23962293.6414   -1104390.74645   -860562.93361
  23396369.242     1278870.692 5    996521.19521
 91  4 25 22 52 15.0000000  0  5G 2G 6G13G15G19
  20832754.2974    -319703.95048   -208229.40864
  21039094.6174   -1314667.38447  -1024414.43463
  22896961.6954   -2890358.41445  -2252221.68661
  23957858.1484   -1127707.89945   -878732.11361
  23402249.805     1309758.911 5   1020589.90521
 91  4 25 22 52 30.0000000  0  5G 2G 6G13G15G19
  20831800.6804    -324711.27648   -212131.21764
  21033622.1174   -1343424.13747  -1046822.26363
  22884699.7274   -2954810.12946  -2302443.67361
  23953444.547    -1150911.261 5   -896812.63921
  23408132.9774    1340700.52945   1044700.22761
 91  4 25 22 52 45.0000000  0  5G 2G 6G13G15G19
  20830856.1564    -329676.06548   -215999.88364
  21028159.141    -1372131.393 7  -1069191.52624
  22872445.9694   -3019204.90646  -2352621.29561
  23949051.086    -1174006.956 5   -914809.23221
  23414029.1804    1371689.21445   1068847.22361
 91  4 25 22 53  0.0000000  0  5G 2G 6G13G15G19
  20829922.0314    -334592.14148   -219830.58664
  21022708.7894   -1400782.52047  -1091517.05064
  22860200.6954   -3083536.02346  -2402749.34761
  23944671.9144   -1196988.18245   -932716.66061
  23419940.7894    1402731.32445   1093035.82761
 91  4 25 22 53 15.0000000  0  5G 2G 6G13G15G19
  20828994.7344    -339460.49348   -223624.10464
  21017264.5474   -1429378.15847  -1113799.33864
  22847975.7584   -3147803.91846  -2452828.11061
  23940325.5784   -1219855.64745   -950535.42661
  23425856.5234    1433825.97145   1117265.39561
 91  4 25 22 53 30.0000000  0  5G 2G 6G13G15G19
  20828077.8594    -344278.76548   -227378.59164
  21011834.5314   -1457915.79347  -1136036.42664
  22835753.906    -3212006.067 6  -2502855.65021
  23935999.883    -1242606.937 5   -968263.70221
  23431784.188     1464975.243 5   1141537.51521
 91  4 25 22 53 45.0000000  0  5G 2G 6G13G15G19
  20827170.5704    -349048.15548   -231094.98964
  21006415.6334   -1486396.28847  -1158228.99163
  22823548.539    -3276142.997 6  -2552832.39521
  23931690.125    -1265242.846 5   -985902.01421
  23437720.969     1496177.968 5   1165851.27421
 91  4 25 22 54  0.0000000  0  5G 2G 6G13G15G19
  20826271.0004    -353769.29548   -234773.79064
  21001006.8284   -1514819.98247  -1180377.29964
  22811358.7584   -3340215.05646  -2602758.57261
  23927397.508    -1287763.768 5  -1003450.77621
  23443674.109     1527433.449 5   1190206.17321
 91  4 25 22 54 15.0000000  0  5G 2G 6G13G15G19
  20825381.9304    -358441.23948   -238414.25664
  20995607.680    -1543185.736 7  -1202480.45724
  22799177.539    -3404221.275 6  -2652633.40921
  23923131.3834   -1310168.58345  -1020909.04561
  23449627.242     1558742.431 5   1214602.72721
 91  4 25 22 54 30.0000000  0  5G 2G 6G13G15G19
  20824503.8134    -363061.53448   -242014.47964
  20990222.258    -1571490.650 7  -1224536.20824
  22787011.7114   -3468158.40546  -2702454.45061
  23918893.2194   -1332454.55545  -1038274.71061
  23455593.7194    1590107.52044   1239043.02361
 91  4 25 22 54 45.0000000  0  5G 2G 6G13G15G19
  20823632.9144    -367637.43948   -245580.10964
  20984846.4224   -1599741.72147  -1246550.00264
  22774853.367    -3532033.081 6  -2752226.83421
  23914676.7424   -1354628.21145  -1055552.86961
  23461573.8834    1621521.42644   1263521.34161
 91  4 25 22 55  0.0000000  0  5G 2G 6G13G15G19
  20822771.9064    -372163.69948   -249107.05264
  20979482.0084   -1627933.26347  -1268517.40764
  22762716.0474   -3595839.72246  -2801946.18761
  23910477.4144   -1376684.03545  -1072739.18761
  23467560.656     1652989.518 5   1288041.90021
 91  4 25 22 55 15.0000000  0  5G 2G 6G13G15G19
  20821919.3594    -376639.18948   -252594.44264
  20974128.7034   -1656063.85347  -1290437.31764
  22750587.352    -3659576.823 6  -2851611.36121
  23906303.0084   -1398620.76845  -1089832.71161
  23473557.7664    1684512.95545   1312605.55261
 91  4 25 22 55 30.0000000  0  5G 2G 6G13G15G19
  20821077.7034    -381066.27248   -256044.11064
  20968786.2584   -1684135.60847  -1312311.38363
  22738471.602    -3723246.227 6  -2901223.78921
  23902149.641    -1420440.430 5  -1106835.03821
  23479570.047     1716089.329 5   1337210.47921
 91  4 25 22 55 45.0000000  0  5G 2G 6G13G15G19
  20820243.2504    -385446.72648   -259457.44364
  20963455.211    -1712149.945 7  -1334140.71124
  22726367.313    -3786849.280 6  -2950784.49321
  23898019.961    -1442144.661 5  -1123747.39821
  23485592.531     1747716.786 5   1361855.18321
 91  4 25 22 56  0.0000000  0  5G 2G 6G13G15G19
  20819419.773     -389780.786 8   -262834.62124
  20958136.2664   -1740107.05747  -1355925.44764
  22714277.4304   -3850385.88746  -3000293.44361
  23893909.859    -1463733.424 5  -1140569.80621
  23491614.719     1779394.909 5   1386539.39621
 91  4 25 22 56 15.0000000  0  5G 2G 6G13G15G19
  20818601.4534    -394068.83648   -266175.95264
  20952828.3054   -1768006.88747  -1377665.54364
  22702198.1564   -3913855.97446  -3049750.54361
  23889828.523    -1485206.864 5  -1157302.33721
  23497655.9844    1811123.23645   1411262.73761
 91  4 25 22 56 30.0000000  0  5G 2G 6G13G15G19
  20817793.1804    -398312.35847   -269482.57964
  20947527.2274   -1795850.75647  -1399362.03163
  22690131.656    -3977260.747 6  -3099156.74021
  23885765.188    -1506566.162 5  -1173945.93021
  23503706.766     1842900.234 5   1436023.98121
 91  4 25 22 56 45.0000000  0  5G 2G 6G13G15G19
  20816996.7894    -402510.46548   -272753.82264
  20942239.1564   -1823637.17547  -1421013.76164
  22678077.2734   -4040598.67746  -3148510.86961
  23881718.078    -1527809.916 5  -1190499.48221
  23509757.766     1874727.156 5   1460824.13621
 91  4 25 22 57  0.0000000  0  5G 2G 6G13G15G19
  20816205.2664    -406664.30548   -275990.57064
  20936964.1644   -1851367.11247  -1442621.47364
  22666039.875    -4103870.615 6  -3197813.58821
  23877701.1024   -1548939.14145  -1206963.80661
  23515825.5234    1906602.77545   1485662.22361
 91  4 25 22 57 15.0000000  0  5G 2G 6G13G15G19
  20815424.5554    -410772.08448   -279191.42564
  20931696.0704   -1879038.38047  -1464183.46864
  22654011.422    -4167074.137 6  -3247062.97321
  23873702.2814   -1569951.75745  -1223337.24461
  23521901.133     1938528.776 5   1510539.58421
 91  4 25 22 57 30.0000000  0  5G 2G 6G13G15G19
  20814650.9614    -414836.93348   -282358.83064
  20926442.4924   -1906653.91247  -1485702.03364
  22641993.9144   -4230211.90146  -3296261.13061
  23869726.688    -1590850.687 6  -1239622.09521
  23527984.2814    1970501.91645   1535453.69461
 91  4 25 22 57 45.0000000  0  5G 2G 6G13G15G19
  20813888.0474    -418850.49848   -285486.27564
  20921199.2734   -1934205.09747  -1507170.45764
  22629995.164    -4293275.517 6  -3345401.51021
  23865772.336    -1611627.179 5  -1255811.55221
  23534079.5944    2002530.54345   1560411.02261
 91  4 25 22 58  0.0000000  0  5G 2G 6G13G15G19
  20813132.4064    -422820.75448   -288579.97764
  20915968.6954   -1961699.74847  -1528594.83364
  22618005.922    -4356272.442 6  -3394489.90521
  23861837.953    -1632289.040 5  -1271911.68321
  23540182.898     2034606.505 5   1585405.21521
 91  4 25 22 58 15.0000000  0  5G 2G 6G13G15G19
  20812384.2114    -426743.71948   -291636.82564
  20910748.0474   -1989133.18847  -1549971.50764
  22606029.8204   -4419198.14546  -3443522.84061
  23857930.3754   -1652831.78245  -1287918.97961
  23546301.328     2066733.842 5   1610439.44821
 91  4 25 22 58 30.0000000  0  5G 2G 6G13G15G19
  20811647.4144    -430616.66948   -294654.70064
  20905538.0704   -2016502.69347  -1571298.36364
  22594074.0004   -4482049.64046  -3492497.91561
  23854049.648    -1673252.556 6  -1303831.25321
  23552422.242     2098915.268 5   1635515.85021
 91  4 25 22 58 45.0000000  0  5G 2G 6G13G15G19
  20810920.5944    -434447.23648   -297639.54664
  20900341.8594   -2043815.54147  -1592581.07064
  22582125.2344   -4544833.85146  -3541420.58161
  23850177.6724   -1693558.81745  -1319654.29461
  23558552.4224    2131142.85045   1660628.20461
 91  4 25 22 59  0.0000000  0  5G 2G 6G13G15G19
  20810198.3754    -438231.78348   -300588.53764
  20895156.9384   -2071067.88947  -1613816.63264
  22570192.055    -4607546.910 6  -3590287.80921
  23846333.828    -1713746.577 5  -1335384.99721
  23564695.078     2163420.469 5   1685779.55921
 91  4 25 22 59 15.0000000  0  5G 2G 6G13G15G19
  20809486.3834    -441973.77848   -303504.37364
  20889980.3754   -2098262.77247  -1635007.41864
  22558269.1414   -4670191.99946  -3639102.05061
  23842519.102    -1733819.280 5  -1351026.04421
  23570844.117     2195744.695 4   1710967.23421
 91  4 25 22 59 30.0000000  0  5G 2G 6G13G15G19
  20808783.8444    -445672.81948   -306386.74264
  20884818.6254   -2125399.57447  -1656152.94864
  22546360.2664   -4732768.28646  -3687862.70761
  23838720.3284   -1753776.22945  -1366576.89061
  23577010.305     2228115.564 5   1736191.21721
 91  4 25 22 59 45.0000000  0  5G 2G 6G13G15G19
  20808088.4694    -449325.26348   -309232.79464
  20879664.5394   -2152474.19847  -1677250.02464
  22534468.0084   -4795271.40746  -3736566.33661
  23834946.469    -1773613.194 5  -1382034.24621
  23583175.4224    2260537.02745   1761454.63661
 91  4 25 23  0  0.0000000  0  5G 2G 6G13G15G19
  20807402.0634    -452931.89948   -312043.15564
  20874523.2194   -2179487.19547  -1698299.08064
  22522585.5704   -4857702.02446  -3785213.48861
  23831190.766    -1793330.897 6  -1397398.66421
  23589355.398     2293008.202 5   1786756.80221
 91  4 25 23  0 15.0000000  0  5G 2G 6G13G15G19
  20806724.9144    -456492.65948   -314817.77264
  20869394.3594   -2206438.25547  -1719299.87364
  22510722.563    -4920059.794 6  -3833803.87121
  23827467.500    -1812929.000 6  -1412669.89621
  23595546.516     2325529.155 5   1812097.75921
 91  4 25 23  0 30.0000000  0  5G 2G 6G13G15G19
  20806055.4144    -460006.86348   -317556.11064
  20864281.1724   -2233326.42247  -1740251.65664
  22498868.594    -4982343.286 6  -3882336.36121
  23823756.1094   -1832406.64245  -1427847.24761
  23601736.922     2358100.601 4   1837478.06421
 91  4 25 23  0 45.0000000  0  5G 2G 6G13G15G19
  20805394.3204    -463474.01748   -320257.78264
  20859174.7814   -2260150.88647  -1761153.80364
  22487031.250    -5044551.693 6  -3930810.35621
  23820074.2814   -1851762.97246  -1442930.08561
  23607950.8054    2390722.71545   1862897.85361
 91  4 25 23  1  0.0000000  0  5G 2G 6G13G15G19
  20804745.5944    -466901.11148   -322928.24664
  20854080.0634   -2286918.20547  -1782011.42264
  22475206.9384   -5106691.45946  -3979230.85461
  23816414.8674   -1871004.58646  -1457923.53261
  23614168.711     2423388.465 5   1888351.62221
 91  4 25 23  1 15.0000000  0  5G 2G 6G13G15G19
  20804097.5944    -470286.60248   -325566.28864
  20848997.5394   -2313626.58947  -1802823.11764
  22463394.9064   -5168760.60346  -4027596.32761
  23812775.1804   -1890129.87146  -1472826.32061
  23620387.5004    2456099.47044   1913840.70061
 91  4 25 23  1 30.0000000  0  5G 2G 6G13G15G19
  20803464.2344    -473623.72648   -328166.64064
  20843926.9144   -2340268.92247  -1823583.34264
  22451599.320    -5230751.853 6  -4075901.10321
  23809159.180    -1909131.834 6  -1487633.02921
  23626627.9774    2488862.39345   1939370.18461
 91  4 25 23  1 45.0000000  0  5G 2G 6G13G15G19
  20802836.3284    -476918.47548   -330733.97564
  20838871.2274   -2366850.98647  -1844296.60564
  22439818.211    -5292670.919 6  -4124149.62121
  23805561.508    -1928016.096 6  -1502348.02321
  23632873.5394    2521671.25345   1964935.47761
 91  4 25 23  2  0.0000000  0  5G 2G 6G13G15G19
  20802216.3674    -480169.82348   -333267.49064
  20833824.1564   -2393371.33347  -1864961.77964
  22428046.0234   -5354516.28046  -4172340.74161
  23801995.344    -1946781.472 6  -1516970.37021
  23639121.688     2554526.908 4   1990537.25621
 91  4 25 23  2 15.0000000  0  5G 2G 6G13G15G19
  20801605.9384    -483381.01548   -335769.71664
  20828785.8284   -2419833.14947  -1885581.34664
  22416291.391    -5416291.016 6  -4220476.81921
  23798443.8674   -1965430.99446  -1531502.45461
  23645381.383     2587426.200 4   2016173.00421
 91  4 25 23  2 30.0000000  0  5G 2G 6G13G15G19
  20801002.9924    -486551.01348   -338239.84064
  20823761.7114   -2446235.01947  -1906154.20364
  22404548.0864   -5477993.79246  -4268556.81061
  23794915.563    -1983963.515 6  -1545943.36521
  23651653.3594    2620370.07945   2041843.53161
 91  4 25 23  2 45.0000000  0  5G 2G 6G13G15G19
  20800408.1024    -489682.41748   -340679.89564
  20818750.4384   -2472579.16547  -1926682.08164
  22392820.891    -5539626.525 6  -4316582.23221
  23791409.8054   -2002381.17446  -1560294.79361
  23657930.516     2653355.963 4   2067546.76321
 91  4 25 23  3  0.0000000  0  5G 2G 6G13G15G19
  20799820.9144    -492768.70548   -343084.79264
  20813747.7114   -2498858.78847  -1947159.67964
  22381107.2974   -5601182.26946  -4364547.65961
  23787930.648    -2020677.024 6  -1574551.26721
  23664213.664     2686390.384 5   2093287.79821
 91  4 25 23  3 15.0000000  0  5G 2G 6G13G15G19
  20799241.7974    -495806.21248   -345451.68264
  20808760.234    -2525070.071 7  -1967584.03424
  22369411.5554   -5662657.34346  -4412450.21961
  23784474.594    -2038847.414 6  -1588710.01121
  23670510.609     2719476.580 4   2119069.20121
 91  4 25 23  3 30.0000000  0  5G 2G 6G13G15G19
  20798673.1884    -498802.76748   -347786.65964
  20803785.531    -2551220.330 7  -1987960.83424
  22357726.305    -5724058.838 6  -4460295.45221
  23781042.141    -2056899.661 6  -1602776.67421
  23676815.6174    2752607.03644   2144885.12461
 91  4 25 23  3 45.0000000  0  5G 2G 6G13G15G19
  20798110.9924    -501755.48148   -350087.47564
  20798823.336    -2577306.313 7  -2008287.54624
  22346054.172    -5785383.264 6  -4508080.64521
  23777622.672    -2074830.832 6  -1616749.00221
  23683129.492     2785784.568 4   2170737.71621
 91  4 25 23  4  0.0000000  0  5G 2G 6G13G15G19
  20797556.7814    -504663.10148   -352353.15264
  20793869.141    -2603326.613 7  -2028563.08124
  22334399.102    -5846629.353 6  -4555804.77921
  23774235.945    -2092639.546 6  -1630625.90521
  23689452.0164    2819010.29844   2196627.86461
 91  4 25 23  4 15.0000000  0  5G 2G 6G13G15G19
  20797011.0704    -507532.63748   -354589.15664
  20788929.586    -2629288.015 7  -2048792.71824
  22322758.141    -5907803.675 6  -4603473.01621
  23770868.461    -2110332.823 5  -1644412.86821
  23695778.867     2852277.208 4   2222550.06421
 91  4 25 23  4 30.0000000  0  5G 2G 6G13G15G19
  20796473.2894    -510358.20348   -356790.89364
  20784001.289    -2655184.231 7  -2068971.56724
  22311132.1334   -5968899.86246  -4651080.34961
  23767525.0004   -2127904.20546  -1658104.83461
  23702119.594     2885590.933 4   2248508.77021
 91  4 25 23  4 45.0000000  0  5G 2G 6G13G15G19
  20795945.8524    -513125.91048   -358947.54964
  20779088.422    -2681001.231 7  -2089088.68624
  22299523.547    -6029903.587 6  -4698615.63221
  23764210.5474   -2145339.48846  -1671690.75661
  23708470.6724    2918965.39544   2274514.78661
 91  4 25 23  5  0.0000000  0  5G 2G 6G13G15G19
  20795450.2584    -515734.23248   -360980.00864
  20774211.898    -2706637.093 7  -2109064.66224
  22287956.148    -6090712.927 6  -4745999.46621
  23760935.930    -2162536.958 5  -1685091.37221
  23714854.820     2952502.083 5   2300647.22921
 91  4 25 23  5 15.0000000  0  5G 2G 6G13G15G19
  20794962.8134    -518299.14548   -362978.63964
  20769342.547    -2732207.345 7  -2128989.51324
  22276395.320    -6151443.158 6  -4793321.63721
  23757686.070    -2179612.447 5  -1698396.92921
  23721245.2504    2986085.17044   2326815.82061
 91  4 25 23  5 30.0000000  0  5G 2G 6G13G15G19
  20794481.2814    -520817.05747   -364940.64964
  20764491.641    -2757708.294 7  -2148860.36124
  22264854.914    -6212090.586 6  -4840579.30021
  23754462.5634   -2196562.29146  -1711604.59961
  23727640.172     3019717.969 4   2353023.18921
 91  4 25 23  5 45.0000000  0  5G 2G 6G13G15G19
  20794011.4224    -523291.71148   -366868.95164
  20759652.266    -2783143.257 7  -2168679.79324
  22253329.5164   -6272658.56046  -4887775.06161
  23751260.969    -2213389.884 6  -1724716.99421
  23734049.383     3053396.693 4   2379266.27621
 91  4 25 23  6  0.0000000  0  5G 2G 6G13G15G19
  20793550.0004    -525719.43047   -368760.67764
  20754825.398    -2808508.289 7  -2188444.72824
  22241821.8914   -6333142.89346  -4934905.61861
  23748082.1174   -2230091.10046  -1737730.90661
  23740469.0234    3087125.01944   2405548.04461
 91  4 25 23  6 15.0000000  0  5G 2G 6G13G15G19
  20793096.3754    -528103.01147   -370618.01164
  20750011.305    -2833805.916 7  -2208157.14324
  22230324.227    -6393546.233 6  -4981973.08421
  23744926.680    -2246668.608 6  -1750648.44021
  23746901.961     3120900.189 5   2431866.29221
 91  4 25 23  6 30.0000000  0  5G 2G 6G13G15G19
  20792650.3204    -530448.16048   -372445.40064
  20745208.281    -2859041.483 7  -2227821.20224
  22218843.625    -6453873.834 6  -5028981.52921
  23741794.008    -2263128.067 6  -1763473.96521
  23753334.6334    3154716.43245   2458216.60661
 91  4 25 23  6 45.0000000  0  5G 2G 6G13G15G19
  20792214.3524    -532744.88148   -374235.05064
  20740419.617    -2884204.835 7  -2247428.98624
  22207381.3984   -6514115.32046  -5075922.85061
  23738685.453    -2279459.210 6  -1776199.51321
  23759779.8984    3188583.64844   2484606.57561
 91  4 25 23  7  0.0000000  0  5G 2G 6G13G15G19
  20791785.5084    -535001.38648   -375993.36264
  20735643.977    -2909303.902 7  -2266986.68124
  22195932.7664   -6574278.30246  -5122803.01561
  23735602.734    -2295670.154 6  -1788831.42321
  23766229.852     3222493.425 4   2511029.74321
 91  4 25 23  7 15.0000000  0  5G 2G 6G13G15G19
  20791363.0944    -537216.40348   -377719.34864
  20730880.094    -2934337.038 7  -2286493.00124
  22184501.5944   -6634361.35646  -5169620.91461
  23732543.211    -2311759.290 6  -1801368.38921
  23772696.766     3256446.872 4   2537486.97521
 91  4 25 23  7 30.0000000  0  5G 2G 6G13G15G19
  20790948.8984    -539385.93748   -379409.89064
  20726129.719    -2959299.712 7  -2305944.41323
  22173083.3054   -6694359.62846  -5216372.74261
  23729499.586    -2327722.229 6  -1813807.02221
  23779159.945     3290448.262 4   2563981.49621
 91  4 25 23  7 45.0000000  0  5G 2G 6G13G15G19
  20790545.5004    -541506.46548   -381062.24564
  20721393.945    -2984188.349 7  -2325338.13523
  22161680.5164   -6754269.40146  -5263055.61261
  23726490.141    -2343555.419 6  -1826144.56021
  23785643.344     3324501.077 4   2590516.10121
 91  4 25 23  8  0.0000000  0  5G 2G 6G13G15G19
  20790149.6564    -543585.29148   -382682.11064
  20716668.523    -3009009.979 7  -2344679.64524
  22150296.281    -6814097.683 6  -5309674.97421
  23723499.719    -2359266.071 6  -1838386.61321
  23792134.7034    3358597.49445   2617084.71661
 91  4 25 23  8 15.0000000  0  5G 2G 6G13G15G19
  20789763.2274    -545620.70248   -384268.14064
  20711958.781    -3033762.461 7  -2363967.27024
  22138924.3134   -6873842.49146  -5356229.28761
  23720535.086    -2374851.842 6  -1850531.35121
  23798633.258     3392739.459 4   2643688.77821
 91  4 25 23  8 30.0000000  0  5G 2G 6G13G15G19
  20789383.4614    -547614.29748   -385821.58564
  20707263.750    -3058447.176 7  -2383202.09023
  22127573.6644   -6933504.90546  -5402719.40561
  23717593.3444   -2390314.41545  -1862580.07561
  23805131.125     3426925.338 4   2670327.07821
 91  4 25 23  8 45.0000000  0  5G 2G 6G13G15G19
  20789011.3524    -549567.80948   -387343.79764
  20702576.570    -3083065.677 7  -2402385.31423
  22116236.789    -6993086.223 6  -5449146.33921
  23714673.828    -2405655.534 6  -1874534.16921
  23811651.0234    3461153.19944   2696998.14061
 91  4 25 23  9  0.0000000  0  5G 2G 6G13G15G19
  20788648.3984    -551481.06848   -388834.64764
  20697905.977    -3107617.243 7  -2421516.38723
  22104915.5474   -7052585.75446  -5495509.52661
  23711777.7114   -2420874.52946  -1886393.12761
  23818170.8674    3495423.36444   2723702.10661
 91  4 25 23  9 15.0000000  0  5G 2G 6G13G15G19
  20788290.4384    -553354.94948   -390294.81164
  20693247.805    -3132102.653 7  -2440595.90423
  22093606.9224   -7112003.98146  -5541809.37861
  23708905.859    -2435972.070 6  -1898157.42421
  23824705.086     3529734.677 5   2750438.16821
 91  4 25 23  9 30.0000000  0  5G 2G 6G13G15G19
  20787943.5474    -555187.97048   -391723.13664
  20688599.039    -3156520.210 7  -2459622.54623
  22082311.219    -7171339.480 6  -5588044.75621
  23706054.320    -2450946.596 6  -1909825.87821
  23831235.789     3564088.585 4   2777207.39721
 91  4 25 23  9 44.9990000  0  5G 2G 6G13G15G19
  20787601.5734    -556982.17648   -393121.21664
  20683967.003    -3180870.024 7  -2478596.40723
  22071039.058    -7230589.879 6  -5634213.82421
  23703225.769    -2465799.127 6  -1921399.27021
  23837781.4564    3598480.60944   2804006.31861
 91  4 25 23  9 59.9990000  0  5G 2G 6G13G15G19
  20787267.1984    -558740.56848   -394491.38764
  20679344.784    -3205157.819 7  -2497521.93623
  22059776.980    -7289765.548 6  -5680324.67721
  23700418.7844   -2480534.26245  -1932881.16861
  23844331.597     3632912.490 4   2830836.34021
 91  4 25 23 10 14.9990000  0  5G 2G 6G13G15G19
  20786941.9254    -560453.78848   -395826.35764
  20674735.706    -3229372.427 7  -2516390.43423
  22048534.745    -7348853.034 6  -5726366.80121
  23697646.487    -2495141.248 6  -1944263.20821
  23850892.300     3667391.107 4   2857702.74521
 91  4 25 23 10 29.9990000  0  5G 2G 6G13G15G19
  20786622.2224    -562125.44848   -397128.94464
  20670142.4724   -3253517.22747  -2535204.53863
  22037307.706    -7407855.192 6  -5772342.43121
  23694884.480    -2509623.751 5  -1955548.28221
  23857460.3474    3701912.65744   2884602.63761
 91  4 25 23 10 44.9990000  0  5G 2G 6G13G15G19
  20786312.2924    -563755.49548   -398399.10464
  20665561.0654   -3277591.80647  -2553963.92363
  22026095.9644   -7466771.72846  -5818251.35861
  23692151.839    -2523981.701 6  -1966736.27321
  23864043.5584    3736477.25744   2911536.05761
 91  4 25 23 10 59.9990000  0  5G 2G 6G13G15G19
  20786010.3004    -565340.46447   -399634.14164
  20660993.651    -3301592.445 7  -2572665.69623
  22014903.120    -7525598.744 6  -5864090.53521
  23689448.331    -2538211.544 6  -1977824.43621
  23870629.105     3771088.314 4   2938505.69821
 91  4 25 23 11 14.9990000  0  5G 2G 6G13G15G19
  20785718.5424    -566877.21147   -400831.59864
  20656441.9174   -3325515.60147  -2591307.08563
  22003726.8704   -7584332.87446  -5909857.32361
  23686764.065    -2552309.549 6  -1988809.87521
  23877221.300     3805748.868 4   2965513.88721
 91  4 25 23 11 29.9990000  0  5G 2G 6G13G15G19
  20785434.8154    -568369.41047   -401994.34964
  20651903.6984   -3349364.72147  -2609890.78863
  21992565.2144   -7642977.32246  -5955554.23361
  23684107.800    -2566279.333 6  -1999695.41521
  23883825.0974    3840455.27544   2992557.79761
 91  4 25 23 11 44.9990000  0  5G 2G 6G13G15G19
  20785157.0894    -569817.05347   -403122.37664
  20647378.2374   -3373139.59547  -2628416.63763
  21981423.0734   -7701531.70046  -6001180.94961
  23681475.909    -2580120.719 6  -2010480.89021
  23890438.401     3875207.321 4   3019637.27721
 91  4 25 23 11 59.9990000  0  5G 2G 6G13G15G19
  20784890.8004    -571223.21147   -404218.08064
  20642867.4564   -3396842.76747  -2646886.61263
  21970297.0814   -7759998.58146  -6046739.50861
  23678863.886    -2593836.462 6  -2021168.47421
  23897060.769     3910001.876 4   3046749.85621
 91  4 25 23 12 14.9990000  0  5G 2G 6G13G15G19
  20784630.9564    -572588.77047   -405282.13964
  20638371.776    -3420474.967 7  -2665301.28423
  21959185.7694   -7818378.43246  -6092230.24061
  23676278.0344   -2607427.20546  -2031758.66161
  23903693.378     3944838.159 4   3073894.98321
 91  4 25 23 12 29.9990000  0  5G 2G 6G13G15G19
  20784378.4484    -573908.27747   -406310.32364
  20633888.8554   -3444030.28247  -2683656.04563
  21948094.6754   -7876665.45846  -6137648.64861
  23673711.7454   -2620887.35346  -2042247.07161
  23910324.878     3979721.410 3   3101076.70221
 91  4 25 23 12 44.9990000  0  5G 2G 6G13G15G19
  20784137.5974    -575182.40647   -407303.14264
  20629420.8784   -3467509.35947  -2701951.40263
  21937021.9404   -7934859.92646  -6182994.92261
  23671180.831    -2634217.897 6  -2052634.48821
  23916976.5814    4014650.81244   3128294.39061
 91  4 25 23 12 59.9990000  0  5G 2G 6G13G15G19
  20783903.0734    -576412.26947   -408261.47264
  20624967.737    -3490913.044 7  -2720188.01723
  21925966.112    -7992962.789 6  -6228269.81921
  23668666.151    -2647419.320 6  -2062921.31221
  23923628.9484    4049625.36044   3155547.23161
 91  4 25 23 13 14.9990000  0  5G 2G 6G13G15G19
  20783677.4564    -577594.78047   -409182.90464
  20620527.151    -3514237.824 7  -2738363.14423
  21914926.6124   -8050970.68446  -6273470.71961
  23666179.2764   -2660488.32346  -2073104.96061
  23930293.253     4084647.924 4   3182837.55121
 91  4 25 23 13 29.9990000  0  5G 2G 6G13G15G19
  20783460.9954    -578730.91847   -410068.20264
  20616105.4564   -3537484.43347  -2756477.35763
  21903908.0894   -8108884.08446  -6318597.98261
  23663720.284    -2673425.984 6  -2083186.22621
  23936967.7924    4119717.41144   3210164.35761
 91  4 25 23 13 44.9990000  0  5G 2G 6G13G15G19
  20783254.1124    -579824.53247   -410920.36364
  20611695.433    -3560656.509 7  -2774533.49623
  21892900.5424   -8166706.34646  -6363654.23761
  23661282.0814   -2686235.85846  -2093167.94661
  23943652.8154    4154829.86644   3237524.70261
 91  4 25 23 13 59.9990000  0  5G 2G 6G13G15G19
  20783055.2694    -580873.73047   -411737.91464
  20607300.3704   -3583751.82247  -2792529.81563
  21881917.9174   -8224435.42246  -6408637.86561
  23658868.636    -2698916.118 5  -2103048.66721
  23950341.1054    4189987.12244   3264919.90461
 91  4 25 23 14 14.9990000  0  5G 2G 6G13G15G19
  20782865.4174    -581873.40447   -412516.87364
  20602920.792    -3606764.969 7  -2810462.11323
  21870948.5814   -8282065.76246  -6453544.56461
  23656480.1674   -2711461.29546  -2112824.11761
  23957041.4404    4225194.24844   3292353.99961
 91  4 25 23 14 29.9990000  0  5G 2G 6G13G15G19
  20782683.4014    -582832.97347   -413264.58364
  20598556.4404   -3629705.01347  -2828337.44263
  21859998.4254   -8339606.52446  -6498381.45561
  23654112.1054   -2723880.52645  -2122501.44061
  23963749.401     4260441.696 3   3319819.49521
 91  4 25 23 14 44.9990000  0  5G 2G 6G13G15G19
  20782506.3864    -583748.70747   -413978.13764
  20594204.9564   -3652568.13847  -2846152.83863
  21849069.9254   -8397053.69446  -6543145.42261
  23651779.167    -2736169.941 5  -2132077.58721
  23970462.1984    4295733.07443   3347319.28361
 91  4 25 23 14 59.9990000  0  5G 2G 6G13G15G19
  20782342.6204    -584619.92747   -414657.00264
  20589867.9724   -3675353.04947  -2863907.28663
  21838155.394    -8454405.965 6  -6587835.44821
  23649461.9564   -2748328.52246  -2141551.80061
  23977184.6054    4331069.18443   3374853.83961
 91  4 25 23 15 14.9990000  0  5G 2G 6G13G15G19
  20782181.0424    -585451.91647   -415305.29564
  20585548.183    -3698064.831 7  -2881604.75223
  21827257.065    -8511668.216 6  -6632455.31821
  23647171.1754   -2760361.52345  -2150928.16861
  23983922.9564    4366444.53843   3402419.07461
 91  4 25 23 15 29.9990000  0  5G 2G 6G13G15G19
  20782032.1054    -586242.07547   -415921.00264
  20581239.3624   -3720700.59847  -2899242.98463
  21816379.253    -8568837.446 6  -6677002.71221
  23644907.339    -2772266.232 6  -2160204.54121
  23990658.9804    4401861.74544   3430016.79261
 91  4 25 23 15 44.9990000  0  5G 2G 6G13G15G19
  20781889.0894    -586987.56847   -416501.90264
  20576947.980    -3743257.386 7  -2916819.68223
  21805518.8234   -8625910.62446  -6721475.24861
  23642669.1124   -2784039.76246  -2169378.71661
  23997402.480     4437323.346 2   3457649.22521
 91  4 25 23 15 59.9990000  0  5G 2G 6G13G15G19
  20781758.9564    -587690.24947   -417049.43764
  20572669.058    -3765736.623 7  -2934335.94223
  21794676.1674   -8682888.82946  -6765873.79661
  23640448.8704   -2795683.83346  -2178452.01461
  24004166.808     4472827.511 3   3485314.69421
 91  4 25 23 16 14.9990000  0  5G 2G 6G13G15G19
  20781631.2454    -588356.65247   -417568.70964
  20568405.300    -3788144.660 7  -2951796.72723
  21783848.5424   -8739778.68146  -6810203.49361
  23638256.3474   -2807204.84445  -2187429.42261
  24010927.1674    4508367.44643   3513008.17961
 91  4 25 23 16 29.9990000  0  5G 2G 6G13G15G19
  20781513.2694    -588979.59147   -418054.11264
  20564156.394    -3810473.996 7  -2969196.18623
  21773042.1204   -8796572.47846  -6854458.33561
  23636090.4094   -2818595.49846  -2196305.26161
  24017697.0654    4543950.31243   3540735.05061
 91  4 25 23 16 44.9990000  0  5G 2G 6G13G15G19
  20781404.3864    -589558.36647   -418505.10364
  20559922.183    -3832723.694 7  -2986533.59123
  21762252.776    -8853269.091 6  -6898637.44621
  23633948.1204   -2829854.85345  -2205078.77161
  24024479.472     4579576.880 4   3568495.96321
 91  4 25 23 16 59.9990000  0  5G 2G 6G13G15G19
  20781298.2064    -590097.71347   -418925.36964
  20555701.862    -3854898.062 7  -3003812.30023
  21751481.1754   -8909873.15146  -6942744.45061
  23631830.011    -2840987.145 5  -2213753.29321
  24031259.8314    4615242.36442   3596287.29561
 91  4 25 23 17 14.9990000  0  5G 2G 6G13G15G19
  20781205.7534    -590592.99547   -419311.30164
  20551497.667    -3876992.141 7  -3021028.44323
  21740730.2374   -8966379.51146  -6986775.31661
  23629739.1904   -2851988.00946  -2222325.39261
  24038060.3084    4650951.27243   3624112.28661
 91  4 25 23 17 29.9990000  0  5G 2G 6G13G15G19
  20781118.5584    -591046.30247   -419664.52464
  20547308.323    -3899007.936 7  -3038183.58923
  21729992.8864   -9022789.99446  -7030731.47161
  23627670.5034   -2862859.38346  -2230796.59261
  24044859.1594    4686701.34642   3651969.53861
 91  4 25 23 17 44.9990000  0  5G 2G 6G13G15G19
  20781042.2374    -591452.79447   -419981.27164
  20543134.230    -3920940.319 7  -3055273.73523
  21719279.1364   -9079099.73146  -7074609.12761
  23625622.9484   -2873596.38846  -2239163.08561
  24051675.0264    4722497.20443   3679862.31661
 91  4 25 23 17 59.9990000  0  5G 2G 6G13G15G19
  20780970.4254    -591816.28547   -420264.51364
  20538975.995    -3942792.811 7  -3072301.63123
  21708584.7304   -9135312.04546  -7118410.86961
  23623608.0424   -2884202.55646  -2247427.63461
  24058486.948     4758335.114 3   3707787.95721
 91  4 25 23 18 14.9990000  0  5G 2G 6G13G15G19
  20780908.9014    -592138.28147   -420515.41064
  20534831.706    -3964566.583 7  -3089268.19323
  21697904.269    -9191427.821 6  -7162137.39621
  23621609.7924   -2894679.11545  -2255591.18061
  24065319.831     4794213.386 3   3735744.98821
 91  4 25 23 18 29.9990000  0  5G 2G 6G13G15G19
  20780859.4404    -592415.34747   -420731.31464
  20530704.355    -3986257.920 7  -3106170.51623
  21687242.6904   -9247443.27946  -7205785.74261
  23619644.339    -2905022.701 5  -2263651.12321
  24072156.503     4830135.445 3   3763736.15921
 91  4 25 23 18 44.9990000  0  5G 2G 6G13G15G19
  20780815.0034    -592645.80447   -420910.89064
  20526593.136    -4007864.821 7  -3123007.04523
  21676603.4174   -9303356.40746  -7249354.34861
  23617701.8784   -2915231.49345  -2271606.02661
  24079003.3004    4866102.66843   3791762.57461
 91  4 25 23 18 59.9990000  0  5G 2G 6G13G15G19
  20780778.4874    -592835.71747   -421058.87364
  20522498.722    -4029392.986 7  -3139782.21923
  21665982.0814   -9359173.03046  -7292847.75561
  23615783.5504   -2925311.32345  -2279460.43261
  24085856.503     4902109.046 3   3819819.38621
 91  4 25 23 19 14.9990000  0  5G 2G 6G13G15G19
  20780751.6054    -592979.72447
  20518416.745    -4050836.868 7  -3156491.71923
  21655380.1364   -9414887.16846  -7336261.31261
  23613892.9484   -2935256.52145  -2287209.94461
  24092712.042     4938159.800 3   3847910.92121
 91  4 25 23 19 29.9990000  0  5G 2G 6G13G15G19
  20780732.9094    -593077.93647
  20514351.308    -4072196.356 7  -3173135.45723
  21644800.5504   -9470498.77446  -7379594.96461
  23612025.0194   -2945067.32745  -2294854.72661
  24099580.612     4974254.658 3   3876036.72321
 91  4 25 23 19 44.9990000  0  5G 2G 6G13G15G19
  20780720.5114    -593127.10747
  20510302.839    -4093467.929 7  -3189710.68823
  21634236.159    -9526004.306 6  -7422845.97521
  23610185.1754   -2954740.56245  -2302392.32261
  24106460.1904    5010396.94543   3904199.45361
 91  4 25 23 19 59.9990000  0  5G 2G 6G13G15G19
  20780719.5194    -593130.60247
  20506271.956    -4114654.656 7  -3206219.80523
  21623692.8394   -9581406.84546  -7466016.72061
  23608369.112    -2964279.333 5  -2309825.11621
  24113341.6054    5046583.20143   3932396.53061
 91  4 25 23 20 14.9990000  0  5G 2G 6G13G15G19
  20780730.8704    -593085.51947
  20502257.651    -4135753.209 7  -3222660.22223
  21613170.058    -9636703.164 6  -7509104.70921
  23606577.7454   -2973680.48245  -2317150.68461
  24120237.964     5082816.154 3   3960629.96321
 91  4 25 23 20 29.9990000  0  5G 2G 6G13G15G19
  20780746.8784    -592996.72547
  20498259.097    -4156768.376 7  -3239035.65723
  21602666.300    -9691897.798 6  -7552113.45521
  23604817.5264   -2982948.88045  -2324372.81161
  24127142.5894    5119090.94943   3988895.98061
 91  4 25 23 20 44.9990000  0  5G 2G 6G13G15G19
  20780776.0974    -592858.93347
  20494275.105    -4177694.377 7  -3255341.61323
  21592185.4804   -9746984.70546  -7595038.25861
  23603076.9014   -2992079.01145  -2331487.19861
  24134058.8704    5155412.79243   4017198.68061
 91  4 25 23 20 59.9990000  0  5G 2G 6G13G15G19
  20780812.1444    -592676.07947
  20490310.503    -4198535.088 7  -3271581.11023
  21581722.151    -9801967.726 6  -7637882.11421
  23601367.4014   -3001074.61145  -2338496.74961
  24140974.9954    5191777.34443   4045534.70661
 91  4 25 23 21 14.9990000  0  5G 2G 6G13G15G19
  20780852.6054    -592446.41747   -420755.52264
  20486362.831    -4219288.422 7  -3287752.52023
  21571281.2144   -9856845.03946  -7680643.59161
  23599685.589    -3009934.023 6  -2345400.17321
  24147900.503     5228186.408 3   4073905.35821
 91  4 25 23 21 29.9990000  0  5G 2G 6G13G15G19
  20780903.9174    -592167.05247   -420537.83764
  20482427.995    -4239951.306 7  -3303853.45223
  21560857.823    -9911613.190 6  -7723320.01721
  23598020.7844   -3018654.30945  -2352195.20361
  24154838.8624    5264642.60043   4102312.77561
 91  4 25 23 21 44.9990000  0  4G 2G 6G13G15
  20780967.1834    -591843.67847   -420285.85864
  20478513.190    -4260528.984 7  -3319887.99023
  21550451.980    -9966277.653 6  -7765915.65221
  23596388.5654   -3027240.89945  -2358886.05461
 91  4 25 23 21 59.9990000  0  4G 2G 6G13G15
  20781038.4174    -591467.73347   -419992.91664
  20474616.605    -4281012.669 7  -3335849.28523
  21540074.4724  -10020829.55146  -7808423.55661
  23594779.6834   -3035685.07545  -2365465.93161
 91  4 25 23 22 14.9990000  0  4G 2G 6G13G15
  20781117.6054    -591044.09447   -419662.80964
  20470734.534    -4301406.752 7  -3351740.76223
  21529711.8624  -10075273.22946  -7850847.14261
  23593197.3004   -3043991.47645  -2371938.43761
 91  4 25 23 22 29.9990000  0  4G 2G 6G13G15
  20781205.9404    -590578.43447   -419299.95864
  20466870.378    -4321716.887 7  -3367566.82223
  21519372.651   -10129614.197 6  -7893190.70821
  23591645.7844   -3052165.93345  -2378308.15361
 91  4 25 23 22 44.9990000  0  4G 2G 6G13G15
  20781303.7144    -590062.92647   -418898.26664
  20463022.026    -4341934.922 7  -3383321.11623
  21509055.2764  -10183844.21747  -7935447.80461
  23590115.0264   -3060200.60245  -2384568.93761
 91  4 25 23 22 59.9990000  0  4G 2G 6G13G15
  20781410.8624    -589504.00547   -418462.74564
  20459189.714    -4362067.015 7  -3399008.44023
  21498751.776   -10237969.288 6  -7977623.13521
  23588613.6594   -3068101.30846  -2390725.31361
 91  4 25 23 23 14.9990000  0  4G 2G 6G13G15
  20781524.2144    -588904.18847   -417995.35864
  20455375.675    -4382115.402 7  -3414630.54423
  21488474.0034  -10291991.80947  -8019718.53961
  23587130.1364   -3075870.82045  -2396779.47761
 91  4 25 23 23 29.9990000  0  4G 2G 6G13G15
  20781650.2844    -588259.21747   -417492.78364
  20451577.784    -4402075.696 7  -3430184.00223
  21478211.464   -10345907.096 6  -8061730.40921
  23585684.0654   -3083504.73745  -2402727.97961
 91  4 25 23 23 44.9990000  0  4G 2G 6G13G15
  20781780.0034    -587569.75947   -416955.54964
  20447795.292    -4421948.188 7  -3445669.03823
  21467973.855   -10399715.483 6  -8103658.96821
  23584253.753    -3091003.750 5  -2408571.37721
 91  4 25 23 23 59.9990000  0  4G 2G 6G13G15
  20781921.8084    -586829.92247   -416379.05364
  20444031.831    -4441726.767 7  -3461080.90023
  21457757.1284  -10453410.93346  -8145499.51861
  23582848.8004   -3098362.02245  -2414305.10361
 91  4 25 23 24 14.9990000  0  4G 2G 6G13G15
  20782068.1204    -586046.92047   -415768.92364
  20440285.394    -4461418.187 7  -3476424.84623
  21447556.9644  -10506999.97146  -8187257.15261
  23581475.1834   -3105586.27445  -2419934.39161
 91  4 25 23 24 29.9990000  0  4G 2G 6G13G15
  20782225.3474    -585219.05147   -415123.83064
  20436553.878    -4481020.603 7  -3491699.43423
  21437381.3394  -10560480.90447  -8228930.55361
  23580132.9484   -3112674.75346  -2425457.87361
 91  4 25 23 24 44.9990000  0  4G 2G 6G13G15
  20782396.6984    -584344.47448   -414442.34264
  20432840.753    -4500531.859 7  -3506902.99123
  21427224.7764  -10613851.56346  -8270518.02661
  23578807.5344   -3119625.87245  -2430874.33661
 91  4 25 23 24 59.9990000  0  4G 2G 6G13G15
  20782571.2694    -583424.47748   -413725.46464
  20429146.081    -4519953.011 7  -3522036.33323
  21417090.2924  -10667112.72446  -8312020.17361
  23577514.1054   -3126440.71445  -2436184.59761
 91  4 25 23 25 14.9990000  0  4G 2G 6G13G15
  20782755.2224    -582461.05148   -412974.74664
  20425467.292    -4539285.838 7  -3537100.85423
  21406976.1124  -10720266.20847  -8353438.40861
  23576244.1124   -3133120.82745  -2441389.88561
 91  4 25 23 25 29.9990000  0  4G 2G 6G13G15
  20782944.3474    -581454.04648   -412190.06664
  20421803.675    -4558529.880 7  -3552096.19023
  21396880.511   -10773311.761 6  -8394772.55221
  23574993.8944   -3139666.27745  -2446490.22361
 91  4 25 23 25 44.9990000  0  4G 2G 6G13G15
  20783144.7534    -580403.72447   -411371.63164
  20418160.542    -4577685.085 7  -3567022.30523
  21386807.8944  -10826248.87446  -8436022.19761
  23573775.4254   -3146077.10045  -2451485.67061
 91  4 25 23 25 59.9990000  0  4G 2G 6G13G15
  20783351.9254    -579313.87048   -410522.39564
  20414531.175    -4596755.105 7  -3581882.04123
  21376750.401   -10879081.181 6  -8477190.17921
  23572581.058    -3152357.317 5  -2456379.33921
 91  4 25 23 26 14.9990000  0  4G 2G 6G13G15
  20783567.2454    -578182.00247   -409640.41964
  20410920.378    -4615737.023 7  -3596673.12823
  21366720.558   -10931805.916 7  -8518274.32721
  23571409.4874   -3158504.07345  -2461169.01961
 91  4 25 23 26 29.9990000  0  4G 2G 6G13G15
  20783789.2534    -577015.95347   -408731.80664
  20407321.144    -4634638.512 7  -3611401.54223
  21356705.776   -10984430.594 7  -8559280.52421
  23570263.4644   -3164525.36645  -2465860.94461
 91  4 25 23 26 44.9990000  0  4G 2G 6G13G15
  20784018.2374    -575811.00348   -407792.88364
  20403741.565    -4653454.551 7  -3626063.37223
  21346711.105   -11036950.201 6  -8600204.84521
  23569145.0814   -3170416.22745  -2470451.21861
 91  4 25 23 26 59.9990000  0  4G 2G 6G13G15
  20784257.3314    -574556.24647   -406815.14664
  20400179.925    -4672173.935 7  -3640649.88323
  21336738.0654  -11089353.61546  -8641038.61261
  23568046.0194   -3176165.84245  -2474931.45861
 91  4 25 23 27 14.9990000  0  4G 2G 6G13G15
  20784504.0344    -573260.89848   -405805.78164
  20396635.198    -4690805.720 7  -3655168.14023
  21326787.112   -11141649.686 6  -8681788.74421
  23566979.2304   -3181783.35245  -2479308.73361
 91  4 25 23 27 29.9990000  0  4G 2G 6G13G15
  20784757.8234    -571926.46048   -404765.95764
  20393103.714    -4709350.956 7  -3669618.95723
  21316859.222   -11193839.461 7  -8722456.05021
  23565933.151    -3187269.867 5  -2483583.95821
 91  4 25 23 27 44.9990000  0  4G 2G 6G13G15
  20785019.5034    -570549.51848   -403693.01264
  20389593.253    -4727806.155 7  -3683999.61423
  21306944.964   -11245919.546 6  -8763037.88521
  23564917.8314   -3192622.18145  -2487754.57861
 91  4 25 23 27 59.9990000  0  4G 2G 6G13G15
  20785289.9484    -569132.17848   -402588.58664
  20386098.245    -4746173.165 7  -3698311.54723
  21297057.7764  -11297891.83646  -8803535.71261
  23563920.636    -3197842.335 5  -2491822.25121
 91  4 25 23 28 14.9990000  0  4G 2G 6G13G15
  20785566.1124    -567678.81848   -401456.09264
  20382619.980    -4764455.947 7  -3712557.85223
  21287183.987   -11349759.999 6  -8843952.41021
  23562957.9404   -3202934.48545  -2495790.16061
 91  4 25 23 28 29.9990000  0  4G 2G 6G13G15
  20785851.5114    -566183.86048   -400291.18064
  20379156.159    -4782648.666 7  -3726733.97723
  21277335.0424  -11401518.16247  -8884283.40061
  23562015.2064   -3207893.13245  -2499654.05361
 91  4 25 23 28 44.9990000  0  4G 2G 6G13G15
  20786143.6904    -564643.38748   -399090.80564
  20375712.464    -4800747.256 7  -3740836.75623
  21267506.011   -11453162.243 6  -8924525.49121
  23561090.1204   -3212714.27445  -2503410.79061
 91  4 25 23 28 59.9990000  0  4G 2G 6G13G15
  20786443.9404    -563064.05647   -397860.15364
  20372287.651    -4818758.045 7  -3754871.11923
  21257700.8704  -11504698.45547  -8964683.52461
  23560199.792    -3217404.269 5  -2507065.34521
 91  4 25 23 29 14.9990000  0  4G 2G 6G13G15
  20786751.2304    -561449.24347   -396601.85364
  20368874.433    -4836684.349 7  -3768839.64723
  21247912.6904  -11556130.10247  -9004760.07761
  23559332.7374   -3221966.85645  -2510620.61261
 91  4 25 23 29 29.9990000  0  4G 2G 6G13G15
  20787066.2064    -559792.59847   -395310.95464
  20365477.847    -4854519.252 7  -3782736.95723
  21238147.073   -11607450.409 7  -9044749.87921
  23558494.761    -3226395.532 6  -2514071.53321
 91  4 25 23 29 44.9990000  0  4G 2G 6G13G15
  20787388.5264    -558097.70248   -393990.25364
  20362102.901    -4872266.272 7  -3796565.78823
  21228400.690   -11658662.829 6  -9084655.61321
  23557672.7844   -3230693.58645  -2517420.67761
 91  4 25 23 29 59.9990000  0  4G 2G 6G13G15
  20787721.5264    -556359.11748   -392635.50564
  20358743.222    -4889919.604 7  -3810321.60923
  21218679.8554  -11709761.60246  -9124472.77661
  23556879.972    -3234855.368 5  -2520663.63321
 91  4 25 23 30 14.9990000  0  4G 2G 6G13G15
  20788058.8784    -554582.33948   -391250.99664
  20355401.667    -4907484.601 7  -3824008.60123
  21208974.925   -11760751.971 7  -9164205.48821
  23556110.136    -3238886.731 5  -2523804.97321
 91  4 25 23 30 29.9990000  0  4G 2G 6G13G15
  20788404.8784    -552764.74048   -389834.68164
  20352075.097    -4924958.203 7  -3837624.37723
  21199293.815   -11811630.833 7  -9203851.30421
  23555366.605    -3242784.862 5  -2526842.47921
 91  4 25 23 30 44.9990000  0  4G 2G 6G13G15
  20788756.6904    -550904.36748   -388385.03564
  20348767.964    -4942338.279 7  -3851167.27623
  21189632.487   -11862395.877 6  -9243408.42921
  23554660.4254   -3246547.88145  -2529774.71361
 91  4 25 23 30 59.9990000  0  4G 2G 6G13G15
  20789118.6904    -549005.54648   -386905.43164
  20345477.151    -4959628.990 7  -3864640.53123
  21179992.901   -11913051.253 7  -9282880.10521
  23553959.995    -3250180.089 5  -2532605.02121
 91  4 25 23 31 14.9990000  0  4G 2G 6G13G15
  20789486.4644    -547067.19848   -385395.02664
  20342205.011    -4976829.073 7  -3878043.18123
  21170373.1834  -11963595.77047  -9322265.39761
  23553298.7764   -3253680.51045  -2535332.61861
 91  4 25 23 31 29.9990000  0  4G 2G 6G13G15
  20789864.2064    -545088.06148   -383852.83764
  20338949.808    -4993936.849 7  -3891373.90223
  21160777.808   -12014027.750 7  -9361563.00021
  23552652.3154   -3257047.58045  -2537956.33861
 91  4 25 23 31 44.9990000  0  4G 2G 6G13G15
  20790250.0654    -543066.68748   -382277.74064
  20335711.808    -5010950.695 7  -3904631.43023
  21151204.964   -12064345.423 7  -9400771.52621
  23552043.9484   -3260279.71145  -2540474.90161
 91  4 25 23 31 59.9990000  0  4G 2G 6G13G15
  20790641.9564    -541004.50048   -380670.83664
  20332492.339    -5027871.723 7  -3917816.62923
  21141649.261   -12114549.945 7  -9439891.88421
  23551453.792    -3263378.383 5  -2542889.45321
 91  4 25 23 32 14.9990000  0  4G 2G 6G13G15
  20791042.4874    -538897.84948   -379029.28564
  20329290.300    -5044696.107 7  -3930926.51823
  21132118.862   -12164637.305 7  -9478920.95321
  23550889.745    -3266339.971 6  -2545197.20121
 91  4 25 23 32 29.9990000  0  4G 2G 6G13G15
  20791451.5114    -536748.24848   -377354.27064
  20326106.722    -5061425.116 7  -3943962.09223
  21122609.339   -12214608.774 7  -9517859.70721
  23550350.034    -3269166.038 5  -2547399.34621
 91  4 25 23 32 44.9990000  0  4G 2G 6G13G15
  20791868.1904    -534555.05848   -375645.28964
  20322943.753    -5078057.701 7  -3956922.53223
  21113122.901   -12264463.520 6  -9556707.52321
  23549843.1054   -3271855.64046  -2549495.15261
 91  4 25 23 32 59.9990000  0  4G 2G 6G13G15
  20792294.7304    -532319.51548   -373903.30764
  20319796.870    -5094595.061 7  -3969808.76823
  21103658.753   -12314202.624 7  -9595465.21221
  23549353.136    -3274410.025 6  -2551485.59021
 91  4 25 23 33 14.9990000  0  4G 2G 6G13G15
  20792727.8474    -530044.47948   -372130.55264
  20316666.370    -5111039.798 7  -3982622.83023
  21094214.948   -12363828.646 7  -9634134.79921
  23548891.9254   -3276832.27046  -2553373.05261
 91  4 25 23 33 29.9990000  0  4G 2G 6G13G15
  20793168.8234    -527722.95648   -370321.57264
  20313554.550    -5127384.704 7  -3995359.10223
  21084791.5814  -12413334.20246  -9672710.50961
  23548457.9564   -3279115.53446  -2555152.24461
 91  4 25 23 33 44.9990000  0  4G 2G 6G13G15
  20793619.7304    -525358.16548   -368478.87564
  20310462.136    -5143632.588 7  -4008019.77323
  21075396.2924  -12462722.22147  -9711194.62561
  23548046.526    -3281262.790 5  -2556825.43321
 91  4 25 23 33 59.9990000  0  4G 2G 6G13G15
  20794077.3154    -522954.42948   -366605.83564
  20307388.917    -5159787.426 7  -4020607.93823
  21066017.151   -12511996.616 7  -9749590.21521
  23547668.4014   -3283278.00546  -2558395.73461
 91  4 25 23 34 14.9990000  0  4G 2G 6G13G15
  20794544.3864    -520502.31148   -364695.09164
  20304333.995    -5175839.730 7  -4033116.20423
  21056666.081   -12561147.901 7  -9787889.87221
  23547313.612    -3285152.066 6  -2559856.03521
 91  4 25 23 34 29.9990000  0  4G 2G 6G13G15
  20795019.3004    -518000.92748   -362745.96164
  20301298.636    -5191788.345 7  -4045543.67723
  21047335.097   -12610174.903 6  -9826092.68921
  23546978.1984   -3286884.07846  -2561205.66361
 91  4 25 23 34 44.9990000  0  4G 2G 6G13G15
  20795502.8474    -515460.45048   -360766.37064
  20298281.292    -5207643.020 7  -4057897.94623
  21038029.815   -12659087.279 7  -9864206.17621
  23546677.3944   -3288483.93746  -2562452.30661
 91  4 25 23 34 59.9990000  0  4G 2G 6G13G15
  20795993.9094    -512877.81548   -358753.93264
  20295282.597    -5223400.554 7  -4070176.52923
  21028741.495   -12707881.788 7  -9902227.82521
  23546395.425    -3289948.828 5  -2563593.81921
 91  4 25 23 35 14.9990000  0  4G 2G 6G13G15
  20796494.0344    -510248.99848   -356705.50264
  20292302.987    -5239056.837 7  -4082376.21023
  21019477.8394  -12756554.44346  -9940154.53261
  23546139.2374   -3291274.85445  -2564627.07661
 91  4 25 23 35 29.9990000  0  4G 2G 6G13G15
  20797001.5654    -507577.13548   -354623.52964
  20289345.659    -5254614.849 7  -4094499.31823
  21010240.6444  -12805108.19746  -9977988.57161
  23545919.870    -3292465.023 6  -2565554.48421
 91  4 25 23 35 44.9990000  0  4G 2G 6G13G15
  20797519.2534    -504860.08748   -352506.34664
  20286403.784    -5270072.051 7  -4106543.86923
  21001025.362   -12853540.415 6 -10015727.92021
  23545714.128    -3293517.155 5  -2566374.34721
 91  4 25 23 35 59.9990000  0  4G 2G 6G13G15
  20798046.6284    -502098.22048   -350354.24364
  20283479.706    -5285428.497 7  -4118509.90623
  20991830.636   -12901851.192 6 -10053372.63621
  23545542.2304   -3294431.64045  -2567086.94761
 91  4 25 23 36 14.9990000  0  4G 2G 6G13G15
  20798579.9254    -499292.43148   -348167.91164
  20280576.206    -5300685.006 7  -4130398.07823
  20982659.190   -12950041.479 7 -10090923.45821
  23545402.120    -3295209.327 5  -2567692.94521
 91  4 25 23 36 29.9990000  0  4G 2G 6G13G15
  20799119.8154    -496442.41548   -345947.11564
  20277693.628    -5315840.999 7  -4142207.92623
  20973514.112   -12998110.479 7 -10128379.78221
  23545270.323    -3295849.979 5  -2568192.16021
 91  4 25 23 36 44.9990000  0  4G 2G 6G13G15
  20799671.9404    -493543.96648   -343688.58364
  20274830.308    -5330891.894 7  -4153935.87623
  20964387.1444  -13046053.51746 -10165737.94761
  23545171.276    -3296349.247 5  -2568581.21521
 91  4 25 23 36 59.9990000  0  4G 2G 6G13G15
  20800234.6754    -490597.69348   -341392.78464
  20271984.808    -5345837.981 7  -4165582.16123
  20955292.620   -13093870.900 7 -10202998.19621
  23545109.3314   -3296707.45245  -2568860.34761
 91  4 25 23 37 14.9990000  0  4G 2G 6G13G15
  20800801.2454    -487609.01648   -339063.94464
  20269160.472    -5360684.674 7  -4177150.99623
  20946212.105   -13141567.963 6 -10240164.69021
  23545069.472    -3296930.442 5  -2569034.11321
 91  4 25 23 37 29.9990000  0  4G 2G 6G13G15
  20801380.2304    -484574.02948   -336699.01764
  20266352.222    -5375427.795 7  -4188639.12423
  20937164.222   -13189140.679 7 -10277234.29321
  23545052.573    -3297014.186 5
 91  4 25 23 37 44.9990000  0  4G 2G 6G13G15
  20801965.8554    -481491.79348   -334297.27164
  20263568.456    -5390066.115 7  -4200045.58823
  20928134.519   -13236587.869 7 -10314206.08921
  23545066.597    -3296957.886 5
 91  4 25 23 37 59.9990000  0  4G 2G 6G13G15
  20802560.5654    -478368.38348   -331863.44464
  20260801.495    -5404605.482 7  -4211374.94423
  20919125.269   -13283915.363 6 -10351084.61021
  23545097.8624   -3296767.47145
 91  4 25 23 38 14.9990000  0  4G 2G 6G13G15
  20803163.6204    -475198.17748   -329393.15364
  20258055.480    -5419040.022 7  -4222622.62723
  20910144.065   -13331117.233 7 -10387865.23821
  23545159.7304   -3296437.57145
 91  4 25 23 38 29.9990000  0  4G 2G 6G13G15
  20803775.5504    -471985.17948   -326889.51464
  20255327.050    -5433373.506 7  -4233791.55323
  20901184.417   -13378197.225 7 -10424550.91021
  23545248.2454   -3295972.03745  -2568287.32861
 91  4 25 23 38 44.9990000  0  4G 2G 6G13G15
  20804394.8084    -468728.48448   -324351.83164
  20252618.620    -5447604.899 7  -4244880.93623
  20892249.5654  -13425154.46247 -10461140.91961
  23545368.2304   -3295370.01745  -2567818.23661
 91  4 25 23 38 59.9990000  0  4G 2G 6G13G15
  20805022.1364    -465428.09348   -321780.09464
  20249931.792    -5461734.190 7  -4255890.75823
  20883337.831   -13471988.519 7 -10497634.94221
  23545507.519    -3294631.495 5  -2567242.78021
 91  4 25 23 39 14.9990000  0  4G 2G 6G13G15
  20805659.9174    -462087.91948   -319177.36364
  20247259.776    -5475764.649 7  -4266823.56823
  20874447.4484  -13518702.92247 -10534035.74261
  23545667.7144   -3293760.39445  -2566564.00161
 91  4 25 23 39 29.9990000  0  4G 2G 6G13G15
  20806304.1834    -458702.11648   -316539.07464
  20244609.472    -5489690.299 7  -4277674.70823
  20865582.144   -13565291.520 7 -10570338.50022
  23545866.612    -3292750.802 5  -2565777.32421
 91  4 25 23 39 44.9990000  0  4G 2G 6G13G15
  20806957.1834    -455274.30448   -313868.04964
  20241978.940    -5503514.578 7  -4288446.85623
  20856740.323   -13611757.794 7 -10606545.94122
  23546080.8314   -3291606.51345  -2564885.67861
 91  4 25 23 39 59.9990000  0  4G 2G 6G13G15
  20807614.8784    -451806.89648   -311166.16964
  20239368.800    -5517239.706 7  -4299141.74723
  20847917.6834  -13658104.15847 -10642659.94962
  23546325.058    -3290330.132 5  -2563891.11621
 91  4 25 23 40 14.9990000  0  4G 2G 6G13G15
  20808281.1514    -448302.10248   -308435.15664
  20236775.808    -5530867.733 7  -4309760.97523
  20839123.972   -13704332.520 7 -10678682.00922
  23546596.3004   -3288923.69845  -2562795.19461
 91  4 25 23 40 29.9990000  0  4G 2G 6G13G15
  20808958.2224    -444751.88448   -305668.74564
  20234201.550    -5544390.088 7  -4320297.85723
  20830351.097   -13750434.255 7 -10714605.39222
  23546881.3314   -3287378.94445  -2561591.49261
 91  4 25 23 40 44.9990000  0  4G 2G 6G13G15
  20809641.4724    -441163.17448   -302872.34164
  20231648.558    -5557813.855 7  -4330757.92323
  20821601.019   -13796416.529 7 -10750435.69222
  23547207.4954   -3285703.17845  -2560285.71861
 91  4 25 23 40 59.9990000  0  4G 2G 6G13G15
  20810329.4254    -437538.78348   -300048.13764
  20229111.2614   -5571141.46247  -4341143.05763
  20812872.003   -13842281.871 7 -10786174.87622
  23547551.9094   -3283899.26045  -2558880.08161
 91  4 25 23 41 14.9990000  0  4G 2G 6G13G15
  20811027.5424    -433869.93248   -297189.29064
  20226593.917    -5584363.928 7  -4351446.26823
  20804167.276   -13888021.183 7 -10821815.85422
  23547923.9254   -3281958.42445  -2557367.73261
 91  4 25 23 41 29.9990000  0  4G 2G 6G13G15
  20811733.1594    -430161.50948   -294299.60464
  20224098.253    -5597485.966 7  -4361671.21623
  20795487.167   -13933638.908 7 -10857362.09521
  23548312.0264   -3279885.53645  -2555752.51361
 91  4 25 23 41 44.9990000  0  4G 2G 6G13G15
  20812447.0654    -426409.95647   -291376.30464
  20221622.440    -5610503.688 7  -4371814.87823
  20786829.3234  -13979131.46547 -10892810.80662
  23548732.651    -3277677.027 5  -2554031.60421
 91  4 25 23 41 59.9990000  0  4G 2G 6G13G15
  20813168.6054    -422620.18648   -288423.23364
  20219160.737    -5623421.935 7  -4381881.03223
  20778196.7844  -14024503.59347 -10928165.67462
  23549177.487    -3275337.735 5  -2552208.81221
 91  4 25 23 42 14.9990000  0  4G 2G 6G13G15
  20813898.4804    -418789.30147   -285438.12164
  20216724.128    -5636237.341 7  -4391867.04923
  20769586.0584  -14069752.11247 -10963424.22062
  23549645.612    -3272864.886 5  -2550281.92421
 91  4 25 23 42 29.9990000  0  4G 2G 6G13G15
  20814634.1444    -414919.94947   -282423.03464
  20214303.769    -5648952.525 7  -4401774.97223
  20760995.761   -14114879.334 7 -10998588.24821
  23550142.198    -3270261.120 5  -2548253.03821
 91  4 25 23 42 44.9990000  0  4G 2G 6G13G15
  20815378.6364    -411009.01147   -279375.54664
  20211904.112    -5661564.266 7  -4411602.28923
  20752433.2224  -14159882.05647 -11033655.26961
  23550659.409    -3267523.637 5  -2546119.95721
 91  4 25 23 42 59.9990000  0  4G 2G 6G13G15
  20816129.5894    -407057.60947   -276296.52664
  20209523.409    -5674073.368 7  -4421349.62423
  20743895.636   -14204761.148 7 -11068625.95022
  23551214.362    -3264653.603 5  -2543883.59321
 91  4 25 23 43 14.9990000  0  4G 2G 6G13G15
  20816889.6284    -403066.55647   -273186.60164
  20207160.620    -5686480.442 7  -4431017.46023
  20735377.237   -14249517.306 7 -11103500.83722
  23551780.1984   -3261651.61145  -2541544.39961
 91  4 25 23 43 29.9990000  0  4G 2G 6G13G15
  20817654.9334    -399037.14147   -270046.79764
  20204820.198    -5698786.495 7  -4440606.57623
  20726883.5344  -14294151.67247 -11138280.82662
  23552376.487    -3258519.079 5  -2539103.48421
 91  4 25 23 43 44.9990000  0  4G 2G 6G13G15
  20818429.8394    -394963.83347   -266872.78464
  20202499.581    -5710985.901 7  -4450112.59223
  20718415.7304  -14338658.31847 -11172961.29462
  23553001.558    -3255250.364 5  -2536556.45421
 91  4 25 23 43 59.9990000  0  4G 2G 6G13G15
  20819215.1284    -390848.51947   -263666.03564
  20200197.690    -5723080.222 7  -4459536.72623
  20709969.4174  -14383038.99347 -11207543.60261
  23553648.6514   -3251847.75245  -2533905.09861
 91  4 25 23 44 14.9990000  0  4G 2G 6G13G15
  20820007.2924    -386683.75447   -260420.75464
  20197916.558    -5735061.801 7  -4468873.00623
  20701547.5114  -14427286.06847 -11242021.80561
  23554318.948    -3248303.666 5  -2531143.49921
 91  4 25 23 44 29.9990000  0  4G 2G 6G13G15
  20820809.0264    -382473.11547   -257139.73364
  20195658.636    -5746933.951 7  -4478124.01923
  20693152.9404  -14471402.61147 -11276398.29361
  23555026.808    -3244621.550 5  -2528274.33521
 91  4 25 23 44 44.9990000  0  4G 2G 6G13G15
  20821618.4644    -378216.15647   -253822.61264
  20193419.886    -5758696.063 7  -4487289.29023
  20684784.628   -14515388.139 7 -11310672.69421
  23555746.5894   -3240801.42045  -2525297.63561
 91  4 25 23 44 59.9990000  0  4G 2G 6G13G15
  20822436.6364    -373915.92747   -250471.77964
  20191201.628    -5770351.043 7  -4496371.08023
  20676437.6124  -14559245.61647 -11344847.32261
  23556499.394    -3236846.279 5  -2522215.73221
 91  4 25 23 45 14.9990000  0  4G 2G 6G13G15
  20823262.8004    -369574.11447   -247088.54064
  20189004.409    -5781900.303 7  -4505370.48823
  20668113.9094  -14602976.48147 -11378923.27761
  23557279.276    -3232757.755 5  -2519029.90121
 91  4 25 23 45 29.9990000  0  4G 2G 6G13G15
  20824098.6204    -365184.75247   -243668.25664
  20186826.409    -5793337.791 7  -4514282.80623
  20659819.6124  -14646574.61847 -11412895.82061
  23558087.230    -3228529.836 5  -2515735.43321
 91  4 25 23 45 44.9990000  0  4G 2G 6G13G15
  20824941.6124    -360749.56147
  20184672.690    -5804664.894 7  -4523109.10723
  20651549.9874  -14690041.50447 -11446766.08561
  23558921.925    -3224164.670 5
 91  4 25 23 45 59.9990000  0  4G 2G 6G13G15
  20825795.7144    -356272.99047
  20182539.105    -5815885.772 7  -4531852.63123
  20643300.6204  -14733381.40347 -11480537.40461
  23559773.722    -3219666.261 5
 91  4 25 23 46 14.9990000  0  4G 2G 6G13G15
  20826654.1124    -351747.38147   -233197.56864
  20180424.128    -5826992.676 7  -4540507.34623
  20635080.2304  -14776586.60747 -11514203.75361
  23560653.0344   -3215027.48345  -2505214.20161
 91  4 25 23 46 29.9990000  0  4G 2G 6G13G15
  20827525.3864    -347175.14347   -229634.78263
  20178332.5034   -5837987.97947  -4549075.10263
  20626883.6904  -14819659.24847 -11547766.82261
  23561561.7614   -3210250.64545  -2501491.98561
 91  4 25 23 46 44.9990000  0  4G 2G 6G13G15
  20828405.4724    -342556.75047   -226036.02963
  20176258.948    -5848871.908 7  -4557556.07023
  20618710.2454  -14862599.64147 -11581226.83161
  23562495.933    -3205336.405 5  -2497662.75221
 91  4 25 23 46 59.9990000  0  4G 2G 6G13G15
  20829291.4334    -337893.38747   -222402.23964
  20174208.0974   -5859645.24847  -4565950.86963
  20610563.4644  -14905408.79247 -11614584.57362
  23563458.5034   -3200286.03445  -2493727.40561
 91  4 25 23 47 14.9990000  0  4G 2G 6G13G15
  20830189.5654    -333182.40647   -218731.34163
  20172181.269    -5870305.361 7  -4574257.43523
  20602444.1364  -14948083.92747 -11647837.89262
  23564450.7304   -3195097.02545  -2489684.05961
 91  4 25 23 47 29.9990000  0  4G 2G 6G13G15
  20831093.4404    -328431.56147   -215029.37963
  20170174.487    -5880859.621 7  -4582481.51823
  20594348.6444  -14990632.51747 -11680992.60461
  23565458.612    -3189777.078 5  -2485538.66721
 91  4 25 23 47 44.9990000  0  4G 2G 6G13G15
  20832004.2694    -323632.39847   -211289.77463
  20168188.105    -5891299.540 7  -4590616.50223
  20586275.7534  -15033045.78247 -11714041.86862
  23566499.7924   -3184317.79345  -2481284.69261
 91  4 25 23 47 59.9990000  0  4G 2G 6G13G15
  20832928.7534    -318786.81547   -207513.99863
  20166221.948    -5901626.798 7  -4598663.70223
  20578231.0814  -15075325.58547 -11746987.13662
  23567560.0194   -3178720.97045  -2476923.55561
 91  4 25 23 48 14.9990000  0  4G 2G 6G13G15
  20833860.2534    -313896.09347   -203703.04963
  20164277.308    -5911842.339 7  -4606623.84923
  20570210.8084  -15117472.72347 -11779829.03062
  23568650.917    -3172988.132 5  -2472456.44321
 91  4 25 23 48 29.9990000  0  4G 2G 6G13G15
  20834797.6514    -308964.79647   -199860.48563
  20162351.175    -5921950.639 7  -4614500.42923
  20562216.8784  -15159491.87847 -11812571.18761
  23569765.8234   -3167123.86945  -2467886.90261
 91  4 25 23 48 44.9990000  0  4G 2G 6G13G15
  20835743.8314    -303987.70247   -195982.23163
  20160451.714    -5931946.416 7  -4622289.32823
  20554244.1514  -15201378.03447 -11845209.72461
  23570914.940    -3161123.341 5  -2463211.18621
 91  4 25 23 48 59.9990000  0  4G 2G 6G13G15
  20836700.6594    -298962.36847   -192066.38763
  20158570.456    -5941826.807 7  -4629988.32023
  20546296.9174  -15243128.06047 -11877742.17861
  23572076.339    -3154984.191 5  -2458427.45721
 91  4 25 23 49 14.9990000  0  4G 2G 6G13G15
  20837664.5504    -293888.40747   -188112.65863
  20156713.050    -5951591.326 7  -4637597.01923
  20538380.050   -15284741.444 7 -11910168.16122
  23573276.0584   -3148706.01245  -2453535.40061
 91  4 25 23 49 29.9990000  0  4G 2G 6G13G15
  20838639.3004    -288772.22647   -184126.02963
  20154876.745    -5961246.200 7  -4645120.28223
  20530487.0034  -15326224.50947 -11942492.59462
  23574495.972    -3142295.009 5  -2448539.83121
 91  4 25 23 49 44.9990000  0  4G 2G 6G13G15
  20839621.8554    -283608.58047   -180102.40963
  20153059.425    -5970785.909 7  -4652553.80423
  20522620.0734  -15367571.86247 -11974711.27662
  23575739.753    -3135745.959 5  -2443436.70621
 91  4 25 23 49 59.9990000  0  4G 2G 6G13G15
  20840614.4094    -278401.13547   -176044.66463
  20151266.526    -5980213.963 7  -4659900.32423
  20514774.8154  -15408786.83147 -12006826.80362
  23577008.542    -3129062.758 5  -2438229.03321
 91  4 25 23 50 14.9980000  0  4G 2G 6G13G15
  20841611.3034    -273150.34747   -171953.14663
  20149492.982    -5989529.803 7  -4667159.40523
  20506955.373   -15449866.886 7 -12038837.21022
  23578310.389    -3122246.151 5  -2432917.41821
 91  4 25 23 50 29.9980000  0  4G 2G 6G13G15
  20842620.5224    -267851.49447   -167824.17563
  20147741.920    -5998730.434 7  -4674328.71523
  20499166.9904  -15490813.21847 -12070743.41162
  23579630.654    -3115291.384 5  -2427498.14821
 91  4 25 23 50 44.9980000  0  4G 2G 6G13G15
  20843638.0374    -262506.03347   -163658.88563
  20146014.147    -6007815.989 7  -4681408.35323
  20491400.5684  -15531623.95147 -12102543.94962
  23580976.631    -3108199.993 5  -2421972.41521
 91  4 25 23 50 59.9980000  0  4G 2G 6G13G15
  20844662.9674    -257117.03547   -159459.67263
  20144305.311    -6016789.473 7  -4688400.65923
  20483659.6474  -15572301.80447 -12134240.94762
  23582357.4044   -3100975.18345  -2416342.73061
 91  4 25 23 51 14.9980000  0  4G 2G 6G13G15
  20845698.0534    -251688.15247   -155229.37664
  20142620.0144   -6025654.35247  -4695308.35063
  20475943.1934  -15612850.21047 -12165837.07962
  23583756.029    -3093620.970 5  -2410612.19321
 91  4 25 23 51 29.9980000  0  4G 2G 6G13G15
  20846736.6154    -246213.37447   -150963.31964
  20140954.467    -6034404.444 7  -4702126.59123
  20468251.7404  -15653263.39647 -12197327.83862
  23585183.686    -3086131.438 5  -2404776.21921
 91  4 25 23 51 44.9980000  0  4G 2G 6G13G15
  20847787.9754    -240691.28247   -146660.38864
  20139309.170    -6043038.237 7  -4708854.20623
  20460588.1004  -15693539.95647 -12228712.14462
  23586629.537    -3078505.223 5  -2398833.75021
 91  4 25 23 51 59.9980000  0  4G 2G 6G13G15
  20848847.7644    -235126.73747   -142324.38464
  20137690.147    -6051560.382 7  -4715494.82423
  20452948.9904  -15733684.50747 -12259993.57762
  23588104.873    -3070747.269 5  -2392788.62421
 91  4 25 23 52 14.9980000  0  4G 2G 6G13G15
  20849916.9434    -229513.98947   -137950.81764
  20136089.709    -6059964.850 7  -4722043.74823
  20445334.4434  -15773690.75747 -12291167.24562
  23589605.9364   -3062851.84745  -2386636.34661
 91  4 25 23 52 29.9980000  0  4G 2G 6G13G15
  20850992.9044    -223856.10747   -133542.07664
  20134511.311    -6068254.454 7  -4728503.16723
  20437750.1074  -15813561.77047 -12322235.53362
  23591147.0684   -3054822.03045  -2380379.38061
 91  4 25 23 52 44.9980000  0  4G 2G 6G13G15
  20852077.1864    -218152.66447   -129097.83664
  20132956.740    -6076428.748 7  -4734872.73423
  20430186.8574  -15853296.91147 -12353197.94962
  23592686.568    -3046657.767 5  -2374017.63921
 91  4 25 23 52 59.9980000  0  4G 2G 6G13G15
  20853173.3504    -212401.27347   -124616.22964
  20131422.6934   -6084485.00947  -4741150.33363
  20422652.8184  -15892893.66547 -12384052.53462
  23594274.311    -3038356.447 5  -2367549.10021
 91  4 25 23 53 14.9980000  0  4G 2G 6G13G15
  20854273.7874    -206604.16347   -120098.99764
  20129911.967    -6092425.457 7  -4747337.68223
  20415142.5374  -15932354.28447 -12414801.03262
  23595881.287    -3029920.633 5  -2360975.77121
 91  4 25 23 53 29.9980000  0  4G 2G 6G13G15
  20855389.1394    -200760.05547   -115545.14264
  20128424.0534   -6100248.57947  -4753433.61163
  20407660.6704  -15971677.28547 -12445442.29662
  23597517.311    -3021349.249 5  -2354296.79521
 91  4 25 23 53 44.9980000  0  4G 2G 6G13G15
  20856506.5374    -194873.60447   -110958.29364
  20126956.9674   -6107959.07047  -4759441.77363
  20400203.7254  -16010867.51747 -12475980.10562
  23599163.4984   -3012647.02045  -2347515.86061
 91  4 25 23 53 59.9980000  0  4G 2G 6G13G15
  20857637.3034    -188934.36547   -106330.31564
  20125513.1474   -6115546.17347  -4765353.79263
  20392772.2564  -16049914.12447 -12506406.00162
  23600840.732    -3003803.581 5  -2340624.89821
 91  4 25 23 54 14.9980000  0  4G 2G 6G13G15
  20858778.9984    -182941.05047   -101660.19464
  20124092.7094   -6123008.33847  -4771168.45663
  20385371.3574  -16088815.33047 -12536718.59262
  23602557.5224   -2994817.64145  -2333622.89661
 91  4 25 23 54 29.9980000  0  4G 2G 6G13G15
  20859928.6394    -176902.30947    -96954.67863
  20122695.5224   -6130354.13947  -4776892.44963
  20377995.4284  -16127579.90247 -12566924.72062
  23604292.037    -2985698.203 5  -2326516.86221
 91  4 25 23 54 44.9980000  0  4G 2G 6G13G15
  20861086.4124    -170815.88047    -92212.00464
  20121321.3894   -6137581.13447  -4782523.86163
  20370643.4754  -16166205.52847 -12597022.57762
  23606055.100    -2976443.243 5  -2319305.24121
 91  4 25 23 54 59.9980000  0  4G 2G 6G13G15
  20862251.7404    -164683.73247    -87433.69764
  20119968.0064   -6144691.14347  -4788064.11963
  20363317.1004  -16204694.01547 -12627013.57262
  23607841.100    -2967054.825 5  -2311989.62421
 91  4 25 23 55 14.9980000  0  4G 2G 6G13G15
  20863427.1074    -158506.94847    -82620.61663
  20118633.7404   -6151684.98347  -4793513.85563
  20356019.1074  -16243045.96447 -12656898.17462
  23609650.0534   -2957533.91345  -2304570.76661
 91  4 25 23 55 29.9980000  0  4G 2G 6G13G15
  20864613.1544    -152280.02647    -77768.46863
  20117326.795    -6158557.087 7  -4798868.73423
  20348748.5064  -16281256.15147 -12686672.31262
  23611498.7094   -2947875.02345  -2297044.38761
 91  4 25 23 55 44.9980000  0  4G 2G 6G13G15
  20865805.6234    -146007.64547    -72880.89063
  20116042.3654   -6165311.81247  -4804132.14563
  20341504.9594  -16319329.09147 -12716339.49862
  23613357.170    -2938083.013 5  -2289414.26621
 91  4 25 23 55 59.9980000  0  4G 2G 6G13G15
  20867009.0374    -139684.70147    -67953.91863
  20114779.7484   -6171943.93347  -4809300.02063
  20334286.1624  -16357259.34947 -12745895.51562
  23615244.100    -2928152.692 5  -2281676.40121
 91  4 25 23 56 14.9980000  0  4G 2G 6G13G15
  20868221.0684    -133315.80747    -62991.14063
  20113541.4284   -6178457.98547  -4814375.89963
  20327093.4124  -16395051.62447 -12775344.00662
  23617159.1004   -2918089.11545  -2273834.69661
 91  4 25 23 56 29.9980000  0  4G 2G 6G13G15
  20869445.0684    -126895.66547    -57988.43264
  20112325.2724   -6184848.47947  -4819355.49663
  20319928.4284  -16432700.37447 -12804680.66762
  23619094.818    -2907887.071 5  -2265885.07321
 91  4 25 23 56 44.9980000  0  4G 2G 6G13G15
  20870674.7094    -120428.37647    -52948.98464
  20111132.5294   -6191119.33947  -4824241.87063
  20312792.4364  -16470209.50647 -12833908.52862
  23621068.639    -2897550.925 5  -2257830.97421
 91  4 25 23 56 59.9980000  0  4G 2G 6G13G15
  20871913.7724    -113914.50647    -47873.24064
  20109961.443    -6197270.910 7  -4829035.29423
  20305683.8894  -16507579.77047 -12863028.18062
  23623060.2404   -2887081.13745  -2249672.73661
 91  4 25 23 57 14.9980000  0  4G 2G 6G13G15
  20873164.1234    -107351.46448    -42759.18164
  20108813.1704   -6203300.84947  -4833733.93263
  20298598.9044  -16544808.48447 -12892037.53862
  23625079.381    -2876475.847 5  -2241408.91521
 91  4 25 23 57 29.9980000  0  4G 2G 6G13G15
  20874420.4984    -100737.42948    -37605.38264
  20107689.9594   -6209206.94447  -4838336.07563
  20291540.6004  -16581893.45847 -12920934.88862
  23627124.4824   -2865733.36945  -2233038.19361
 91  4 25 23 57 44.9980000  0  4G 2G 6G13G15
  20875688.6074     -94074.52448    -32413.51264
  20106589.7644   -6214991.19147  -4842843.27363
  20284509.8034  -16618836.43447 -12949721.59262
  23629194.4124   -2854855.74645  -2224562.14961
 91  4 25 23 57 59.9980000  0  4G 2G 6G13G15
  20876965.1544     -87368.00648    -27187.65164
  20105511.1074   -6220658.68547  -4847259.49563
  20277504.5614  -16655643.09447 -12978402.07862
  23631286.131    -2843848.192 5  -2215984.88421
 91  4 25 23 58 14.9980000  0  4G 2G 6G13G15
  20878251.6004     -80609.68948    -21921.42764
  20104455.818    -6226201.031 7  -4851578.19123
  20270527.6074  -16692304.84547 -13006969.64662
  23633405.1934   -2832702.52345  -2207299.97861
 91  4 25 23 58 29.9980000  0  4G 2G 6G13G15
  20879549.2484     -73802.45148    -16617.08664
  20103425.1314   -6231620.94247  -4855801.48763
  20263580.6624  -16728824.42447 -13035426.42762
  23635557.2484   -2821422.08145  -2198510.04961
 91  4 25 23 58 44.9980000  0  4G 2G 6G13G15
  20880850.8264     -66951.49948    -11278.68464
  20102414.490    -6236923.376 7  -4859933.24423
  20256657.6004  -16765206.95647 -13063776.42662
  23637729.006    -2810012.097 5  -2189619.18821
 91  4 25 23 58 59.9980000  0  3G 2G 6G13
  20882165.3344     -60047.15348     -5898.67464
  20101431.084    -6242098.631 7  -4863965.89323
  20249760.5764  -16801442.85447 -13092012.15962
 91  4 25 23 59 14.9980000  0  3G 2G 6G13
  20883486.9824     -53099.38747      -484.83064
  20100467.342    -6247156.569 7  -4867907.12823
  20242891.5294  -16837541.88847 -13120141.24862
 91  4 25 23 59 29.9980000  0  3G 2G 6G13
  20884817.3974     -46102.86147      4967.00464
  20099530.287    -6252091.703 7  -4871752.67423
  20236047.2404  -16873498.64447 -13148159.47062
 91  4 25 23 59 44.9980000  0  3G 2G 6G13
  20886159.3184     -39056.00047     10458.05864
  20098614.295    -6256902.207 7  -4875501.10623
  20229232.3504  -16909311.27747 -13176065.38962
 91  4 25 23 59 59.9980000  0  3G 2G 6G13
  20887509.8574     -31964.61848     15983.80964
  20097721.115    -6261593.896 7  -4879156.95523
  20222445.1544  -16944985.48547 -13203863.44762
 91  4 26  0  0 14.9980000  0  3G 2G 6G13
  20888867.8734     -24824.47648     21547.55764
  20096853.029    -6266162.390 7  -4882716.80223
  20215685.029   -16980516.893 7 -13231550.23222
 91  4 26  0  0 29.9980000  0  3G 2G 6G13
  20890236.2484     -17633.62547     27150.81564
  20096004.607    -6270605.664 7  -4886179.08723
  20208950.7484  -17015903.61047 -13259124.26362
 91  4 26  0  0 44.9980000  0  3G 2G 6G13
  20891612.2724     -10396.56747     32790.08064
  20095183.451    -6274927.980 7  -4889547.11323
  20202241.6394  -17051150.03947 -13286588.98462
 91  4 26  0  0 59.9980000  0  3G 2G 6G13
  20892997.8974      -3115.54847     38463.59864
  20094383.4824   -6279131.24247  -4892822.37363
  20195561.834   -17086258.392 7 -13313946.11922
 91  4 26  0  1 14.9980000  0  3G 2G 6G13
  20894392.2404       4215.23647     44175.89564
  20093607.3814   -6283209.66247  -4896000.35363
  20188909.9124  -17121222.67247 -13341190.98762
 91  4 26  0  1 29.9980000  0  3G 2G 6G13
  20895798.5454      11596.32347     49927.38864
  20092854.193    -6287162.645 7  -4899080.59123
  20182284.2484  -17156042.35547 -13368323.17762
 91  4 26  0  1 44.9980000  0  3G 2G 6G13
  20897211.1474      19026.89147     55717.43963
  20092125.2254   -6290990.78847  -4902063.55163
  20175684.920   -17190718.212 7 -13395343.30222
 91  4 26  0  1 59.9980000  0  3G 2G 6G13
  20898634.4984      26504.41747     61544.08163
  20091420.8734   -6294696.69347  -4904951.25863
  20169113.7254  -17225252.87247 -13422253.39962
 91  4 26  0  2 14.9980000  0  3G 2G 6G13
  20900064.4284      34027.39047     67406.13864
  20090739.9984   -6298281.47047  -4907744.58863
  20162568.357   -17259647.486 7 -13449054.37022
 91  4 26  0  2 29.9980000  0  3G 2G 6G13
  20901508.3574      41601.97348     73308.40963
  20090081.2644   -6301739.06446  -4910438.81263
  20156050.3504  -17293895.87147 -13475741.39462
 91  4 26  0  2 44.9980000  0  3G 2G 6G13
  20902958.9824      49223.27547     79247.08763
  20089447.2174   -6305074.12247  -4913037.55363
  20149559.1544  -17328002.99847 -13502318.35162
 91  4 26  0  2 59.9980000  0  3G 2G 6G13
  20904417.2014      56895.18147     85225.19564
  20088835.3654   -6308282.66147  -4915537.70563
  20143097.881   -17361964.706 7 -13528781.99422
 91  4 26  0  3 14.9980000  0  3G 2G 6G13
  20905887.2874      64616.14947     91241.53664
  20088247.4824   -6311365.96847  -4917940.27563
  20136663.0064  -17395782.21647 -13555133.27862
 91  4 26  0  3 29.9980000  0  3G 2G 6G13
  20907366.7644      72386.66747     97296.47964
  20087685.7954   -6314323.48746  -4920244.83563
  20130253.639   -17429455.190 7 -13581371.93322
 91  4 26  0  3 44.9980000  0  3G 2G 6G13
  20908854.5534      80205.45247    103389.04263
  20087147.3184   -6317156.42647  -4922452.31163
  20123872.248   -17462984.562 7 -13607498.68922
 91  4 26  0  3 59.9980000  0  3G 2G 6G13
  20910349.3574      88073.21147    109519.76063
  20086631.7254   -6319864.07146  -4924562.16163
  20117518.818   -17496369.945 7 -13633513.25522
 91  4 26  0  4 14.9980000  0  3G 2G 6G13
  20911857.5764      95989.63947    115688.40863
  20086140.6784   -6322446.53146  -4926574.46663
  20111195.287   -17529611.780 7 -13659415.95922
 91  4 26  0  4 29.9980000  0  3G 2G 6G13
  20913373.1864     103950.77447    121891.88863
  20085672.9204   -6324907.65847  -4928492.22663
  20104892.842   -17562713.681 7 -13685209.62422
 91  4 26  0  4 44.9980000  0  3G 2G 6G13
  20914896.9514     111964.09347    128136.03463
  20085228.9754   -6327239.65147  -4930309.36563
  20098623.740   -17595667.832 7 -13710888.16422
 91  4 26  0  4 59.9980000  0  3G 2G 6G13
  20916430.8504     120027.18747    134418.96763
  20084811.0684   -6329445.09547  -4932027.88763
  20092378.998   -17628476.771 7 -13736453.54722
 91  4 26  0  5 14.9980000  0  3G 2G 6G13
  20917974.7014     128135.47747    140737.12263
  20084411.7014   -6331528.24247  -4933651.11563
  20086165.154   -17661145.007 7 -13761909.29422
 91  4 26  0  5 29.9980000  0  3G 2G 6G13
  20919527.6234     136287.20547    147089.12763
  20084039.0534   -6333490.81947  -4935180.39563
  20079974.850   -17693674.256 7 -13787256.74222
 91  4 26  0  5 44.9980000  0  3G 2G 6G13
  20921085.6154     144487.89647    153479.28263
  20083690.0064   -6335327.30347  -4936611.42063
  20073814.154   -17726059.071 7 -13812491.64422
 91  4 26  0  5 59.9980000  0  3G 2G 6G13
  20922654.7484     152735.66147    159906.11463
  20083363.3974   -6337039.25247  -4937945.40263
  20067676.436   -17758301.234 7 -13837615.38822
 91  4 26  0  6 14.9980000  0  3G 2G 6G13
  20924234.6864     161033.32647    166371.83163
  20083063.4434   -6338623.83847  -4939180.14563
  20061569.287   -17790397.663 7 -13862625.57022
 91  4 26  0  6 29.9980000  0  3G 2G 6G13
  20925822.4044     169378.46847    172874.54163
  20082786.2174   -6340083.25947  -4940317.35363
  20055487.576   -17822350.819 7 -13887524.11422
 91  4 26  0  6 44.9980000  0  3G 2G 6G13
  20927419.1314     177773.26147    179415.94563
  20082530.1704   -6341415.38147  -4941355.36663
  20049434.553   -17854158.421 7 -13912309.23522
 91  4 26  0  6 59.9980000  0  3G 2G 6G13
  20929024.1314     186210.25447    185990.22663
  20082299.1474   -6342627.47947  -4942299.85863
  20043408.170   -17885827.954 7 -13936986.77422
 91  4 26  0  7 14.9980000  0  3G 2G 6G13
  20930640.0374     194698.09847    192604.13363
  20082093.5844   -6343710.88447  -4943144.06663
  20037408.053   -17917350.640 7 -13961549.89122
 91  4 26  0  7 29.9980000  0  3G 2G 6G13
  20932265.2094     203232.02247    199253.95063
  20081912.8114   -6344670.12847  -4943891.52263
  20031438.287   -17948731.326 7 -13986002.35722
 91  4 26  0  7 44.9980000  0  3G 2G 6G13
  20933898.0294     211811.09247    205938.94663
  20081751.9824   -6345506.22047  -4944543.02363
  20025492.842   -17979971.052 7 -14010344.98122
 91  4 26  0  7 59.9980000  0  3G 2G 6G13
  20935540.1004     220441.67847    212664.08463
  20081617.8114   -6346212.55947  -4945093.41163
  20019575.701   -18011063.159 7 -14034572.57622
 91  4 26  0  8 14.9980000  0  3G 2G 6G13
  20937187.8184     229117.23947    219424.26863
  20081509.4364   -6346795.62747  -4945547.74863
  20013686.662   -18042014.323 7 -14058690.35022
 91  4 26  0  8 29.9980000  0  3G 2G 6G13
  20938850.4984     237837.26347    226219.09663
  20081418.5294   -6347255.79247  -4945906.31263
  20007824.107   -18072824.790 7 -14082698.48522
 91  4 26  0  8 44.9980000  0  3G 2G 6G13
  20940516.7324     246603.57347    233049.99363
  20081355.3974   -6347591.19047  -4946167.65863
  20001986.623   -18103492.763 7 -14106595.58922
 91  4 26  0  8 59.9980000  0  3G 2G 6G13
  20942194.1314     255415.45847    239916.39563
  20081314.7014   -6347802.26747  -4946332.12963
  19996178.326   -18134018.925 7 -14130382.18922
 91  4 26  0  9 14.9980000  0  3G 2G 6G13
  20943880.6074     264276.04947    246820.75463
  20081302.2404   -6347886.18847
  19990396.936   -18164400.347 7 -14154056.00922
 91  4 26  0  9 29.9980000  0  3G 2G 6G13
  20945575.3654     273175.62447    253755.48763
  20081304.2484   -6347852.27947
  19984643.178   -18194646.456 7 -14177624.38522
 91  4 26  0  9 44.9980000  0  3G 2G 6G13
  20947277.2094     282123.49247    260727.85363
  20081337.9594   -6347691.40447
  19978912.475   -18224748.023 7 -14201080.13022
 91  4 26  0  9 59.9980000  0  3G 2G 6G13
  20948988.7324     291121.48347    267739.27263
  20081393.0844   -6347401.34847
  19973214.764   -18254703.126 7 -14224421.74922
 91  4 26  0 10 14.9980000  0  3G 2G 6G13
  20950710.0374     300167.63747    274788.22363
  20081470.3974   -6346984.02747  -4945694.51463
  19967541.232   -18284513.759 7 -14247650.79422
 91  4 26  0 10 29.9980000  0  3G 2G 6G13
  20952441.1394     309261.22547    281874.13763
  20081576.1394   -6346440.02447  -4945270.61363
  19961894.350   -18314180.561 7 -14270767.76322
 91  4 26  0 10 44.9980000  0  3G 2G 6G13
  20954181.1004     318399.92147    288995.19863
  20081701.8264   -6345771.76247  -4944749.88363
  19956277.889   -18343705.836 7 -14293774.45022
 91  4 26  0 10 59.9980000  0  3G 2G 6G13
  20955925.3814     327583.19347    296150.98863
  20081853.4674   -6344979.58947  -4944132.60063
  19950684.897   -18373090.031 7 -14316671.20322
 91  4 26  0 11 14.9980000  0  3G 2G 6G13
  20957684.5454     336807.83847    303339.01963
  20082028.3344   -6344066.48447  -4943421.08963
  19945118.615   -18402335.947 7 -14339460.21122
 91  4 26  0 11 29.9980000  0  3G 2G 6G13
  20959449.3894     346085.99747    310568.74363
  20082225.8974   -6343020.40847  -4942605.95963
  19939584.248   -18431431.864 7 -14362132.33422
 91  4 26  0 11 44.9980000  0  3G 2G 6G13
  20961225.8424     355412.05047    317835.79063
  20082450.1544   -6341847.01347  -4941691.62863
  19934072.654   -18460383.618 7 -14384692.12422
 91  4 26  0 11 59.9980000  0  3G 2G 6G13
  20963007.9124     364788.03747    325141.75163
  20082697.1864   -6340544.03847  -4940676.31863
  19928592.850   -18489189.086 7 -14407137.92422
 91  4 26  0 12 14.9980000  0  3G 2G 6G13
  20964802.2174     374212.59547    332485.55763
  20082967.0454   -6339112.80447  -4939561.06363
  19923138.279   -18517849.303 7 -14429470.54322
 91  4 26  0 12 29.9980000  0  3G 2G 6G13
  20966604.9364     383684.93147    339866.58963
  20083264.4904   -6337554.02347  -4938346.42863
  19917712.850   -18546365.292 7 -14451690.77422
 91  4 26  0 12 44.9980000  0  3G 2G 6G13
  20968416.4904     393206.80147    347286.22163
  20083587.2254   -6335865.97347  -4937031.06263
  19912311.975   -18574735.444 7 -14473797.36722
 91  4 26  0 12 59.9980000  0  3G 2G 6G13
  20970237.9124     402772.22147    354739.78663
  20083929.9594   -6334054.51247  -4935619.52863
  19906942.037   -18602965.609 7 -14495794.87622
 91  4 26  0 13 14.9980000  0  3G 2G 6G13
  20972064.2324     412383.93647    362229.42563
  20084299.2094   -6332116.76347  -4934109.58863
  19901596.342   -18631053.002 7 -14517681.14322
 91  4 26  0 13 29.9980000  0  3G 2G 6G13
  20973903.4754     422048.50347    369760.25063
  20084690.7014   -6330046.08047  -4932496.06263
  19896279.342   -18658990.992 7 -14539450.98522
 91  4 26  0 13 44.9980000  0  3G 2G 6G13
  20975751.8654     431759.88247    377327.55063
  20085111.6474   -6327848.22147  -4930783.44163
  19890989.936   -18686785.310 7 -14561108.87222
 91  4 26  0 13 59.9980000  0  3G 2G 6G13
  20977611.5684     441523.02647    384935.18663
  20085556.3034   -6325518.42147  -4928968.01063
  19885729.100   -18714431.380 7 -14582651.25522
 91  4 26  0 14 14.9980000  0  3G 2G 6G13
  20979475.8894     451337.56247    392582.87363
  20086027.1004   -6323056.99047  -4927050.00663
  19880496.365   -18741929.464 7 -14604078.31422
 91  4 26  0 14 29.9980000  0  3G 2G 6G13
  20981355.9364     461202.23947    400269.62363
  20086517.0064   -6320465.11447  -4925030.36863
  19875292.568   -18769280.739 7 -14625390.97622
 91  4 26  0 14 44.9980000  0  3G 2G 6G13
  20983243.5064     471122.14247    407999.41263
  20087035.7564   -6317737.50147  -4922904.94863
  19870116.248   -18796480.173 7 -14646585.32622
 91  4 26  0 14 59.9980000  0  3G 2G 6G13
  20985137.8184     481087.05547    415764.27463
  20087580.0454   -6314884.35147  -4920681.71263
  19864966.490   -18823537.971 7 -14667669.30522
 91  4 26  0 15 14.9980000  0  3G 2G 6G13
  20987046.0144     491102.60147    423568.59063
  20088148.1394   -6311900.01247  -4918356.24763
  19859847.897   -18850448.608 7 -14688638.61622
 91  4 26  0 15 29.9980000  0  3G 2G 6G13
  20988957.9824     501166.04947    431410.24163
  20088739.9284   -6308787.06847  -4915930.57063
  19854754.881   -18877214.791 7 -14709495.36622
 91  4 26  0 15 44.9980000  0  3G 2G 6G13
  20990884.8894     511281.68247    439292.55163
  20089356.9594   -6305541.38747  -4913401.46763
  19849689.732   -18903832.268 7 -14730236.24222
 91  4 26  0 15 59.9980000  0  3G 2G 6G13
  20992816.6864     521448.25447    447214.54963
  20090002.1314   -6302164.05047  -4910769.77163
  19844649.647   -18930302.431 7 -14750862.32622
 91  4 26  0 16 14.9980000  0  3G 2G 6G13
  20994763.6394     531671.17047    455180.45563
  20090668.4984   -6298649.55047  -4908031.19363
  19839643.545   -18956619.426 7 -14771369.06022
 91  4 26  0 16 29.9980000  0  3G 2G 6G13
  20996718.7874     541947.85247    463188.25863
  20091363.1074   -6295000.57247  -4905187.82863
  19834662.412   -18982786.234 7 -14791758.76822
 91  4 26  0 16 44.9980000  0  3G 2G 6G13
  20998684.2014     552274.62447    471235.08863
  20092085.4284   -6291220.51947  -4902242.33363
  19829710.725   -19008806.536 7 -14812034.31122
 91  4 26  0 16 59.9980000  0  3G 2G 6G13
  21000657.6004     562651.38047    479320.87063
  20092829.2564   -6287309.86847  -4899195.06963
  19824787.154   -19034680.525 7 -14832195.84122
 91  4 26  0 17 14.9980000  0  3G 2G 6G13
  21002643.6784     573081.30047    487448.07663
  20093596.9754   -6283264.98147  -4896043.20463
  19819892.061   -19060404.702 7 -14852240.64122
 91  4 26  0 17 29.9980000  0  3G 2G 6G13
  21004639.3424     583559.66147    495613.03163
  20094389.6474   -6279090.61747  -4892790.45563
  19815025.897   -19085984.009 7 -14872172.55522
 91  4 26  0 17 44.9980000  0  3G 2G 6G13
  21006644.0764     594089.28847    503817.93363
  20095209.1624   -6274783.84047  -4889434.52663
  19810186.068   -19111415.633 7 -14891989.38822
 91  4 26  0 17 59.9980000  0  3G 2G 6G13
  21008656.7014     604670.73347    512063.21163
  20096053.8654   -6270344.01847  -4885974.91563
  19805374.951   -19136699.038 7 -14911690.72922
 91  4 26  0 18 14.9980000  0  3G 2G 6G13
  21010681.8894     615304.55747    520349.30663
  20096926.3344   -6265770.82247  -4882411.38863
  19800590.068   -19161834.017 7 -14931276.41322
 91  4 26  0 18 29.9980000  0  3G 2G 6G13
  21012711.6704     625987.89147    528673.98363
  20097821.6074   -6261066.77347  -4878745.89463
  19795835.803   -19186823.269 7 -14950748.54622
 91  4 26  0 18 44.9980000  0  3G 2G 6G13
  21014753.8034     636723.72047    537039.56563
  20098741.9284   -6256228.94847  -4874976.15762
  19791107.217   -19211663.556 7 -14970104.59422
 91  4 26  0 18 59.9980000  0  3G 2G 6G13
  21016806.9674     647505.89947    545441.26463
  20099686.7484   -6251263.36647  -4871106.87563
  19786409.5454  -19236361.19947 -14989349.50062
 91  4 26  0 19 14.9980000  0  3G 2G 6G13
  21018869.4364     658337.16647    553881.21463
  20100654.4984   -6246167.34047  -4867135.94663
  19781736.990   -19260913.413 7 -15008481.07722
 91  4 26  0 19 29.9980000  0  3G 2G 6G13
  21020938.2094     669219.54347    562360.98563
  20101652.0614   -6240938.97047  -4863061.89163
  19777094.420   -19285318.488 7 -15027498.00122
 91  4 26  0 19 44.9980000  0  3G 2G 6G13
  21023020.8184     680154.02247    570881.35863
  20102671.6544   -6235576.94847  -4858883.69363
  19772478.209   -19309575.313 7 -15046399.41122
 91  4 26  0 19 59.9980000  0  3G 2G 6G13
  21025111.4754     691139.67547    579441.60863
  20103713.3034   -6230082.44647  -4854602.26863
  19767888.1624  -19333684.88547 -15065186.08062
 91  4 26  0 20 14.9980000  0  3G 2G 6G13
  21027208.5374     702174.02147    588039.79863
  20104789.6004   -6224457.66547  -4850219.31963
  19763327.389   -19357649.709 7 -15083859.95222
 91  4 26  0 20 29.9980000  0  3G 2G 6G13
  21029319.8184     713261.23147    596679.17763
  20105882.3344   -6218698.60547  -4845731.74463
  19758798.0844  -19381465.68947 -15102417.84462
 91  4 26  0 20 44.9980000  0  3G 2G 6G13
  21031439.3974     724401.15247    605359.63163
  20107005.3814   -6212805.20047  -4841139.47563
  19754292.5684  -19405132.79947 -15120859.73762
 91  4 26  0 20 59.9980000  0  3G 2G 6G13
  21033569.4594     735589.76747    614078.02663
  20108150.4434   -6206781.48947  -4836445.67962
  19749817.037   -19428655.390 7 -15139189.01822
 91  4 26  0 21 14.9980000  0  3G 2G 6G13
  21035707.5684     746827.33347    622834.56763
  20109320.3654   -6200627.21647  -4831650.14062
  19745368.8424  -19452033.23147 -15157405.50162
 91  4 26  0 21 29.9980000  0  3G 2G 6G13
  21037856.8264     758118.75047    631633.07263
  20110519.8424   -6194337.39247  -4826748.98062
  19740949.1474  -19475261.24547 -15175505.24762
 91  4 26  0 21 44.9980000  0  3G 2G 6G13
  21040014.7794     769463.00147    640472.74563
  20111743.2874   -6187913.01947  -4821742.97862
  19736556.9434  -19498340.54647 -15193489.10762
 91  4 26  0 21 59.9980000  0  3G 2G 6G13
  21042182.1154     780856.93147    649351.13063
  20112990.8734   -6181357.22547  -4816634.56863
  19732191.2484  -19521274.40247 -15211359.63562
 91  4 26  0 22 14.9980000  0  3G 2G 6G13
  21044360.0684     792300.55447    658268.23063
  20114261.7484   -6174669.98447  -4811423.73162
  19727855.701   -19544062.760 7 -15229116.78322
 91  4 26  0 22 29.9980000  0  3G 2G 6G13
  21046548.3894     803796.49247    667226.10263
  20115558.6474   -6167848.62347  -4806108.38863
  19723546.6624  -19566703.26847 -15246758.72962
 91  4 26  0 22 44.9980000  0  3G 2G 6G13
  21048744.4204     815338.85247    676220.14563
  20116885.4044   -6160899.25047  -4800693.29562
  19719266.522   -19589201.971 7 -15264290.16922
 91  4 26  0 22 59.9980000  0  3G 2G 6G13
  21050951.0064     826932.02747    685253.78563
  20118231.8654   -6153817.13047  -4795174.75663
  19715011.9754  -19611554.18447 -15281707.46762
 91  4 26  0 23 14.9980000  0  3G 2G 6G13
  21053165.7484     838574.01047    694325.45463
  20119603.2324   -6146604.38447  -4789554.44263
  19710786.2014  -19633762.06147 -15299012.29862
 91  4 26  0 23 29.9980000  0  3G 2G 6G13
  21055390.8894     850267.25447    703437.06963
  20121001.4044   -6139258.70547  -4783830.53963
  19706588.1864  -19655823.26947 -15316202.84262
 91  4 26  0 23 44.9980000  0  3G 2G 6G13
  21057629.4984     862014.21747    712590.54763
  20122422.1624   -6131777.60747  -4778001.11163
  19702418.5064  -19677735.64147 -15333277.40562
 91  4 26  0 23 59.9980000  0  3G 2G 6G13
  21059871.9434     873805.54047    721778.58563
  20123871.9984   -6124170.22147  -4772073.27962
  19698274.8894  -19699508.44347 -15350243.21762
 91  4 26  0 24 14.9980000  0  3G 2G 6G13
  21062123.8654     885647.67547    731006.21763
  20125345.8814   -6116429.99847  -4766041.93963
  19694160.115   -19721135.006 7 -15367095.07322
 91  4 26  0 24 29.9980000  0  3G 2G 6G13
  21064385.6474     897535.87647    740269.74563
  20126840.0454   -6108561.88747  -4759910.94263
  19690072.3574  -19742620.11047 -15383836.70362
 91  4 26  0 24 44.9980000  0  3G 2G 6G13
  21066655.8344     909474.05447    749572.21263
  20128364.9824   -6100561.89347  -4753677.18362
  19686010.342   -19763960.232 7 -15400465.35322
 91  4 26  0 24 59.9980000  0  3G 2G 6G13
  21068943.8894     921464.24447    758915.21163
  20129910.4904   -6092427.94847  -4747339.04863
  19681978.061   -19785153.463 7 -15416979.55422
 91  4 26  0 25 14.9980000  0  3G 2G 6G13
  21071229.2014     933504.31447    768297.08163
  20131486.8814   -6084162.27447  -4740898.27063
  19677971.490   -19806202.110 7 -15433381.08522
 91  4 26  0 25 29.9980000  0  3G 2G 6G13
  21073531.2484     945589.22947    777713.88863
  20133079.7094   -6075769.95847  -4734358.80562
  19673993.5764  -19827111.25747 -15449673.91462
 91  4 26  0 25 44.9980000  0  3G 2G 6G13
  21075842.0764     957725.99247    787171.10163
  20134703.9514   -6067243.89047  -4727715.12163
  19670042.2174  -19847873.55147 -15465852.31662
 91  4 26  0 25 59.9980000  0  3G 2G 6G13
  21078157.2014     969913.31647    796667.71463
  20136352.9594   -6058585.38247  -4720968.23562
  19666118.2644  -19868490.62447 -15481917.56262
 91  4 26  0 26 14.9980000  0  3G 2G 6G13
  21080486.0064     982141.01747    806195.78363
  20138022.5614   -6049804.56747  -4714126.04663
  19662222.373   -19888972.816 7 -15497877.69522
 91  4 26  0 26 29.9980000  0  3G 2G 6G13
  21082825.4594     994417.09847    815761.54963
  20139718.7174   -6040893.41147  -4707182.29463
  19658349.9904  -19909312.13747 -15513726.50962
 91  4 26  0 26 44.9980000  0  3G 2G 6G13
  21085170.2484    1006743.49347    825366.52663
  20141437.9904   -6031850.08447  -4700135.54963
  19654506.842   -19929506.595 7 -15529462.43822
 91  4 26  0 26 59.9980000  0  3G 2G 6G13
  21087524.1784    1019120.19447    835010.70163
  20143185.5924   -6022674.44747  -4692985.70363
  19650693.1394  -19949556.37247 -15545085.62862
 91  4 26  0 27 14.9980000  0  3G 2G 6G13
  21089889.1394    1031548.38747    844695.00063
  20144958.1624   -6013365.43147  -4685731.93163
  19646904.5684  -19969460.24447 -15560595.13462
 91  4 26  0 27 29.9980000  0  3G 2G 6G13
  21092264.0844    1044028.17847    854419.50963
  20146754.0224   -6003922.92347  -4678374.13663
  19643146.0924  -19989218.46047 -15575991.13362
 91  4 26  0 27 44.9980000  0  3G 2G 6G13
  21094646.0294    1056556.39647    864181.75063
  20148575.2174   -5994350.03047  -4670914.74263
  19639413.842   -20008834.176 7 -15591276.09622
 91  4 26  0 27 59.9980000  0  3G 2G 6G13
  21097042.6074    1069133.83847    873982.34963
  20150419.7954   -5984646.05147  -4663353.20863
  19635707.076   -20028306.793 7 -15606449.55122
 91  4 26  0 28 14.9980000  0  3G 2G 6G13
  21099444.7874    1081763.41247    883823.56863
  20152294.1234   -5974807.87147  -4655687.09563
  19632028.7954  -20047633.14647 -15621509.03962
 91  4 26  0 28 29.9980000  0  3G 2G 6G13
  21101856.1784    1094448.31647    893707.90563
  20154194.4984   -5964832.68947  -4647914.22963
  19628379.2644  -20066810.16747 -15636452.16662
 91  4 26  0 28 44.9980000  0  3G 2G 6G13
  21104282.1624    1107185.41547    903632.90763
  20156116.9904   -5954723.46747  -4640036.92063
  19624758.6544  -20085841.28247 -15651281.59362
 91  4 26  0 28 59.9980000  0  3G 2G 6G13
  21106714.0534    1119975.03547    913598.83763
  20158062.8654   -5944479.99047  -4632054.99262
  19621163.5144  -20104726.31347 -15665997.19662
 91  4 26  0 29 14.9980000  0  3G 2G 6G13
  21109155.5844    1132811.72347    923601.44363
  20160039.9284   -5934107.44947  -4623972.49562
  19617597.0064  -20123470.70447 -15680603.20262
 91  4 26  0 29 29.9980000  0  3G 2G 6G13
  21111614.5764    1145702.89147    933646.50263
  20162037.4364   -5923598.73947  -4615783.89663
  19614060.0614  -20142067.23447 -15695093.99862
 91  4 26  0 29 44.9980000  0  3G 2G 6G13
  21114071.0374    1158646.11347    943732.12463
  20164065.1234   -5912956.20647  -4607491.01663
  19610549.3344  -20160518.29747 -15709471.43962
 91  4 26  0 29 59.9980000  0  3G 2G 6G13
  21116548.8974    1171643.00647    953859.56163
  20166111.6314   -5902178.10647  -4599092.50363
  19607064.4984  -20178822.70547 -15723734.60362
 91  4 26  0 30 14.9980000  0  3G 2G 6G13
  21119032.5144    1184695.43247    964030.28363
  20168196.1074   -5891262.87747  -4590587.13363
  19603610.2324  -20196978.39047 -15737881.88162
 91  4 26  0 30 29.9980000  0  3G 2G 6G13
  21121523.3184    1197796.47147    974238.88063
  20170293.3894   -5880217.18846  -4581980.10863
  19600182.5454  -20214992.48047 -15751918.83162
 91  4 26  0 30 44.9980000  0  3G 2G 6G13
  21124028.8184    1210948.47647    984487.19363
  20172418.1234   -5869038.78447  -4573269.67163
  19596780.4284  -20232862.70347 -15765843.67262
 91  4 26  0 30 59.9970000  0  3G 2G 6G13
  21126539.0324    1224152.01547    994775.66363
  20174575.7514   -5857727.08247  -4564455.36163
  19593408.0954  -20250586.46447 -15779654.38962
 91  4 26  0 31 14.9970000  0  3G 2G 6G13
  21129060.6734    1237407.78447   1005104.82762
  20176754.1814   -5846281.69047  -4555536.88263
  19590063.7434  -20268167.33947 -15793353.77262
 91  4 26  0 31 29.9970000  0  3G 2G 6G13
  21131591.5874    1250715.79347   1015474.70463
  20178956.1264   -5834702.55547  -4546514.18363
  19586746.9154  -20285603.40547 -15806940.30662
 91  4 26  0 31 44.9970000  0  4G 2G 6G13G12
  21134136.3994    1264078.22747   1025886.98863
  20181185.8294   -5822987.44947  -4537385.53663
  19583455.4704  -20302892.84447 -15820412.58362
  23447046.4544         -0.39755
 91  4 26  0 31 59.9970000  0  4G 2G 6G13G12
  21136690.4544    1277491.17147   1036338.62963
  20183440.9934   -5811140.28947  -4528153.99263
  19580192.4704  -20320039.40947 -15833773.53962
  23436003.2354     -58032.46445
 91  4 26  0 32 14.9970000  0  4G 2G 6G13G12
  21139249.6964    1290955.85847   1046830.58662
  20185720.5794   -5799159.86647  -4518818.60363
  19576955.7824  -20337041.87647 -15847022.21062
  23424962.0094    -116053.25145
 91  4 26  0 32 29.9970000  0  4G 2G 6G13G12
  21141821.5014    1304469.24747   1057360.49163
  20188026.8294   -5787049.29147  -4509381.79563
  19573747.7744  -20353903.58847 -15860161.20362
  23413924.8454    -174065.54945
 91  4 26  0 32 44.9970000  0  4G 2G 6G13G12
  21144404.2904    1318032.57347   1067929.31863
  20190352.8844   -5774807.33347  -4499842.62063
  19570566.4234  -20370623.66047 -15873189.82362
  23402885.3144    -232067.99545
 91  4 26  0 32 59.9970000  0  4G 2G 6G13G12
  21146996.6264    1331651.13847   1078541.18062
  20192707.2284   -5762428.64747  -4490196.89263
  19567412.1964  -20387196.61047 -15886103.80162
  23391852.071     -290055.016 5
 91  4 26  0 33 14.9970000  0  4G 2G 6G13G12
  21149598.5714    1345319.69347   1089191.99862
  20195086.3144   -5749918.59647  -4480448.80863
  19564288.0794  -20403627.76647 -15898907.29262
  23380816.931     -348031.561 5        -0.04331
 91  4 26  0 33 29.9970000  0  4G 2G 6G13G12
  21152206.1344    1359041.83547   1099884.56862
  20197497.2984   -5737273.66547  -4470595.62363
  19561185.8374  -20419913.84947 -15911597.74062
  23369787.2124    -405993.97845    -45165.44561
 91  4 26  0 33 44.9970000  0  4G 2G 6G13G12
  21154829.1104    1372814.05147   1110616.16162
  20199926.0564   -5724497.39547  -4460640.10063
  19558114.4784  -20436058.25347 -15924177.79162
  23358758.321     -463945.329 5    -90322.20721
 91  4 26  0 33 59.9970000  0  4G 2G 6G13G12
  21157458.2674    1386636.96247   1121387.25062
  20202382.0714   -5711589.24247  -4450581.80763
  19555068.0174  -20452060.42047 -15936647.00762
  23347736.6894    -521884.89945   -135469.79761
 91  4 26  0 34 14.9970000  0  4G 2G 6G13G12
  21160101.0484    1400512.22447   1132199.13762
  20204867.1264   -5698547.42247  -4440419.36263
  19552051.2124  -20467918.86347 -15949004.23062
  23336711.423     -579810.636 5   -180606.64121
 91  4 26  0 34 29.9970000  0  4G 2G 6G13G12
  21162749.7354    1414434.54947   1143047.68862
  20207370.2124   -5685377.11047  -4430156.78763
  19549059.3144  -20483639.02047 -15961253.70062
  23325692.384     -637727.775 5   -225736.77021
 91  4 26  0 34 44.9970000  0  4G 2G 6G13G12
  21165407.9234    1428408.97647   1153936.85162
  20209903.032    -5672073.570 7  -4419790.40723
  19546096.3064  -20499215.87647 -15973391.49862
  23314672.024     -695630.995 5   -270856.04721
 91  4 26  0 34 59.9970000  0  4G 2G 6G13G12
  21168075.8604    1442431.79947   1164863.71662
  20212460.9154   -5658640.59447  -4409323.16163
  19543156.9234  -20514653.54947 -15985420.84762
  23303657.4624    -753523.79045   -315967.20961
 91  4 26  0 35 14.9970000  0  4G 2G 6G13G12
  21170758.415     1456508.528 7   1175832.58422
  20215036.767    -5645072.701 7  -4398750.79223
  19540248.0714  -20529946.54947 -15997337.46262
  23292643.431     -811400.397 5   -361065.74521
 91  4 26  0 35 29.9970000  0  4G 2G 6G13G12
  21173442.993     1470633.422 7   1186838.98322
  20217649.4464   -5631375.47347  -4388077.64163
  19537364.4074  -20545100.73147 -16009145.90862
  23281632.196     -869266.310 5   -406155.96021
 91  4 26  0 35 44.9970000  0  4G 2G 6G13G12
  21176139.1184    1484813.64347   1197888.49562
  20220282.5714   -5617542.15847  -4377298.44262
  19534508.6494  -20560109.45647 -16020841.01662
  23270621.7824    -927114.29045   -451232.18461
 91  4 26  0 35 59.9970000  0  4G 2G 6G13G12
  21178848.8764    1499043.05047   1208976.33662
  20222936.540    -5603578.611 7  -4366417.76823
  19531680.7514  -20574978.58647 -16032427.34662
  23259613.0484    -984949.87245   -496298.77361
 91  4 26  0 36 14.9970000  0  4G 2G 6G13G12
  21181567.9074    1513324.52347   1220104.74962
  20225617.7434   -5589482.23847  -4355433.59463
  19528876.2434  -20589705.61747 -16043902.94562
  23248616.0874   -1042770.27945   -541353.51461
 91  4 26  0 36 29.9970000  0  4G 2G 6G13G12
  21184293.9314    1527654.27447
  20228325.8534   -5575256.69547
  19526099.5644  -20604294.60247 -16055270.97962
  23237611.790    -1100579.091 5   -586399.21021
 91  4 26  0 36 44.9970000  0  4G 2G 6G13G12
  21187033.9314    1542037.17247
  20231057.1264   -5560897.43747
  19523350.7744  -20618740.31047 -16066527.37062
  23226614.0794   -1158370.95345   -631431.70661
 91  4 26  0 36 59.9970000  0  4G 2G 6G13G12
  21189777.6264    1556469.88747   1253724.48362
  20233816.0014   -5546407.76547  -4321869.10163
  19520628.2824  -20633046.52047 -16077675.06962
  23215621.4704   -1216149.17845   -676453.57561
 91  4 26  0 37 14.9970000  0  4G 2G 6G13G12
  21192534.751     1570950.855 7   1265008.34622
  20236596.2204   -5531789.27747  -4310478.07963
  19517931.3684  -20647215.11447 -16088715.52061
  23204627.8454   -1273915.03045   -721465.81261
 91  4 26  0 37 29.9970000  0  4G 2G 6G13G12
  21195296.0014    1585483.18947   1276332.23062
  20239407.9154   -5517038.91047  -4298984.29662
  19515262.4784  -20661242.75547 -16099646.14962
  23193639.8924   -1331665.08045   -766465.72361
 91  4 26  0 37 44.9970000  0  4G 2G 6G13G12
  21198073.5954    1600067.49047   1287696.61562
  20242236.4624   -5502155.98447  -4287387.22563
  19512620.2904  -20675128.99347 -16110466.59162
  23182654.329    -1389398.524 5   -811452.68721
 91  4 26  0 37 59.9970000  0  4G 2G 6G13G12
  21200859.5714    1614699.46947   1299098.15062
  20245092.2354   -5487145.00747  -4275690.37063
  19510004.2044  -20688878.33647 -16121180.35762
  23171666.876    -1447119.302 5   -856429.79421
 91  4 26  0 38 14.9970000  0  4G 2G 6G13G12
  21203651.7984    1629384.57147   1310541.08462
  20247973.9934   -5472000.58647  -4263889.53762
  19507413.5324  -20702485.48047 -16131783.32362
  23160688.814    -1504821.679 5   -901392.54521
 91  4 26  0 38 29.9970000  0  4G 2G 6G13G12
  21206457.5874    1644123.12047   1322025.65762
  20250886.6574   -5456722.21047  -4251984.31663
  19504852.2434  -20715950.04547 -16142275.18562
  23149708.985    -1562505.150 5   -946340.58721
 91  4 26  0 38 44.9970000  0  4G 2G 6G13G12
  21209275.4704    1658915.10047   1333551.86962
  20253814.3684   -5441310.16947  -4239974.94362
  19502318.5644  -20729272.55047 -16152656.35662
  23138736.384    -1620169.575 5   -991273.76221
 91  4 26  0 38 59.9970000  0  4G 2G 6G13G12
  21212095.8534    1673758.51647   1345118.16162
  20256776.1574   -5425766.73347  -4227863.18763
  19499808.3924  -20742455.04647 -16162928.42062
  23127768.829    -1677816.640 5  -1036193.41621
 91  4 26  0 39 14.9970000  0  4G 2G 6G13G12
  21214935.3924    1688659.27147   1356729.13462
  20259756.3604   -5410085.63347  -4215644.15363
  19497328.0014  -20755491.84647 -16173086.96462
  23116804.6264   -1735440.15145  -1081094.72461
 91  4 26  0 39 29.9970000  0  4G 2G 6G13G12
  21217776.5644    1703607.82547   1368377.34762
  20262767.6574   -5394276.66747  -4203325.49463
  19494872.7514  -20768392.80647 -16183139.65862
  23105837.5174   -1793049.62345  -1125985.08661
 91  4 26  0 39 44.9970000  0  4G 2G 6G13G12
  21220632.4464    1718609.08047   1380066.62962
  20265799.2744   -5378335.22147  -4190903.59662
  19492444.6814  -20781153.08347 -16193082.72462
  23094879.0244   -1850639.87045  -1170860.47061
 91  4 26  0 39 59.9970000  0  4G 2G 6G13G12
  21223496.3534    1733666.43947   1391799.62562
  20268861.321    -5362257.866 7  -4178375.80422
  19490043.5404  -20793769.35747 -16202913.58962
  23083924.5564   -1908207.10845  -1215717.92061
 91  4 26  0 40 14.9970000  0  4G 2G 6G13G12
  21226369.4854    1748774.88547   1403572.43862
  20271942.923    -5346049.503 7  -4165745.92522
  19487668.3604  -20806246.74247 -16212636.21862
  23072969.3064   -1965756.20545  -1260561.22861
 91  4 26  0 40 29.9970000  0  4G 2G 6G13G12
  21229256.2354    1763937.51147   1415387.46362
  20275054.3214   -5329707.21547  -4153011.69063
  19485322.1494  -20818582.60947 -16222248.57962
  23062023.2984   -2023283.89245  -1305387.86161
 91  4 26  0 40 44.9970000  0  4G 2G 6G13G12
  21232154.4934    1779154.74347   1427245.03962
  20278186.6494   -5313230.84747  -4140172.96762
  19483002.3064  -20830776.42147 -16231750.25262
  23051084.142    -2080789.409 5  -1350197.20621
 91  4 26  0 40 59.9970000  0  4G 2G 6G13G12
  21235059.7984    1794422.42747   1439141.93062
  20281347.1734   -5296624.54647  -4127233.00562
  19480708.2904  -20842832.51547 -16241144.61062
  23040139.837    -2138276.540 5  -1394992.23921
 91  4 26  0 41 14.9970000  0  4G 2G 6G13G12
  21237974.9464    1809744.84947   1451081.46862
  20284535.2824   -5279883.64047  -4114188.15062
  19478440.1184  -20854746.60747 -16250428.31462
  23029207.212    -2195740.697 5  -1439769.35221
 91  4 26  0 41 29.9970000  0  4G 2G 6G13G12
  21240901.0174    1825116.41647   1463059.31462
  20287745.6494   -5263014.14747  -4101043.10062
  19476199.1034  -20866524.42947 -16259605.83662
  23018278.876    -2253187.175 5  -1484532.68921
 91  4 26  0 41 44.9970000  0  4G 2G 6G13G12
  21243835.2434    1840539.18447   1475077.05262
  20290980.0564   -5246014.24847  -4087796.43462
  19473984.2204  -20878164.30447 -16268675.86262
  23007351.290    -2310613.831 5  -1529280.59621
 91  4 26  0 41 59.9970000  0  4G 2G 6G13G12
  21246779.9704    1856013.75047   1487135.14762
  20294240.5644   -5228883.54347  -4074447.84062
  19471793.7354  -20889666.02147 -16277638.24162
  22996425.0094   -2368019.90045  -1574012.45861
 91  4 26  0 42 14.9970000  0  4G 2G 6G13G12
  21249735.5244    1871542.63147   1499235.56862
  20297524.4544   -5211619.26647  -4060995.17562
  19469631.4464  -20901027.11147 -16286491.03762
  22985506.360    -2425402.582 5  -1618726.09221
 91  4 26  0 42 29.9970000  0  4G 2G 6G13G12
  21252697.1814    1887127.20247   1511379.38262
  20300836.7744   -5194220.18747  -4047437.45862
  19467499.3994  -20912246.14947 -16295233.14762
  22974590.4394   -2482760.16045  -1663420.16761
 91  4 26  0 42 44.9970000  0  4G 2G 6G13G12
  21255673.0094    1902765.28547   1523564.89362
  20304174.149    -5176688.817 7  -4033776.66222
  19465390.6104  -20923325.65247 -16303866.52562
  22963677.946    -2540094.709 5  -1708096.30121
 91  4 26  0 42 59.9970000  0  4G 2G 6G13G12
  21258661.3534    1918453.83847   1535789.72962
  20307534.6264   -5159028.03447  -4020015.02862
  19463307.1964  -20934268.95847 -16312393.77262
  22952773.774    -2597408.967 5  -1752756.62721
 91  4 26  0 43 14.9970000  0  4G 2G 6G13G12
  21261655.017     1934193.813 7   1548054.63422
  20310916.032    -5141237.034 7  -4006151.92322
  19461252.1424  -20945075.11747 -16320814.15662
  22941867.267    -2654701.541 5  -1797400.06421
 91  4 26  0 43 29.9970000  0  4G 2G 6G13G12
  21264661.7824    1949988.44947   1560362.13862
  20314330.235    -5123312.691 7  -3992184.91622
  19459220.9074  -20955740.93747 -16329125.18862
  22930971.524    -2711968.857 5  -1842023.81421
 91  4 26  0 43 44.9970000  0  4G 2G 6G13G12
  21267675.556     1965836.450 7   1572711.21722
  20317761.4624   -5105256.11347  -3978114.86962
  19457219.0324  -20966267.83247 -16337327.95562
  22920078.4464   -2769212.10245  -1886628.81061
 91  4 26  0 43 59.9970000  0  4G 2G 6G13G12
  21270702.3374    1981738.08447   1585102.08962
  20321226.7284   -5087067.45747  -3963941.90262
  19455240.6654  -20976655.98247 -16345422.62062
  22909190.5564   -2826430.80346  -1931214.68561
 91  4 26  0 44 14.9970000  0  4G 2G 6G13G12
  21273740.126     1997689.543 7   1597531.78522
  20324708.6494   -5068750.71846  -3949669.13162
  19453289.9154  -20986909.46447 -16353412.34462
  22898305.8844   -2883628.56445  -1975784.24061
 91  4 26  0 44 29.9970000  0  4G 2G 6G13G12
  21276784.6814    2013698.55947   1610006.33362
  20328224.321    -5050298.123 7  -3935290.50022
  19451366.9154  -20997020.55548 -16361291.10962
  22887425.189    -2940797.318 5  -2020331.18321
 91  4 26  0 44 44.9970000  0  4G 2G 6G13G12
  21279844.3294    2029761.51947   1622522.91262
  20331760.3534   -5031713.37947  -3920808.89262
  19449468.5244  -21006993.08547 -16369061.91262
  22876556.0014   -2997940.41546  -2064858.13361
 91  4 26  0 44 59.9970000  0  4G 2G 6G13G12
  21282909.759     2045878.781 7   1635081.80922
  20335324.5404   -5012996.10147  -3906224.01362
  19447598.3144  -21016827.03947 -16376724.73562
  22865683.056    -3055057.266 5  -2109364.66021
 91  4 26  0 45 14.9970000  0  4G 2G 6G13G12
  21285987.2354    2062050.18647   1647682.89062
  20338911.001    -4994146.770 6  -3891536.23722
  19445751.5094  -21026522.54947 -16384279.67662
  22854821.3534   -3112147.93545  -2153850.76261
 91  4 26  0 45 29.9970000  0  4G 2G 6G13G12
  21289072.4234    2078274.58147   1660325.26762
  20342521.595    -4975166.629 6  -3876746.53122
  19443933.2434  -21036081.09547 -16391727.89462
  22843961.821    -3169212.980 5  -2198316.89221
 91  4 26  0 45 44.9970000  0  4G 2G 6G13G12
  21292172.157     2094551.601 7   1673008.64222
  20346155.626    -4956055.838 6  -3861855.01922
  19442140.3844  -21045503.01347 -16399069.65262
  22833104.564    -3226252.601 5  -2242763.21121
 91  4 26  0 45 59.9970000  0  4G 2G 6G13G12
  21295282.1494    2110881.72347   1685733.40362
  20349816.4234   -4936814.14046  -3846861.50262
  19440372.0094  -21054787.97747 -16406304.69262
  22822256.8534   -3283266.00546  -2287189.11661
 91  4 26  0 46 14.9970000  0  4G 2G 6G13G12
  21298399.509     2127264.798 7   1698499.42122
  20353499.8844   -4917442.15946  -3831766.46362
  19438632.5794  -21063936.79347 -16413433.63962
  22811410.5644   -3340253.33045  -2331594.69161
 91  4 26  0 46 29.9970000  0  4G 2G 6G13G12
  21301526.4154    2143699.03747   1711305.31262
  20357214.579    -4897941.451 6  -3816571.12322
  19436917.8534  -21072951.07647 -16420457.75762
  22800572.0174   -3397215.95646  -2375981.01961
 91  4 26  0 46 44.9970000  0  4G 2G 6G13G12
  21304662.4784    2160184.22747   1724150.90662
  20360949.501    -4878312.323 6  -3801275.71022
  19435228.2124  -21081831.09447 -16427377.25462
  22789736.2744   -3454153.81345  -2420348.06861
 91  4 26  0 46 59.9970000  0  4G 2G 6G13G12
  21307808.954     2176724.412 7   1737039.35022
  20364709.0794   -4858551.02846  -3785877.31062
  19433563.7044  -21090573.26047 -16434189.33562
  22778910.157    -3511062.662 6  -2464692.50321
 91  4 26  0 47 14.9970000  0  4G 2G 6G13G12
  21310964.899     2193326.803 7   1749976.26622
  20368498.892    -4838650.320 6  -3770370.28122
  19431928.8374  -21099170.57248 -16440888.54562
  22768084.649    -3567934.988 6  -2509008.46921
 91  4 26  0 47 29.9970000  0  4G 2G 6G13G12
  21314135.6654    2209984.87247   1762956.56862
  20372312.501    -4818616.809 6  -3754759.77022
  19430318.6654  -21107629.74948 -16447480.11162
  22757271.189    -3624777.094 6  -2553300.92721
 91  4 26  0 47 44.9970000  0  4G 2G 6G13G12
  21317317.103     2226698.524 7   1775980.17822
  20376151.431    -4798450.731 6  -3739045.95822
  19428735.1894  -21115950.97448 -16453964.18462
  22746455.6264   -3681588.68145  -2597569.55261
 91  4 26  0 47 59.9970000  0  4G 2G 6G13G12
  21320512.470     2243466.465 7   1789046.09322
  20380011.368    -4778153.673 6  -3723230.08222
  19427177.1034  -21124135.84548 -16460342.01562
  22735653.6814   -3738370.77846  -2641815.22361
 91  4 26  0 48 14.9970000  0  4G 2G 6G13G12
  21323710.181     2260286.434 7   1802152.54922
  20383898.532    -4757727.897 6  -3707313.91322
  19425645.2594  -21132186.82148 -16466615.50662
  22724850.985    -3795125.393 5  -2686039.48621
 91  4 26  0 48 29.9970000  0  4G 2G 6G13G12
  21326921.1104    2277158.15947   1815299.33762
  20387810.446    -4737173.816 6  -3691297.76722
  19424138.0404  -21140104.27147 -16472784.95062
  22714059.8534   -3851852.65445  -2730242.42361
 91  4 26  0 48 44.9970000  0  4G 2G 6G13G12
  21330138.6494    2294080.25147   1828485.37562
  20391746.814    -4716492.954 7  -3675182.81922
  19422657.4074  -21147889.92048 -16478851.69262
  22703263.0644   -3908553.66645  -2774424.89561
 91  4 26  0 48 59.9970000  0  4G 2G 6G13G12
  21333371.462     2311049.445 7   1841708.10922
  20395705.337    -4695688.469 6  -3658971.55522
  19421200.6654  -21155547.12748 -16484818.35062
  22692485.1894   -3965231.27345  -2818589.13361
 91  4 26  0 49 14.9970000  0  4G 2G 6G13G12
  21336609.4934    2328072.91247   1854973.13962
  20399683.8214   -4674753.48346  -3642658.59762
  19419767.6494  -21163068.85547 -16490679.44262
  22681703.220    -4021878.040 5  -2862729.36021
 91  4 26  0 49 29.9970000  0  4G 2G 6G13G12
  21339857.2514    2345147.60447   1868278.08362
  20403695.610    -4653691.296 6  -3626246.51122
  19418362.3064  -21170458.46447 -16496437.58462
  22670929.4784   -4078496.77545  -2906847.72361
 91  4 26  0 49 44.9970000  0  4G 2G 6G13G12
  21343116.4394    2362276.81347   1881625.51562
  20407727.2984   -4632498.86846  -3609732.94262
  19416983.2124  -21177712.99848 -16502090.46962
  22660160.4074   -4135084.08545  -2950941.60061
 91  4 26  0 49 59.9970000  0  4G 2G 6G13G12
  21346393.235     2379463.018 7   1895017.34922
  20411784.993    -4611173.385 6  -3593115.69922
  19415629.1264  -21184830.23048 -16507636.37062
  22649395.7124   -4191637.05945  -2995008.73861
 91  4 26  0 50 14.9970000  0  4G 2G 6G13G12
  21349670.6814    2396702.80547   1908450.94262
  20415869.899    -4589718.651 6  -3576397.73922
  19414299.0404  -21191813.48148 -16513077.86862
  22638647.0404   -4248158.91746  -3039051.61361
 91  4 26  0 50 29.9970000  0  4G 2G 6G13G12
  21352958.5014    2413994.81047   1921925.22262
  20419979.267    -4568136.113 6  -3559580.19522
  19412993.8994  -21198664.50247 -16518416.32662
  22627896.6734   -4304650.79246  -3083071.16061
 91  4 26  0 50 44.9970000  0  4G 2G 6G13G12
  21356260.431     2431338.318 7   1935439.63022
  20424110.251    -4546426.700 6  -3542663.78522
  19411716.9854  -21205384.32547 -16523652.55462
  22617145.415    -4361113.043 5  -3127067.60121
 91  4 26  0 50 59.9970000  0  4G 2G 6G13G12
  21359567.3064    2448734.61247   1948995.17462
  20428262.939    -4524589.122 6  -3525647.50522
  19410463.9854  -21211971.64947 -16528785.54062
  22606410.196    -4417544.180 5  -3171039.79821
 91  4 26  0 51 14.9970000  0  4G 2G 6G13G12
  21362892.3214    2466184.18847   1962592.23562
  20432442.142    -4502622.945 6  -3508531.02222
  19409234.7204  -21218426.22747 -16533815.08362
  22595678.579    -4473943.107 5  -3214986.91721
 91  4 26  0 51 29.9970000  0  4G 2G 6G13G12
  21366221.8294    2483685.32247   1976229.47562
  20436642.7594   -4480530.24746  -3491315.94162
  19408031.3604  -21224750.21748 -16538742.86662
  22584953.3534   -4530311.45346  -3258910.19061
 91  4 26  0 51 44.9970000  0  4G 2G 6G13G12
  21369561.149     2501235.480 7   1989904.90622
  20440873.251    -4458313.486 6  -3474004.20022
  19406852.3064  -21230946.12048 -16543570.84762
  22574230.649    -4586651.429 6  -3302811.36621
 91  4 26  0 51 59.9970000  0  4G 2G 6G13G12
  21372912.767     2518840.382 7   2003622.99422
  20445127.470    -4435967.053 6  -3456591.41322
  19405698.8374  -21237008.44247 -16548294.72562
  22563515.345    -4642957.115 6  -3346685.81821
 91  4 26  0 52 14.9970000  0  4G 2G 6G13G12
  21376268.399     2536498.765 7   2017382.75722
  20449404.899    -4413492.411 6  -3439078.72022
  19404570.3454  -21242938.75547 -16552915.75862
  22552806.7044   -4699229.53046  -3390534.35261
 91  4 26  0 52 29.9970000  0  4G 2G 6G13G12
  21379640.3764    2554209.53847   2031183.34562
  20453708.423    -4390890.824 7  -3421467.11422
  19403466.0714  -21248738.35847 -16557434.93462
  22542101.7824   -4755469.37946  -3434357.53161
 91  4 26  0 52 44.9970000  0  4G 2G 6G13G12
  21383023.4074    2571973.73847   2045025.56862
  20458032.267    -4368161.439 7  -3403755.92022
  19402387.9074  -21254406.41447 -16561851.60262
  22531408.2904   -4811675.42346  -3478154.34561
 91  4 26  0 52 59.9970000  0  4G 2G 6G13G12
  21386412.298     2589788.496 7   2058907.18922
  20462381.024    -4345307.227 7  -3385947.45722
  19401333.3454  -21259946.19247 -16566168.31262
  22520716.462    -4867850.372 6  -3521926.93021
 91  4 26  0 53 14.9970000  0  4G 2G 6G13G12
  21389811.673     2607655.147 7   2072829.23922
  20466752.892    -4322327.096 7  -3368040.87622
  19400302.9234  -21265356.07947 -16570383.81362
  22510034.8144   -4923992.39046  -3565673.85461
 91  4 26  0 53 29.9970000  0  4G 2G 6G13G12
  21393222.267     2625578.049 7   2086795.12022
  20471149.181    -4299216.706 7  -3350032.80022
  19399299.2124  -21270632.10147 -16574494.99862
  22499357.3924   -4980097.05246  -3609391.68061
 91  4 26  0 53 44.9970000  0  4G 2G 6G13G12
  21396645.048     2643555.449 7   2100803.47022
  20475573.243    -4275977.777 7  -3331924.56322
  19398320.9464  -21275776.39347 -16578503.54062
  22488683.5564   -5036165.64446  -3653081.39461
 91  4 26  0 53 59.9970000  0  4G 2G 6G13G12
  21400074.689     2661585.454 7   2114852.80822
  20480021.774    -4252612.619 7  -3313717.96122
  19397366.4784  -21280791.25447 -16582411.22962
  22478023.743    -5092199.880 6  -3696744.34821
 91  4 26  0 54 14.9970000  0  4G 2G 6G13G12
  21403517.204     2679669.561 7   2128944.30522
  20484486.665    -4229119.773 6  -3295411.86522
  19396437.2124  -21285675.26347 -16586216.95362
  22467370.501    -5148197.960 6  -3740379.13721
 91  4 26  0 54 29.9970000  0  4G 2G 6G13G12
  21406966.3454    2697804.31447   2143075.26862
  20488980.939    -4205502.915 6  -3277009.13822
  19395531.5564  -21290432.12947 -16589923.60662
  22456719.806    -5204163.111 6  -3783988.24021
 91  4 26  0 54 44.9970000  0  4G 2G 6G13G12
  21410428.681     2715996.959 7   2157251.33122
  20493499.946    -4181755.009 6  -3258504.29422
  19394651.3144  -21295054.82947 -16593525.71462
  22446076.853    -5260087.763 6  -3827565.80821
 91  4 26  0 54 59.9970000  0  4G 2G 6G13G12
  21413901.079     2734241.565 7   2171467.90622
  20498044.720    -4157882.070 6  -3239902.02522
  19393797.6034  -21299549.41747 -16597027.99662
  22435444.9854   -5315977.44146  -3871116.12161
 91  4 26  0 55 14.9970000  0  4G 2G 6G13G12
  21417385.321     2752540.801 7   2185727.02422
  20502615.501    -4133881.406 6  -3221200.22922
  19392966.0874  -21303913.41847 -16600428.51962
  22424811.0404   -5371829.23846  -3914636.91261
 91  4 26  0 55 29.9970000  0  4G 2G 6G13G12
  21420875.423     2770897.724 7   2200031.10222
  20507203.548    -4109750.387 6  -3202396.85922
  19392161.3454  -21308144.20147 -16603725.23562
  22414192.985    -5427639.937 6  -3958125.69121
 91  4 26  0 55 44.9970000  0  4G 2G 6G13G12
  21424378.329     2789305.141 7   2214374.53022
  20511821.579    -4085496.274 6  -3183497.57122
  19391382.4854  -21312249.14247 -16606923.89762
  22403577.3604   -5483416.44746  -4001587.81561
 91  4 26  0 55 59.9970000  0  4G 2G 6G13G12
  21427892.868     2807767.996 7   2228761.15522
  20516454.892    -4061114.024 6  -3164498.43422
  19390623.7984  -21316223.16947 -16610020.54862
  22392973.235    -5539153.268 6  -4045019.02621
 91  4 26  0 56 14.9970000  0  4G 2G 6G13G12
  21431418.407     2826289.998 7   2243193.87022
  20521124.548    -4036600.377 6  -3145396.91122
  19389893.4854  -21320063.36847 -16613012.91262
  22382373.9074   -5594846.66646  -4088416.39761
 91  4 26  0 56 29.9970000  0  4G 2G 6G13G12
  21434954.196     2844872.012 7   2257673.34222
  20525813.962    -4011954.565 6  -3126192.39822
  19389188.6104  -21323768.89647 -16615900.33962
  22371782.728    -5650495.394 6  -4131778.96221
 91  4 26  0 56 44.9970000  0  4G 2G 6G13G12
  21438502.0874    2863509.45747   2272196.01362
  20530525.743    -3987181.245 6  -3106888.53422
  19388508.2674  -21327344.37447 -16618686.42962
  22361202.8144   -5706103.57746  -4175109.92561
 91  4 26  0 56 59.9970000  0  4G 2G 6G13G12
  21442054.001     2882203.336 6   2286762.66222
  20535265.173    -3962279.529 6  -3087484.62222
  19387852.3534  -21330789.22847 -16621370.74562
  22350626.4464   -5761670.05046  -4218408.39061
 91  4 26  0 57 14.9970000  0  4G 2G 6G13G12
  21445625.470     2900951.873 7   2301371.89122
  20540026.798    -3937251.570 6  -3067982.33622
  19387222.4544  -21334105.53747 -16623954.88862
  22340064.345    -5817196.361 6  -4261675.55821
 91  4 26  0 57 29.9970000  0  4G 2G 6G13G12
  21449203.001     2919756.542 7   2316024.87222
  20544815.564    -3912095.945 6  -3048380.57422
  19386615.7904  -21337291.95947 -16626437.81662
  22329504.0324   -5872680.66946  -4304910.00161
 91  4 26  0 57 44.9970000  0  4G 2G 6G13G12
  21452794.0484    2938623.10147   2330726.07362
  20549627.876    -3886806.988 6  -3028674.91622
  19386035.4464  -21340343.03347 -16628815.28762
  22318954.9234   -5928116.92646  -4348106.99261
 91  4 26  0 57 59.9970000  0  4G 2G 6G13G12
  21456394.579     2957547.844 7   2345472.61522
  20554464.657    -3861388.560 6  -3008868.37222
  19385477.1654  -21343262.76047 -16631090.40262
  22308413.7744   -5983508.59946  -4391269.24761
 91  4 26  0 58 14.9970000  0  4G 2G 6G13G12
  21460006.2204    2976528.07346   2360262.39162
  20559328.853    -3835843.541 6  -2988963.18822
  19384946.6034  -21346053.66747 -16633265.14062
  22297882.5244   -6038858.00646  -4434398.57161
 91  4 26  0 58 29.9970000  0  4G 2G 6G13G12
  21463631.478     2995568.617 7   2375099.15622
  20564212.415    -3810167.351 6  -2968955.78522
  19384442.3994  -21348711.51047 -16635336.19462
  22287357.056    -6094160.223 6  -4477491.12521
 91  4 26  0 58 44.9970000  0  4G 2G 6G13G12
  21467264.978     3014671.621 6   2389984.60322
  20569126.0644   -3784358.04146  -2948844.65962
  19383962.5954  -21351234.35447 -16637302.05162
  22276845.532    -6149412.685 6  -4520544.90721
 91  4 26  0 58 59.9970000  0  4G 2G 6G13G12
  21470913.2354    3033830.03047   2404913.21862
  20574061.384    -3758422.918 6  -2928635.50022
  19383504.7904  -21353629.52247 -16639168.42962
  22266339.337    -6204622.313 6  -4563565.31721
 91  4 26  0 59 14.9970000  0  4G 2G 6G13G12
  21474567.1654    3053043.38946   2419884.66062
  20579019.915    -3732362.377 6  -2908328.60622
  19383074.7124  -21355897.55247 -16640935.72562
  22255842.0324   -6259789.01246  -4606552.26861
 91  4 26  0 59 29.9970000  0  4G 2G 6G13G12
  21478233.3994    3072319.78746   2434905.21762
  20584004.610    -3706168.602 6  -2887917.89122
  19382668.1964  -21358030.83047 -16642598.02662
  22245353.532    -6314904.457 6  -4649499.27721
 91  4 26  0 59 44.9970000  0  4G 2G 6G13G12
  21481912.4394    3091657.02746   2449973.18662
  20589013.243    -3679843.777 6  -2867405.06622
  19382286.009   -21360031.670 7 -16644157.13222
  22234872.6424   -6369970.59446  -4692407.87461
 91  4 26  0 59 59.9970000  0  4G 2G 6G13G12
  21485608.7434    3111057.05746   2465090.07861
  20594047.7744   -3653386.19146  -2846788.79562
  19381931.4074  -21361898.29547 -16645611.65762
  22224407.1814   -6424985.17646  -4735276.28861
 91  4 26  1  0 14.9970000  0  4G 2G 6G13G12
  21489306.868     3130510.257 6   2480248.40622
  20599108.329    -3626805.962 6  -2826076.95222
  19381600.8374  -21363641.01248 -16646969.62362
  22213942.1184   -6479957.58446  -4778111.84661
 91  4 26  1  0 29.9970000  0  4G 2G 6G13G12
  21493021.821     3150020.835 6   2495451.43521
  20604188.478    -3600098.654 6  -2805266.08222
  19381293.6894  -21365255.60248 -16648227.75162
  22203488.189    -6534883.149 6  -4820910.90321
 91  4 26  1  0 44.9970000  0  4G 2G 6G13G12
  21496745.0324    3169589.67546   2510699.87961
  20609292.321    -3573263.733 6  -2784355.78422
  19381011.7434  -21366741.16248 -16649385.33462
  22193048.7044   -6589760.58146  -4863672.44561
 91  4 26  1  0 59.9970000  0  4G 2G 6G13G12
  21500481.282     3189219.577 6   2525995.89221
  20614427.7514   -3546298.68346  -2763344.08162
  19380754.5714  -21368095.22848 -16650440.45962
  22182611.251    -6644587.012 6  -4906394.24821
 91  4 26  1  1 14.9970000  0  4G 2G 6G13G12
  21504225.8684    3208909.14046   2541338.39761
  20619583.7514   -3519204.97046  -2742232.12262
  19380520.5404  -21369319.40148 -16651394.36462
  22172192.587    -6699363.543 6  -4949077.16621
 91  4 26  1  1 29.9970000  0  4G 2G 6G13G12
  21507984.157     3228659.546 6   2556728.31021
  20624763.298    -3491981.596 6  -2721019.13022
  19380313.7824  -21370412.89548 -16652246.44062
  22161779.587    -6754088.701 6  -4991720.05021
 91  4 26  1  1 44.9970000  0  4G 2G 6G13G12
  21511752.446     3248467.574 6   2572163.12322
  20629963.853    -3464631.830 6  -2699707.64122
  19380129.9934  -21371379.27348 -16652999.46662
  22151370.3994   -6808765.26346  -5034325.06961
 91  4 26  1  1 59.9970000  0  4G 2G 6G13G12
  21515534.040     3268336.528 6   2587645.40821
  20635192.868    -3437152.488 6  -2678295.19422
  19379967.3144  -21372215.39748 -16653650.99462
  22140979.829    -6863389.598 6  -5076889.40221
 91  4 26  1  2 14.9970000  0  4G 2G 6G13G12
  21519327.3534    3288261.15046   2603171.07861
  20640447.0874   -3409549.21346  -2656786.17662
  19379835.9154  -21372926.86448 -16654205.38762
  22130594.3844   -6917966.70646  -5119416.91661
 91  4 26  1  2 29.9970000  0  4G 2G 6G13G12
  21523130.954     3308247.283 6   2618744.67021
  20645725.196    -3381816.320 6  -2635176.15522
  19379725.1104  -21373507.75748 -16654658.02962
  22120216.509    -6972490.370 6  -5161902.80221
 91  4 26  1  2 44.9970000  0  4G 2G 6G13G12
  21526944.5244    3328291.59246   2634363.60661
  20651028.407    -3353957.277 6  -2613467.83522
  19379634.5954  -21373961.99648 -16655011.98862
  22109852.4234   -7026963.77746  -5204349.52761
 91  4 26  1  2 59.9970000  0  4G 2G 6G13G12
  21530770.181     3348391.922 6   2650026.18321
  20656351.493    -3325974.537 6  -2591663.12722
  19379575.3214  -21374291.97648 -16655269.11462
  22099496.306    -7081388.772 6  -5246758.51021
 91  4 26  1  3 14.9970000  0  4G 2G 6G13G12
  21534609.642     3368549.140 6   2665733.08721
  20661701.2434   -3297867.28546  -2569761.40462
  19379534.6574  -21374496.99648
  22089148.9074   -7135764.09546  -5289128.80361
 91  4 26  1  3 29.9970000  0  4G 2G 6G13G12
  21538448.837     3388765.210 6   2681485.85921
  20667075.0484   -3269633.86546  -2547761.36362
  19379520.3454  -21374575.42348
  22078810.5564   -7190087.44746  -5331458.59861
 91  4 26  1  3 44.9970000  0  4G 2G 6G13G12
  21542310.4854    3409042.01846   2697285.95261
  20672470.157    -3241272.371 6  -2525661.51922
  19379530.6344  -21374525.60448
  22068485.5874   -7244356.64946  -5373746.18861
 91  4 26  1  3 59.9970000  0  4G 2G 6G13G12
  21546180.6424    3429375.04546   2713129.85961
  20677889.5644   -3212787.57646  -2503465.61162
  19379561.2434  -21374352.16348
  22058161.3994   -7298576.08046  -5415995.00461
 91  4 26  1  4 14.9970000  0  4G 2G 6G13G12
  21550060.446     3449762.831 6   2729016.43821
  20683332.204    -3184181.328 6  -2481175.05522
  19379620.9394  -21374056.92548
  22047856.064    -7352746.779 6  -5458205.84121
 91  4 26  1  4 29.9970000  0  4G 2G 6G13G12
  21553950.134     3470212.890 6   2744951.53121
  20688800.0014   -3155446.15046  -2458784.03662
  19379700.7204  -21373632.55348 -16654755.30262
  22037556.8374   -7406860.94246  -5500372.62861
 91  4 26  1  4 44.9970000  0  4G 2G 6G13G12
  21557854.9854    3490724.27446   2760934.41961
  20694292.040    -3126583.269 6  -2436293.50222
  19379806.1034  -21373080.23648 -16654324.93162
  22027269.2674   -7460919.21746  -5542495.87061
 91  4 26  1  4 59.9970000  0  4G 2G 6G13G12
  21561767.728     3511294.934 6   2776963.49221
  20699809.485    -3097594.884 6  -2413705.17722
  19379931.8534  -21372402.41247 -16653796.75962
  22016994.9704   -7514923.29846  -5584576.87761
 91  4 26  1  5 14.9970000  0  4G 2G 6G13G12
  21565695.024     3531927.519 6   2793040.81021
  20705354.610    -3068478.691 6  -2391017.26322
  19380085.8214  -21371596.87047 -16653169.06962
  22006731.5014   -7568870.21846  -5626613.34761
 91  4 26  1  5 29.9970000  0  4G 2G 6G13G12
  21569632.8294    3552614.51846   2809160.53861
  20710913.415    -3039242.388 6  -2368235.75022
  19380263.5484  -21370671.16148 -16652447.74262
  21996475.5794   -7622767.22946  -5668610.92461
 91  4 26  1  5 44.9970000  0  4G 2G 6G13G12
  21573583.142     3573359.509 6   2825325.44821
  20716500.1104   -3009882.21646  -2345357.72662
  19380463.1964  -21369621.86848 -16651630.11662
  21986228.3214   -7676610.21046  -5710566.40861
 91  4 26  1  5 59.9970000  0  4G 2G 6G13G12
  21577537.9464    3594161.47446   2841534.76561
  20722109.892    -2980399.660 6  -2322384.33122
  19380686.5714  -21368450.53348 -16650717.39362
  21975992.7204   -7730399.96546  -5752480.40661
 91  4 26  1  6 14.9970000  0  4G 2G 6G13G12
  21581508.314     3615019.205 6   2857787.52521
  20727747.845    -2950796.004 6  -2299316.57622
  19380931.6104  -21367158.54047 -16649710.65062
  21965767.7674   -7784137.51346  -5794353.71961
 91  4 26  1  6 29.9970000  0  4G 2G 6G13G12
  21585490.298     3635936.221 6   2874086.48421
  20733404.1184   -2921067.98546  -2276151.92162
  19381200.4234  -21365742.56347 -16648607.29462
  21955549.587    -7837818.913 6  -5836183.30221
 91  4 26  1  6 44.9970000  0  4G 2G 6G13G12
  21589478.712     3656913.756 6   2890432.59821
  20739079.970    -2891214.455 6  -2252889.45622
  19381494.8684  -21364201.59148 -16647406.54462
  21945339.9154   -7891442.68046  -5877967.96861
 91  4 26  1  6 59.9970000  0  4G 2G 6G13G12
  21593481.6814    3677949.20946   2906823.85061
  20744789.868    -2861238.235 6  -2229531.39622
  19381810.1184  -21362538.52948 -16646110.65862
  21935150.001    -7945010.999 6  -5919709.43421
 91  4 26  1  7 14.9970000  0  4G 2G 6G13G12
  21597496.353     3699043.387 6   2923260.84922
  20750514.790    -2831138.867 6  -2206077.36122
  19382150.6814  -21360752.81647 -16644719.20262
  21924972.431    -7998522.849 6  -5961406.89521
 91  4 26  1  7 29.9970000  0  4G 2G 6G13G12
  21601522.2044    3720194.19146   2939741.97861
  20756264.6264   -2800918.76746  -2182529.26462
  19382514.3994  -21358846.81147 -16643234.01162
  21914792.290    -8051980.113 6  -6003061.82921
 91  4 26  1  7 44.9970000  0  4G 2G 6G13G12
  21605560.696     3741401.089 6   2956266.82421
  20762042.7044   -2770578.34046  -2158887.40162
  19382899.032   -21356821.427 7 -16641655.79922
  21904631.4314   -8105382.74646  -6044674.18461
 91  4 26  1  7 59.9970000  0  4G 2G 6G13G12
  21609606.603     3762671.834 6   2972841.40921
  20767839.7674   -2740110.13346  -2135145.97462
  19383308.2674  -21354669.09447 -16639978.66562
  21894482.814    -8158722.733 6  -6086237.73621
 91  4 26  1  8 14.9970000  0  4G 2G 6G13G12
  21613660.829     3783999.699 6   2989460.50721
  20773658.689    -2709521.090 6  -2111310.38322
  19383741.7044  -21352396.76247 -16638208.01862
  21884340.142    -8212006.493 6  -6127757.45821
 91  4 26  1  8 29.9970000  0  4G 2G 6G13G12
  21617732.642     3805385.427 6   3006124.68821
  20779502.0404   -2678810.86946  -2087380.37762
  19384195.2594  -21350004.12447 -16636343.63262
  21874213.829    -8265233.174 6  -6169232.71621
 91  4 26  1  8 44.9970000  0  4G 2G 6G13G12
  21621816.0244    3826830.98246   3022835.48261
  20785373.2594   -2647977.56046  -2063354.45062
  19384673.579   -21347489.565 7 -16634384.24422
  21864098.118    -8318400.371 6  -6210661.62521
 91  4 26  1  8 59.9970000  0  4G 2G 6G13G12
  21625905.345     3848335.573 6   3039592.28321
  20791262.1104   -2617022.14346  -2039233.38462
  19385175.6734  -21344853.64547 -16632330.28762
  21853989.642    -8371508.451 6  -6252044.47021
 91  4 26  1  9 14.9970000  0  4G 2G 6G13G12
  21630009.1034    3869898.73446   3056394.73961
  20797175.2594   -2585945.17946  -2015017.59562
  19385699.7594  -21342097.26948 -16630182.47062
  21843893.868    -8424557.688 6  -6293381.45821
 91  4 26  1  9 29.9970000  0  4G 2G 6G13G12
  21634124.353     3891522.044 6   3073244.04721
  20803112.1574   -2554745.50646  -1990706.19162
  19386248.1894  -21339219.15648 -16627939.79362
  21833812.665    -8477546.219 6  -6334671.13721
 91  4 26  1  9 44.9970000  0  4G 2G 6G13G12
  21638247.735     3913202.818 6   3090138.13921
  20809072.540    -2523425.999 6  -1966301.41622
  19386818.9234  -21336222.42048 -16625604.68262
  21823745.540    -8530476.389 6  -6375915.35221
 91  4 26  1  9 59.9970000  0  4G 2G 6G13G12
  21642388.618     3934943.460 6   3107078.88521
  20815057.4154   -2491984.26246  -1941801.40262
  19387412.6344  -21333104.76048 -16623175.34662
  21813680.431    -8583345.344 6  -6417111.86021
 91  4 26  1 10 14.9970000  0  4G 2G 6G13G12
  21646536.548     3956745.191 6   3124067.22121
  20821061.6964   -2460419.41346  -1917205.43462
  19388029.1034  -21329865.26048 -16620651.06562
  21803631.446    -8636151.711 6  -6458259.59321
 91  4 26  1 10 29.9970000  0  4G 2G 6G13G12
  21650696.939     3978605.695 6   3141101.35921
  20827090.9784   -2428734.01846  -1892515.55662
  19388667.9154  -21326506.69448 -16618034.00862
  21793592.681    -8688897.420 6  -6499360.07321
 91  4 26  1 10 44.9970000  0  4G 2G 6G13G12
  21654869.337     4000527.624 6   3158183.35121
  20833141.8374   -2396925.53646  -1867729.75762
  19389330.485   -21323026.552 8 -16615322.22522
  21783567.532    -8741579.498 6  -6540410.95921
 91  4 26  1 10 59.9970000  0  4G 2G 6G13G12
  21659049.540     4022507.283 6   3175310.35121
  20839221.665    -2364997.953 6  -1842851.15022
  19390014.6654  -21319428.77748 -16612518.77062
  21773556.243    -8794201.175 6  -6581414.78221
 91  4 26  1 11 14.9970000  0  4G 2G 6G13G12
  21663243.431     4044549.408 6   3192486.00421
  20845316.0324   -2332946.89846  -1817876.32962
  19390723.3144  -21315709.01148 -16609620.25762
  21763552.587    -8846757.595 6  -6622367.76621
 91  4 26  1 11 29.9970000  0  4G 2G 6G13G12
  21667449.220     4066652.260 6   3209708.97621
  20851441.3764   -2300774.18146  -1792806.71862
  19391453.157   -21311869.001 8 -16606628.05722
  21753565.439    -8899250.028 6  -6663270.88021
 91  4 26  1 11 44.9970000  0  4G 2G 6G13G12
  21671666.806     4088816.039 6   3226979.43821
  20857590.5644   -2268479.84746  -1767642.33762
  19392208.071   -21307909.225 8 -16603542.52722
  21743590.329    -8951678.012 6  -6704123.78021
 91  4 26  1 11 59.9970000  0  4G 2G 6G13G12
  21675898.853     4111040.699 6   3244297.32621
  20863752.665    -2236064.102 6  -1742383.33922
  19392981.7124  -21303830.06748 -16600363.96862
  21733621.564    -9004041.209 6  -6744926.19321
 91  4 26  1 12 14.9970000  0  4G 2G 6G13G12
  21680136.634     4133324.588 6   3261661.38521
  20869949.8994   -2203528.73846  -1717031.14262
  19393782.0564  -21299633.27748 -16597093.75362
  21723668.439    -9056340.872 6  -6785679.10121
 91  4 26  1 12 29.9970000  0  4G 2G 6G13G12
  21684388.314     4155669.034 6   3279072.61521
  20876168.110    -2170872.776 6  -1691584.97522
  19394602.9074  -21295317.63748 -16593730.92762
  21713730.314    -9108575.443 6  -6826381.28321
 91  4 26  1 12 44.9970000  0  4G 2G 6G13G12
  21688655.384     4178071.727 6   3296529.24221
  20882396.4624   -2138098.78446  -1666046.83262
  19395447.4784  -21290885.78948 -16590277.55162
  21703802.399    -9160746.906 6  -6867034.29121
 91  4 26  1 12 59.9970000  0  4G 2G 6G13G12
  21692929.3534    4200532.00346   3314030.72061
  20888654.2044   -2105207.55146  -1640417.32662
  19396311.0484  -21286338.80648 -16586734.45262
  21693886.142    -9212855.584 6  -6907638.37421
 91  4 26  1 13 14.9970000  0  4G 2G 6G13G12
  21697211.189     4223055.635 6   3331581.58121
  20894937.2044   -2072193.73446  -1614692.31061
  19397200.3064  -21281670.92448 -16583097.15062
  21683982.985    -9264895.417 6  -6948188.80821
 91  4 26  1 13 29.9970000  0  4G 2G 6G13G12
  21701512.118     4245641.142 6   3349180.65221
  20901245.8214   -2039058.80446  -1588872.91662
  19398111.6104  -21276884.12648 -16579367.18562
  21674094.923    -9316867.447 6  -6988686.41721
 91  4 26  1 13 44.9960000  0  4G 2G 6G13G12
  21705819.598     4268289.020 6   3366828.33421
  20907575.5124   -2005803.27046  -1562959.55162
  19399044.2854  -21271976.81048 -16575543.31562
  21664218.410    -9368765.888 6  -7029126.68721
 91  4 26  1 13 59.9960000  0  4G 2G 6G13G12
  21710142.816     4291000.787 6   3384525.79121
  20913922.2704   -1972424.36446  -1536950.04561
  19400000.2854  -21266950.10648 -16571626.41262
  21654355.879    -9420598.817 6  -7069515.89621
 91  4 26  1 14 14.9960000  0  4G 2G 6G13G12
  21714476.348     4313771.024 6   3402268.80521
  20920295.832    -1938928.356 6  -1510849.28921
  19400980.0514  -21261808.65148 -16567620.08662
  21644503.504    -9472366.345 6  -7109854.15221
 91  4 26  1 14 29.9960000  0  4G 2G 6G13G12
  21718821.809     4336605.795 6   3420062.11521
  20926696.8404   -1905309.54946  -1484652.85461
  19401981.4884  -21256547.02248 -16563520.12762
  21634665.3324   -9524062.19746  -7150136.56761
 91  4 26  1 14 44.9960000  0  4G 2G 6G13G12
  21723177.2624    4359502.64146   3437903.78761
  20933117.7234   -1871570.51946  -1458362.73761
  19403005.1844  -21251167.72148 -16559328.47562
  21624843.473    -9575688.264 6  -7190364.59121
 91  4 26  1 14 59.9960000  0  4G 2G 6G13G12
  21727545.4734    4382458.64646   3455791.55361
  20939558.6604   -1837714.48446  -1431981.44561
  19404049.9264  -21245673.56047 -16555047.32162
  21615030.7544   -9627247.28046  -7230540.37861
 91  4 26  1 15 14.9960000  0  4G 2G 6G13G12
  21731926.6994    4405474.59646   3473726.02761
  20946023.7384   -1803740.97246  -1405508.61561
  19405118.2624  -21240064.31848 -16550676.48962
  21605232.215    -9678738.370 6  -7270663.23221
 91  4 26  1 15 29.9960000  0  4G 2G 6G13G12
  21736319.0204    4428555.48446   3491711.10961
  20952510.3564   -1769645.23146  -1378940.53962
  19406207.6914  -21234335.29947 -16546212.33362
  21595445.629    -9730156.006 6  -7310728.85021
 91  4 26  1 15 44.9960000  0  4G 2G 6G13G12
  21740725.488     4451696.415 6   3509742.98221
  20959021.4264   -1735432.23146  -1352281.09661
  19407318.4964  -21228491.44447 -16541658.68662
  21585677.1294   -9781504.77546  -7350740.81261
 91  4 26  1 15 59.9960000  0  4G 2G 6G13G12
  21745138.356     4474899.947 6   3527823.63821
  20965553.7464   -1701099.60346  -1325528.43061
  19408452.8244  -21222530.52447 -16537013.81562
  21575917.0274   -9832781.63146  -7390696.73561
 91  4 26  1 16 14.9960000  0  4G 2G 6G13G12
  21749564.191     4498162.666 6   3545950.40921
  20972109.9264   -1666651.05646  -1298685.44661
  19409610.262   -21216456.414 7 -16532280.75622
  21566176.910    -9883989.754 7  -7430599.09321
 91  4 26  1 16 29.9960000  0  4G 2G 6G13G12
  21754005.0664    4521489.80146   3564127.37561
  20978691.0824   -1632081.72546  -1271748.34561
  19410787.0664  -21210264.21047 -16527455.67262
  21556444.3794   -9935123.67047  -7470443.64261
 91  4 26  1 16 44.9960000  0  4G 2G 6G13G12
  21758452.027     4544874.934 6   3582349.53221
  20985285.8634   -1597398.37046  -1244722.38761
  19411987.6524  -21203960.65947 -16522543.82062
  21546727.441    -9986189.539 7  -7510235.15321
 91  4 26  1 16 59.9960000  0  4G 2G 6G13G12
  21762914.723     4568321.968 6   3600619.92921
  20991915.9414   -1562597.14346  -1217604.58261
  19413208.9024  -21197542.11847 -16517542.37162
  21537019.6454  -10037182.97347  -7549970.22561
 91  4 26  1 17 14.9960000  0  4G 2G 6G13G12
  21767389.785     4591832.770 6   3618940.01221
  20998557.020    -1527676.338 6  -1190393.60321
  19414451.684   -21191007.030 7 -16512450.09922
  21527332.5594  -10088101.72447  -7589647.11661
 91  4 26  1 17 29.9960000  0  4G 2G 6G13G12
  21771874.145     4615404.518 6   3637307.58521
  21005222.0824   -1492639.01146  -1163091.82561
  19415718.7704  -21184358.30847 -16507269.28662
  21517655.9264  -10138948.20547  -7629267.68561
 91  4 26  1 17 44.9960000  0  4G 2G 6G13G12
  21776370.770     4639035.052 6   3655720.96921
  21011910.8564   -1457487.67146  -1135701.20761
  19417004.5434  -21177598.24647 -16502001.71662
  21507995.3094  -10189724.34847  -7668833.44361
 91  4 26  1 17 59.9960000  0  4G 2G 6G13G12
  21780882.4494    4662724.81146   3674180.48461
  21018623.8164   -1422222.21546  -1108221.67261
  19418311.4654  -21170727.00547 -16496647.51562
  21498342.3164  -10240429.48147  -7708343.88061
 91  4 26  1 18 14.9960000  0  4G 2G 6G13G12
  21785398.652     4686477.419 6   3692688.99621
  21025356.5204   -1386838.99046  -1080650.35761
  19419640.6844  -21163741.06247 -16491203.92962
  21488711.9734  -10291059.49147  -7747795.78461
 91  4 26  1 18 29.9960000  0  4G 2G 6G13G12
  21789933.020     4710294.449 6   3711247.70121
  21032113.9494   -1351336.77246  -1052986.32761
  19420992.941   -21156639.196 7 -16485670.01722
  21479091.551   -10341612.511 7  -7787187.67821
 91  4 26  1 18 44.9960000  0  4G 2G 6G13G12
  21794474.2314    4734172.10646   3729853.63461
  21038894.1914   -1315719.46446  -1025232.61861
  19422365.8564  -21149425.54547 -16480049.00262
  21469486.0354  -10392091.89347  -7826522.19961
 91  4 26  1 18 59.9960000  0  4G 2G 6G13G12
  21799029.488     4758113.123 6   3748508.95021
  21045688.9344   -1279984.91346   -997387.55661
  19423760.4264  -21142097.57847 -16474338.90462
  21459893.4024  -10442494.83247  -7865797.15461
 91  4 26  1 19 14.9960000  0  4G 2G 6G13G12
  21803599.684     4782116.927 6   3767213.20421
  21052514.1134   -1244133.65246   -969451.54361
  19425174.9344  -21134656.15747 -16468540.40862
  21450316.6294  -10492821.45347  -7905012.64261
 91  4 26  1 19 29.9960000  0  4G 2G 6G13G12
  21808180.246     4806179.857 6   3785963.51321
  21059355.363    -1208169.562 6   -941427.60221
  19426612.8404  -21127104.95947 -16462656.36262
  21440750.6994  -10543074.82347  -7944171.05661
 91  4 26  1 19 44.9960000  0  4G 2G 6G13G12
  21812772.3634    4830305.89946   3804763.00261
  21066219.3404   -1172088.94646   -913312.87161
  19428072.1604  -21119440.50747 -16456684.07362
  21431204.9494  -10593250.77347  -7983269.13461
 91  4 26  1 19 59.9960000  0  4G 2G 6G13G12
  21817369.3794    4854493.29246   3823610.30461
  21073108.020    -1135893.816 6   -885108.91821
  19429551.2704  -21111665.12647 -16450625.34462
  21421670.8794  -10643350.73247  -8022308.00661
 91  4 26  1 20 14.9960000  0  4G 2G 6G13G12
  21821989.418     4878740.997 6   3842504.59021
  21080018.7154   -1099585.38246   -856816.67361
  19431051.8014  -21103779.73447 -16444480.89162
  21412151.5514  -10693375.33347  -8061288.15061
 91  4 26  1 20 29.9960000  0  4G 2G 6G13G12
  21826610.832     4903052.348 6   3861448.48921
  21086956.035    -1063160.642 6   -828433.80321
  19432573.8874  -21095781.52647 -16438248.53062
  21402647.8874  -10743320.98347  -8100206.78161
 91  4 26  1 20 44.9960000  0  4G 2G 6G13G12
  21831251.652     4927422.356 6   3880438.07821
  21093906.1214   -1026624.85346   -799964.38361
  19434115.4184  -21087675.81447 -16431932.40462
  21393156.4574  -10793192.25047  -8139067.43961
 91  4 26  1 20 59.9960000  0  4G 2G 6G13G12
  21835895.777     4951853.949 6   3899475.67221
  21100877.7544    -989975.42346   -771406.41461
  19435679.3094  -21079459.96147 -16425530.44762
  21383680.5594  -10842985.97647  -8177867.67961
 91  4 26  1 21 14.9960000  0  4G 2G 6G13G12
  21840562.9884    4976346.00646   3918560.36761
  21107873.3484    -953213.72246   -742760.97361
  19437261.9574  -21071135.32847 -16419043.73462
  21374219.0904  -10892703.08647  -8216608.22061
 91  4 26  1 21 29.9960000  0  4G 2G 6G13G12
  21845232.5664    5000897.65346   3937691.49361
  21114888.6064    -916340.70546   -714028.79061
  19438867.7624  -21062702.90947 -16412473.02662
  21364771.590   -10942343.850 7  -8255289.27321
 91  4 26  1 21 44.9960000  0  4G 2G 6G13G12
  21849919.793     5025512.733 6   3956872.05121
  21121930.3164    -879352.77346   -685207.06361
  19440493.9574  -21054159.20647 -16405815.60462
  21355341.7384  -10991904.14347  -8293907.62061
 91  4 26  1 21 59.9960000  0  4G 2G 6G13G12
  21854610.035     5050187.089 6   3976098.80221
  21128992.8794    -842254.41046   -656299.29161
  19442140.6374  -21045508.63847 -16399074.91362
  21345925.8164  -11041387.81747  -8332466.26161
 91  4 26  1 22 14.9960000  0  4G 2G 6G13G12
  21859317.871     5074918.745 6   3995370.19921
  21136067.0274    -805047.77146   -627307.13461
  19443807.0824  -21036753.54647 -16392252.77362
  21336525.3564  -11090796.43947  -8370966.42161
 91  4 26  1 22 29.9960000  0  4G 2G 6G13G12
  21864035.965     5099710.628 6   4014688.52721
  21143169.6454    -767730.27346   -598228.59961
  19445491.910   -21027891.216 7 -16385347.07522
  21327135.0594  -11140126.66047  -8409405.48861
 91  4 26  1 22 44.9960000  0  4G 2G 6G13G12
  21868765.707     5124562.933 6   4034053.93921
  21150289.9184    -730301.95746   -569063.72361
  19447199.3094  -21018921.70247 -16378357.85262
  21317766.527   -11189377.995 7  -8447783.08221
 91  4 26  1 22 59.9960000  0  4G 2G 6G13G12
  21873508.801     5149474.597 6   4053465.61021
  21157438.1524    -692764.03246   -539813.42561
  19448925.176   -21009846.602 7 -16371286.35922
  21308406.0664  -11238551.15247  -8486099.76461
 91  4 26  1 23 14.9960000  0  4G 2G 6G13G12
  21878260.6214    5174445.39446   4072923.33761
  21164598.1914    -655117.04546   -510478.14661
  19450672.8874  -21000666.34147 -16364132.91662
  21299064.4734  -11287646.03547  -8524355.44661
 91  4 26  1 23 29.9960000  0  4G 2G 6G13G12
  21883020.348     5199471.606 6   4092424.25921
  21171788.7774    -617364.85246   -481060.88661
  19452440.746   -20991384.637 7 -16356900.43422
  21289735.004   -11336665.993 6  -8562552.74621
 91  4 26  1 23 44.9960000  0  4G 2G 6G13G12
  21887793.418     5224562.259 6   4111975.40221
  21178990.9414    -579498.85646   -451554.94361
  19454226.324   -20981992.956 7 -16349582.25722
  21280424.5984  -11385601.72747  -8600684.41162
 91  4 26  1 23 59.9960000  0  4G 2G 6G13G12
  21892582.2314    5249712.99146   4131573.35461
  21186220.348     -541523.754 6   -421964.00221
  19456033.5594  -20972496.13647 -16342182.15162
  21271127.363   -11434457.324 7  -8638753.63621
 91  4 26  1 24 14.9960000  0  4G 2G 6G13G12
  21897377.332     5274923.476 6   4151217.86721
  21193464.8564    -503440.00946   -392288.38161
  19457859.9964  -20962894.70447 -16334700.52762
  21261847.199   -11483232.637 7  -8676760.29821
 91  4 26  1 24 29.9960000  0  4G 2G 6G13G12
  21902191.3244    5300197.30546   4170911.74661
  21200737.668     -465244.197 6   -362525.44721
  19459708.824   -20953185.228 7 -16327134.71522
  21252580.973   -11531923.566 7  -8714701.21522
 91  4 26  1 24 44.9960000  0  4G 2G 6G13G12
  21907009.5984    5325532.32346   4190653.29161
  21208018.887     -426938.788 6   -332677.09521
  19461575.316   -20943370.132 7 -16319486.60722
  21243334.004   -11580531.999 7  -8752577.83721
 91  4 26  1 24 59.9960000  0  4G 2G 6G13G12
  21911841.3094    5350926.53346   4210440.96861
  21215334.1994    -388526.11846   -302745.17861
  19463464.316   -20933451.830 7 -16311758.07322
  21234094.6844  -11629059.74247  -8790391.59862
 91  4 26  1 25 14.9960000  0  4G 2G 6G13G12
  21916686.191     5376378.191 6   4230273.39021
  21222659.0274    -350008.21346   -272731.26361
  19465370.277   -20923432.293 7 -16303950.65922
  21224878.4494  -11677508.17047  -8828143.54761
 91  4 26  1 25 29.9960000  0  4G 2G 6G13G12
  21921541.277     5401890.025 6   4250152.72221
  21230014.020     -311382.498 6   -242633.33321
  19467296.6294  -20913309.11647 -16296062.47962
  21215671.7384  -11725874.04447  -8865831.17062
 91  4 26  1 25 44.9960000  0  4G 2G 6G13G12
  21926405.129     5427464.126 6   4270080.57921
  21237381.4414    -272647.19946   -212450.02361
  19469244.199   -20903080.416 7 -16288092.07722
  21206486.8954  -11774155.13347  -8903452.73062
 91  4 26  1 25 59.9960000  0  4G 2G 6G13G12
  21931284.262     5453100.608 6   4290057.03821
  21244774.051     -233802.312 6   -182181.31221
  19471209.645   -20892746.375 7 -16280039.59722
  21197316.270   -11822350.759 7  -8941007.68522
 91  4 26  1 26 14.9960000  0  4G 2G 6G13G12
  21936174.402     5478797.352 6   4310080.45421
  21252188.5984    -194850.23546   -151829.08061
  19473196.4814  -20882309.34047 -16271906.85362
  21188158.152   -11870462.806 7  -8978497.52022
 91  4 26  1 26 29.9960000  0  4G 2G 6G13G12
  21941077.840     5504555.822 6   4330151.96621
  21259619.238     -155789.790 6   -121392.39721
  19475201.238   -20871768.312 7 -16263693.08222
  21179020.7234  -11918489.35647  -9015920.73662
 91  4 26  1 26 44.9960000  0  4G 2G 6G13G12
  21945989.9344    5530378.89946   4350273.83061
  21267075.9574    -116618.33646    -90869.22161
  19477228.879   -20861120.622 7 -16255396.19522
  21169896.5044  -11966427.20947  -9053274.84062
 91  4 26  1 26 59.9960000  0  4G 2G 6G13G12
  21950913.8404    5556262.24146   4370442.64661
  21274552.5044     -77340.57146    -60263.21261
  19479273.262   -20850370.941 7 -16247019.83822
  21160790.7464  -12014280.46947  -9090563.03362
 91  4 26  1 27 14.9960000  0  4G 2G 6G13G12
  21955848.1374    5582205.16646   4390657.88761
  21282044.1374     -37957.36746    -29575.03261
  19481338.1524  -20839520.11047 -16238564.65162
  21151702.3094  -12062049.35947  -9127785.47861
 91  4 26  1 27 29.9960000  0  4G 2G 6G13G12
  21960801.926     5608211.181 6   4410922.28421
  21289560.918        1534.631 6      1197.92221
  19483424.2774  -20828564.65047 -16230027.94362
  21142625.6454  -12109729.91647  -9164939.09262
 91  4 26  1 27 44.9960000  0  4G 2G 6G13G12
  21965755.981     5634275.954 6   4431232.48021
  21297094.3014      41130.59046     32051.88561
  19485527.410   -20817509.453 7 -16221413.51622
  21133568.7774  -12157326.26947  -9202027.09961
 91  4 26  1 27 59.9960000  0  4G 2G 6G13G12
  21970729.035     5660399.710 6   4451588.62421
  21304644.5744      80830.61646     62986.92861
  19487650.309   -20806354.683 7 -16212721.50222
  21124527.1684  -12204837.81147  -9239049.02361
 91  4 26  1 28 14.9960000  0  4G 2G 6G13G12
  21975717.6844    5686589.35346   4471996.10961
  21312222.2854     120641.48446     94008.34961
  19489792.840   -20795093.517 7 -16203946.58322
  21115505.012   -12252257.156 7  -9275999.10121
 91  4 26  1 28 29.9960000  0  4G 2G 6G13G12
  21980709.2074    5712842.07946   4492452.76361
  21319815.856      160560.070 6    125113.71021
  19491955.2154  -20783729.07647 -16195091.18462
  21106500.3404  -12299586.74747  -9312879.24562
 91  4 26  1 28 44.9960000  0  4G 2G 6G13G12
  21985717.3484    5739154.78846   4512956.13661
  21327436.0354     200582.83546    156300.24161
  19494137.8714  -20772264.82847 -16186158.01362
  21097510.4414  -12346829.52447  -9349691.74161
 91  4 26  1 28 59.9960000  0  4G 2G 6G13G12
  21990736.0824    5765524.47046   4533503.89761
  21335072.1524     240706.63546    187565.51161
  19496336.434   -20760704.012 7 -16177149.60322
  21088534.348   -12393987.885 7  -9386438.46221
 91  4 26  1 29 14.9960000  0  4G 2G 6G13G12
  21995768.168     5791956.738 6   4554100.43921
  21342730.9574     280936.69646    218913.56661
  19498557.5354  -20749041.34447 -16168061.81862
  21079577.668   -12441056.101 7  -9423114.94721
 91  4 26  1 29 29.9960000  0  4G 2G 6G13G12
  22000807.8714    5818454.30046   4574747.88361
  21350398.9264     321275.42546    250346.30561
  19500795.6134  -20737274.51247 -16158892.87062
  21070638.809   -12488031.206 7  -9459718.87721
 91  4 26  1 29 44.9960000  0  4G 2G 6G13G12
  22005865.121     5845014.504 6   4595444.12421
  21358101.1764     361719.99446    281861.51361
  19503055.4414  -20725406.43847 -16149645.03262
  21061715.902   -12534915.324 7  -9496251.90521
 91  4 26  1 29 59.9960000  0  4G 2G 6G13G12
  22010927.754     5871631.270 6   4616184.43021
  21365809.2234     402264.19246    313454.36361
  19505331.5124  -20713443.50247 -16140323.27962
  21052809.996   -12581714.124 7  -9532718.45621
 91  4 26  1 30 14.9960000  0  4G 2G 6G13G12
  22016003.582     5898309.568 5   4636972.69021
  21373544.2704     442912.81646    345128.58061
  19507626.8714  -20701380.85548 -16130923.82262
  21043920.879   -12628422.148 7  -9569114.27521
 91  4 26  1 30 29.9960000  0  4G 2G 6G13G12
  22021091.629     5925052.305 6   4657811.15721
  21381304.715      483668.268 6    376886.02321
  19509941.4344  -20689215.80047 -16121444.57162
  21035051.7934  -12675036.18347  -9605436.85761
 91  4 26  1 30 44.9960000  0  4G 2G 6G13G12
  22026197.113     5951859.631 6   4678699.95521
  21389080.6454     524530.43046    408726.62961
  19512275.7934  -20676948.54647 -16111885.67762
  21026200.7154  -12721555.87747  -9641685.93361
 91  4 26  1 30 59.9960000  0  4G 2G 6G13G12
  22031308.871     5978727.056 6   4699635.58521
  21396878.785      565494.598 6    440646.71921
  19514627.160   -20664584.121 7 -16102251.07322
  21017366.2074  -12767985.44347  -9677864.78061
 91  4 26  1 31 14.9960000  0  4G 2G 6G13G12
  22036430.9104    6005661.25946   4720623.24361
  21404693.3014     606567.27346    472651.36261
  19517003.301   -20652115.877 8 -16092535.56922
  21008546.1064  -12814317.62247  -9713967.73861
 91  4 26  1 31 29.9960000  0  4G 2G 6G13G12
  22041568.613     6032658.608 6   4741660.11021
  21412525.7544     647744.44946    504737.43061
  19519393.3794  -20639547.70147 -16082742.19862
  20999751.0124  -12860555.80447  -9749997.45761
 91  4 26  1 31 44.9960000  0  4G 2G 6G13G12
  22046722.5044    6059721.52446   4762748.06361
  21420384.356      689028.113 6    536906.46621
  19521802.8164  -20626877.61147 -16072869.41162
  20990967.3484  -12906697.29947  -9785951.83861
 91  4 26  1 31 59.9960000  0  4G 2G 6G13G12
  22051882.481     6086845.240 6   4783883.40921
  21428259.129      730413.522 6    569154.80421
  19524233.488   -20614110.768 7 -16062921.23422
  20982205.3324  -12952746.26747  -9821834.11961
 91  4 26  1 32 14.9960000  0  4G 2G 6G13G12
  22057055.9734    6114040.07446   4805074.17361
  21436158.1844     771910.51646    601490.09261
  19526683.137   -20601237.048 7 -16052889.77922
  20973462.4574  -12998692.20847  -9857636.11961
 91  4 26  1 32 29.9960000  0  4G 2G 6G13G12
  22062243.293     6141302.503 6   4826317.58321
  21444074.043      813515.411 6    633909.43321
  19529153.356   -20588260.297 7 -16042778.04022
  20964738.5904  -13044538.18547  -9893360.22361
 91  4 26  1 32 44.9960000  0  4G 2G 6G13G12
  22067445.0824    6168627.45546   4847609.72861
  21452013.449      855222.918 6    666408.73521
  19531641.4024  -20575185.49347 -16032589.89362
  20956031.0824  -13090288.88947  -9929010.08261
 91  4 26  1 32 59.9960000  0  4G 2G 6G13G12
  22072657.5274    6196018.14946   4868953.09561
  21459968.0744     897035.83646    698990.19261
  19534146.2464  -20562009.87947 -16022323.19362
  20947345.1914  -13135940.83247  -9964582.99161
 91  4 26  1 33 14.9960000  0  4G 2G 6G13G12
  22077881.145     6223473.095 6   4890346.53621
  21467945.410      938952.486 6    731652.48521
  19536672.152   -20548735.585 7 -16011979.60222
  20938676.0664  -13181495.16847 -10000079.84561
 91  4 26  1 33 29.9960000  0  4G 2G 6G13G12
  22083112.8874    6250989.89745   4911788.16461
  21475939.5124     980970.14946    764393.48661
  19539217.699   -20535365.132 7 -16001561.08322
  20930024.1294  -13226953.97447 -10035502.26162
 91  4 26  1 33 44.9960000  0  4G 2G 6G13G12
  22088372.199     6278578.703 6   4933285.91021
  21483956.301     1023098.688 6    797220.89621
  19541783.3874  -20521888.26447 -15991059.63862
  20921395.8564  -13272306.71647 -10070842.02861
 91  4 26  1 33 59.9960000  0  4G 2G 6G13G12
  22093631.559     6306241.186 6   4954841.06321
  21491995.770     1065339.658 6    830135.87521
  19544366.973   -20508303.722 8 -15980474.29722
  20912784.8484  -13317551.19347 -10106097.43262
 91  4 26  1 34 14.9960000  0  4G 2G 6G13G12
  22098908.160     6333974.348 6   4976451.29521
  21500052.3794    1107689.76746    863135.92461
  19546973.0204  -20494614.89948 -15969807.69162
  20904195.0904  -13362690.01147 -10141270.50162
 91  4 26  1 34 29.9960000  0  4G 2G 6G13G12
  22104198.2384    6361775.86846   4998114.80061
  21508131.152     1150146.336 6    896218.93121
  19549598.199   -20480824.540 8 -15959061.97422
  20895627.5664  -13407725.25647 -10176362.86362
 91  4 26  1 34 44.9960000  0  4G 2G 6G13G12
  22109505.4414    6389650.81346   5019835.51561
  21516236.762     1192714.227 6    929388.66821
  19552239.770   -20466927.734 8 -15948233.31022
  20887075.145   -13452651.560 7 -10211370.33022
 91  4 26  1 34 59.9960000  0  4G 2G 6G13G12
  22114822.481     6417593.507 6   5041609.01821
  21524354.949     1235387.368 6    962640.42621
  19554904.684   -20452930.478 8 -15937326.37322
  20878546.027   -13497474.263 7 -10246297.06922
 91  4 26  1 35 14.9960000  0  4G 2G 6G13G12
  22120146.9184    6445604.98845   5063436.13361
  21532494.3634    1278166.56346    995974.81961
  19557589.395   -20438831.930 8 -15926340.50622
  20870035.754   -13542191.862 7 -10281141.90522
 91  4 26  1 35 29.9960000  0  4G 2G 6G13G12
  22125494.949     6473689.469 6   5085320.09321
  21540655.6294    1321055.82746   1029394.99061
  19560290.785   -20424628.202 7 -15915272.67722
  20861549.356   -13586799.714 7 -10315901.23022
 91  4 26  1 35 44.9960000  0  4G 2G 6G13G12
  22130855.035     6501841.789 6   5107256.94421
  21548839.121     1364049.676 6   1062896.64821
  19563012.426   -20410324.923 7 -15904127.28422
  20853079.762   -13631302.723 7 -10350578.85022
 91  4 26  1 35 59.9960000  0  4G 2G 6G13G12
  22136221.340     6530064.560 6   5129248.68321
  21557041.824     1407150.397 6   1096481.57821
  19565753.832   -20395919.675 7 -15892902.43022
  20844633.738   -13675697.709 7 -10385172.29622
 91  4 26  1 36 14.9960000  0  4G 2G 6G13G12
  22141606.051     6558357.317 6   5151294.94621
  21565260.0434    1450357.20146   1130149.17961
  19568514.4494  -20381413.15547 -15881598.65662
  20836204.277   -13719985.170 7 -10419681.95522
 91  4 26  1 36 29.9960000  0  4G 2G 6G13G12
  22147004.4884    6586719.18146   5173395.07561
  21573500.0354    1493668.95946   1163898.55361
  19571291.988   -20366806.424 7 -15870216.80222
  20827797.363   -13764165.512 7 -10454108.14222
 91  4 26  1 36 44.9960000  0  4G 2G 6G13G12
  22152419.3404    6615151.15646   5195549.81561
  21581767.7704    1537086.54446   1197730.39361
  19574092.551   -20352098.846 7 -15858756.36622
  20819409.285   -13808237.157 7 -10488449.63122
 91  4 26  1 36 59.9960000  0  4G 2G 6G13G12
  22157838.590     6643649.212 6   5217756.05721
  21590045.262     1580605.764 6   1231641.42821
  19576909.410   -20337294.643 7 -15847220.63722
  20811045.160   -13852203.800 7 -10522709.29622
 91  4 26  1 37 14.9960000  0  4G 2G 6G13G12
  22163276.9884    6672215.21846   5240015.24761
  21598344.277     1624228.100 5   1265632.83321
  19579745.020   -20322392.197 7 -15835608.35322
  20802699.4024  -13896063.25847 -10556885.43462
 91  4 26  1 37 29.9960000  0  4G 2G 6G13G12
  22168721.551     6700850.175 6   5262328.17721
  21606668.3564    1667954.21346   1299705.07361
  19582599.965   -20307390.794 7 -15823918.96622
  20794371.590   -13939814.213 7 -10590977.03822
 91  4 26  1 37 44.9960000  0  4G 2G 6G13G12
  22174187.8014    6729550.74846   5284692.24061
  21615013.0984    1711780.37346   1333855.27161
  19585473.434   -20292294.082 7 -15812155.31122
  20786065.0204  -13983459.65447 -10624986.41662
 91  4 26  1 37 59.9960000  0  4G 2G 6G13G12
  22179659.2074    6758319.96346   5307109.76661
  21623372.613     1755709.632 6   1368085.83221
  19588363.629   -20277099.431 7 -15800315.33222
  20777783.9734  -14026995.99247 -10658910.77462
 91  4 26  1 38 14.9960000  0  4G 2G 6G13G12
  22185147.5354    6787156.76346   5329579.94561
  21631746.1914    1799740.35246   1402395.45361
  19591274.9574  -20261808.15047 -15788400.06162
  20769517.3324  -14070424.16347 -10692750.84662
 91  4 26  1 38 29.9960000  0  4G 2G 6G13G12
  22190650.832     6816062.803 6   5352104.11521
  21640147.801     1843873.894 6   1436785.18021
  19594203.145   -20246418.778 7 -15776408.35522
  20761274.3794  -14113742.24447 -10726505.13062
 91  4 26  1 38 44.9960000  0  4G 2G 6G13G12
  22196161.590     6845034.739 6   5374679.63521
  21648560.3404    1888106.72646   1471252.28061
  19597148.8484  -20230934.89647 -15764343.00362
  20753051.2464  -14156953.06347 -10760175.83662
 91  4 26  1 38 59.9960000  0  4G 2G 6G13G12
  22201689.2154    6874077.65746   5397310.45461
  21656994.848     1932443.774 5   1505800.58221
  19600113.5124  -20215351.82547 -15752200.36062
  20744851.0354  -14200051.11047 -10793758.66662
 91  4 26  1 39 14.9960000  0  4G 2G 6G13G12
  22207229.793     6903187.337 6   5419993.28321
  21665453.9814    1976880.52646   1540426.58861
  19603097.316   -20199674.099 7 -15739983.96722
  20736669.5594  -14243040.15147 -10827256.55762
 91  4 26  1 39 29.9960000  0  4G 2G 6G13G12
  22212778.3794    6932366.63146   5442730.39361
  21673929.590     2021419.460 6   1575132.20421
  19606099.434   -20183899.010 7 -15727691.69922
  20728510.3484  -14285916.95847 -10860666.99562
 91  4 26  1 39 44.9960000  0  4G 2G 6G13G12
  22218346.004     6961612.973 6   5465519.71221
  21682421.9414    2066057.82646   1609915.29161
  19609118.496   -20168029.250 7 -15715325.66622
  20720372.949   -14328683.757 7 -10893991.70322
 91  4 26  1 39 59.9960000  0  4G 2G 6G13G12
  22223924.231     6990926.912 6   5488361.70221
  21690937.3324    2110795.77446   1644775.98961
  19612159.809   -20152064.627 7 -15702885.70822
  20712254.4734  -14371339.72047 -10927230.05262
 91  4 26  1 40 14.9960000  0  4G 2G 6G13G12
  22229514.3954    7020306.51346   5511254.88361
  21699468.4884    2155631.26846   1679712.68861
  19615213.324   -20136007.414 7 -15690373.60822
  20704157.3634  -14413886.32347 -10960383.18362
 91  4 26  1 40 29.9960000  0  4G 2G 6G13G12
  22235118.6684    7049752.39546   5534199.69661
  21708019.7544    2200564.43046   1714725.50761
  19618286.504   -20119857.583 7 -15677789.33922
  20696083.6994  -14456322.83247 -10993450.53162
 91  4 26  1 40 44.9960000  0  4G 2G 6G13G12
  22240730.5124    7079264.84846   5557196.41061
  21716592.9104    2245595.24046   1749814.39661
  19621377.434   -20103614.880 7 -15665132.70422
  20688028.7234  -14498648.52147 -11026431.52862
 91  4 26  1 40 59.9960000  0  4G 2G 6G13G12
  22246361.723     7108843.193 6   5580244.44021
  21725176.504     2290723.117 6   1784978.93221
  19624485.9814  -20087280.03247 -15652404.25462
  20679995.2384  -14540863.48547 -11059326.23862
 91  4 26  1 41 14.9960000  0  4G 2G 6G13G12
  22252007.7624    7138485.00346   5603341.93661
  21733783.9814    2335945.12746   1820216.82861
  19627611.8874  -20070855.76447 -15639606.13362
  20671983.0664  -14582969.63747 -11092136.16162
 91  4 26  1 41 29.9960000  0  4G 2G 6G13G12
  22257654.137     7168192.783 6   5626490.82521
  21742403.6604    2381263.35645   1855529.68361
  19630752.8874  -20054340.04547 -15626736.75062
  20663991.7704  -14624964.45647 -11124859.33462
 91  4 26  1 41 44.9960000  0  4G 2G 6G13G12
  22263320.465     7197968.000 5   5649692.27421
  21751048.6914    2426679.40345   1890918.76061
  19633913.6134  -20037731.47947 -15613795.01462
  20656022.4414  -14666845.82347 -11157494.10762
 91  4 26  1 41 59.9960000  0  4G 2G 6G13G12
  22269004.0744    7227809.15045   5672945.08661
  21759709.9884    2472191.10746   1926382.38361
  19637093.8094  -20021031.75447 -15600782.25262
  20648073.8094  -14708615.00047 -11190041.45762
 91  4 26  1 42 14.9960000  0  4G 2G 6G13G12
  22274695.4264    7257718.43846   5696250.98461
  21768391.2234    2517800.57746   1961922.17561
  19640287.9104  -20004239.29647 -15587697.22962
  20640147.3794  -14750269.66347 -11222499.58362
 91  4 26  1 42 29.9960000  0  4G 2G 6G13G12
  22280396.902     7287690.020 6   5719605.43821
  21777089.4734    2563501.59246   1997533.29961
  19643499.7234  -19987360.06547 -15574544.58662
  20632240.8244  -14791815.01947 -11254872.53162
 91  4 26  1 42 44.9960000  0  4G 2G 6G13G12
  22286108.5984    7317725.85645   5743009.97661
  21785798.4104    2609295.81146   2033217.05161
  19646729.9574  -19970392.44447 -15561323.07062
  20624356.074   -14833248.818 7 -11287158.55722
 91  4 26  1 42 59.9960000  0  4G 2G 6G13G12
  22291839.1134    7347826.82345   5766465.22761
  21794531.4574    2655183.72846   2068973.84261
  19649974.4494  -19953335.93347 -15548032.28962
  20616494.871   -14874569.887 7 -11319356.74222
 91  4 26  1 43 14.9960000  0  4G 2G 6G13G12
  22297579.6524    7377994.61745   5789972.59561
  21803281.6994    2701166.88045   2104804.81861
  19653238.0354  -19936188.99647 -15534671.04262
  20608653.121   -14915776.136 7 -11351465.46222
 91  4 26  1 43 29.9960000  0  4G 2G 6G13G12
  22303334.449     7408226.576 5   5813529.92321
  21812050.7464    2747242.19545   2140707.63061
  19656515.7314  -19918954.61647 -15521241.66462
  20600831.082   -14956869.880 7 -11383486.51422
 91  4 26  1 43 44.9960000  0  4G 2G 6G13G12
  22309095.0744    7438524.78845   5837138.89961
  21820831.0354    2793411.72245   2176683.81961
  19659814.6764  -19901630.62248 -15507742.45762
  20593034.668   -14997848.468 7 -11415417.83222
 91  4 26  1 43 59.9960000  0  4G 2G 6G13G12
  22314873.621     7468888.900 5   5860799.22721
  21829638.215     2839674.717 5   2212732.84121
  19663127.5984  -19884217.74847 -15494173.99362
  20585257.512   -15038712.040 7 -11447259.53522
 91  4 26  1 44 14.9960000  0  4G 2G 6G13G12
  22320668.3014    7499314.85345   5884507.73261
  21838462.6994    2886026.89646   2248851.39161
  19666456.5204  -19866720.39447 -15480539.70163
  20577502.270   -15079464.208 7 -11479014.43122
 91  4 26  1 44 29.9960000  0  4G 2G 6G13G12
  22326470.629     7529801.277 5   5908263.36921
  21847299.473     2932466.437 6   2285037.98321
  19669803.6604  -19849140.50047 -15466841.09062
  20569769.168   -15120106.037 7 -11510683.34622
 91  4 26  1 44 44.9960000  0  4G 2G 6G13G12
  22332281.121     7560353.516 5   5932070.28221
  21856153.020     2978998.569 6   2321296.74721
  19673163.9654  -19831472.84047 -15453074.09362
  20562057.7704  -15160631.86347 -11542261.86862
 91  4 26  1 44 59.9960000  0  4G 2G 6G13G12
  22338108.410     7590973.898 5   5955930.30521
  21865027.066     3025625.411 6   2357629.31421
  19676543.973   -19813715.146 7 -15439236.94022
  20554366.7704  -15201038.76047 -11573747.72162
 91  4 26  1 45 14.9960000  0  4G 2G 6G13G12
  22343946.824     7621662.102 5   5979843.14921
  21873916.5204    3072346.02246   2394034.93661
  19679938.5594  -19795868.44047 -15425330.42863
  20546700.9734  -15241327.04447 -11605141.15662
 91  4 26  1 45 29.9960000  0  4G 2G 6G13G12
  22349799.9964    7652414.91245   6003806.36261
  21882823.3014    3119156.97445   2430510.96161
  19683352.5354  -19777935.99248 -15411357.09762
  20539054.5904  -15281499.44147 -11636444.28962
 91  4 26  1 45 44.9960000  0  4G 2G 6G13G12
  22355661.660     7683228.249 5   6027816.72521
  21891749.5274    3166054.09546   2467054.10561
  19686778.9024  -19759921.90647 -15397320.16162
  20531433.3714  -15321559.51347 -11667659.89462
 91  4 26  1 45 59.9960000  0  4G 2G 6G13G12
  22361539.1524    7714109.34545   6051879.89161
  21900689.7234    3213044.36246   2503669.87461
  19690225.2464  -19741819.25147 -15383214.20662
  20523833.8014  -15361499.72147 -11698782.10062
 91  4 26  1 46 14.9960000  0  4G 2G 6G13G12
  22367423.770     7745047.597 5   6075987.59821
  21909650.0514    3260116.82345   2540349.64161
  19693685.129   -19723638.804 7 -15369047.64222
  20516253.2384  -15401330.30147 -11729818.89362
 91  4 26  1 46 29.9960000  0  4G 2G 6G13G12
  22373327.6524    7776053.43945   6100147.93961
  21918624.4964    3307281.65945   2577101.41861
  19697160.535   -19705370.558 8 -15354812.65922
  20508695.6214  -15441040.50547 -11760761.88162
 91  4 26  1 46 44.9960000  0  4G 2G 6G13G12
  22379238.4654    7807120.27545   6124355.84761
  21927614.2774    3354531.83145   2613919.68161
  19700652.1684  -19687021.25648 -15340514.51362
  20501160.3484  -15480636.51447 -11791615.88662
 91  4 26  1 46 59.9960000  0  4G 2G 6G13G12
  22385164.270     7838249.624 5   6148612.46021
  21936623.6134    3401868.82745   2650805.61661
  19704160.3564  -19668589.66848 -15326152.25162
  20493647.8404  -15520116.31147 -11822379.33962
 91  4 26  1 47 14.9960000  0  4G 2G 6G13G12
  22391096.2624    7869444.33245   6172919.99261
  21945646.238     3449295.039 5   2687761.05421
  19707684.027   -19650073.403 8 -15311724.00522
  20486158.8714  -15559476.82447 -11853049.84862
 91  4 26  1 47 29.9960000  0  4G 2G 6G13G12
  22397051.3484    7900705.00845   6197278.94161
  21954689.5904    3496810.64846   2724786.12961
  19711223.441   -19631472.117 8 -15297229.51222
  20478691.0124  -15598717.18947 -11883626.72462
 91  4 26  1 47 44.9960000  0  4G 2G 6G13G12
  22403008.9964    7932026.41845   6221685.21561
  21963748.410     3544410.247 5   2761876.70521
  19714778.457   -19612791.258 8 -15282673.01222
  20471246.9574  -15637842.08047 -11914113.62462
 91  4 26  1 47 59.9960000  0  4G 2G 6G13G12
  22408982.7384    7963409.82045   6246139.77461
  21972824.691     3592094.950 5   2799033.55521
  19718349.6684  -19594029.87148 -15268053.76362
  20463823.9884  -15676849.94347 -11944509.33662
 91  4 26  1 48 14.9960000  0  4G 2G 6G13G12
  22414968.7934    7994855.95345   6270643.22661
  21981910.457     3639865.085 5   2836256.98321
  19721934.020   -19575187.496 8 -15253371.40522
  20456425.168   -15715739.622 7 -11974812.95922
 91  4 26  1 48 29.9960000  0  4G 2G 6G13G12
  22420958.8484    8026363.64445   6295194.67761
  21991018.191     3687719.165 5   2873545.82721
  19725535.5744  -19556265.43648 -15238626.95362
  20449045.1134  -15754512.04347 -12005025.20462
 91  4 26  1 48 44.9960000  0  4G 2G 6G13G12
  22426971.762     8057937.689 5   6319797.78021
  22000138.3164    3735661.75645   2910903.66461
  19729150.715   -19537259.108 8 -15223816.84422
  20441690.1764  -15793162.00747 -12035142.03162
 91  4 26  1 48 59.9960000  0  4G 2G 6G13G12
  22432989.059     8089573.129 5   6344448.77821
  22009278.3954    3783687.69345   2948326.42461
  19732783.707   -19518173.697 8 -15208945.11322
  20434358.3874  -15831693.98247 -12065166.91762
 91  4 26  1 49 14.9960000  0  4G 2G 6G13G12
  22439017.9344    8121269.10445   6369146.91861
  22018434.7314    3831795.78845   2985813.19261
  19736429.387   -19499010.227 8 -15194012.56322
  20427049.1064  -15870108.52747 -12095100.29962
 91  4 26  1 49 29.9960000  0  4G 2G 6G13G12
  22445063.801     8153029.806 5   6393895.47421
  22027606.113     3879989.933 5   3023367.00921
  19740093.277   -19479765.010 8 -15179016.29722
  20419761.441   -15908401.046 7 -12124938.59822
 91  4 26  1 49 44.9960000  0  4G 2G 6G13G12
  22451122.0744    8184854.19745   6418693.70961
  22036795.6914    3928268.83545   3060986.86261
  19743769.879   -19460439.201 8 -15163957.24422
  20412496.7774  -15946572.25947 -12154682.37262
